[[{"header":{"parameterUnit":"m.s-1","parameterCategory":1,"la1":30.6,"la2":28.766,"lo1":-90.7593,"lo2":-88.6598,"dy":0.0162,"dx":0.0183,"nx":116,"ny":114,"refTime":"2023-08-16T06:00:00:Z","depth":0,"parameterNumber":2,"parameterNumberName":"U-component_of_WINDS"},"data":[0.0,0.0,0.0,0.0,0.0,0.0,0.0,0.0,0.0,0.0,0.0,0.0,0.0,0.0,0.0,0.0,0.0,0.0,0.0,0.0,0.0,0.0,0.0,0.0,0.0,0.0,0.0,0.0,0.0,0.0,0.0,0.0,0.0,0.0,0.0,0.0,0.0,0.0,0.0,0.0,0.0,0.0,0.0,0.0,0.0,0.0,0.0,0.0,0.0,0.0,0.0,0.0,0.0,0.0,0.0,0.0,0.0,0.0,0.0,0.0,0.0,0.0,0.0,0.0,0.0,0.0,0.0,0.0,0.0,0.0,0.0,0.0,0.0,0.0,0.0,0.0,0.0,0.0,0.0,0.0,0.0,0.0,0.0,0.0,0.0,0.0,0.0,0.0,0.0,0.0,0.0,0.0,0.0,0.0,0.0,0.0,0.0,0.0,0.0,0.0,0.0,0.0,0.0,0.0,0.0,0.0,0.0,0.0,0.0,0.0,0.0,0.0,0.0,0.0,0.0,0.0,0.0,0.0,0.0,0.0,0.0,0.0,0.0,0.0,0.0,0.0,0.0,0.0,0.0,0.0,0.0,0.0,0.0,0.0,0.0,0.0,0.0,0.0,0.0,0.0,0.0,0.0,0.0,0.0,0.0,0.0,0.0,0.0,0.0,0.0,0.0,0.0,0.0,0.0,0.0,0.0,0.0,0.0,0.0,0.0,0.0,0.0,0.0,0.0,0.0,0.0,0.0,0.0,0.0,0.0,0.0,0.0,0.0,0.0,0.0,0.0,0.0,0.0,0.0,0.0,0.0,0.0,0.0,0.0,0.0,0.0,0.0,0.0,0.0,0.0,0.0,0.0,0.0,0.0,0.0,0.0,0.0,0.0,0.0,0.0,0.0,0.0,0.0,0.0,0.0,0.0,0.0,0.0,0.0,0.0,0.0,0.0,0.0,0.0,0.0,0.0,0.0,0.0,0.0,0.0,0.0,0.0,0.0,0.0,0.0,0.0,0.0,0.0,0.0,0.0,0.0,0.0,0.0,0.0,0.0,0.0,0.0,0.0,0.0,0.0,0.0,0.0,0.0,0.0,0.0,0.0,0.0,0.0,0.0,0.0,0.0,0.0,0.0,0.0,0.0,0.0,0.0,0.0,0.0,0.0,0.0,0.0,0.0,0.0,0.0,0.0,0.0,0.0,0.0,0.0,0.0,0.0,0.0,0.0,0.0,0.0,0.0,0.0,0.0,0.0,0.0,0.0,0.0,0.0,0.0,0.0,0.0,0.0,0.0,0.0,0.0,0.0,0.0,0.0,0.0,0.0,0.0,0.0,0.0,0.0,0.0,0.0,0.0,0.0,0.0,0.0,0.0,0.0,0.0,0.0,0.0,0.0,0.0,0.0,0.0,0.0,0.0,0.0,0.0,0.0,0.0,0.0,0.0,0.0,0.0,0.0,0.0,0.0,0.0,0.0,0.0,0.0,0.0,0.0,0.0,0.0,0.0,0.0,0.0,0.0,0.0,0.0,0.0,0.0,0.0,0.0,0.0,0.0,0.0,0.0,0.0,0.0,0.0,0.0,0.0,0.0,0.0,0.0,0.0,0.0,0.0,0.0,0.0,0.0,0.0,0.0,0.0,0.0,0.0,0.0,0.0,0.0,0.0,0.0,0.0,0.0,0.0,0.0,0.0,0.0,0.0,0.0,0.0,0.0,0.0,0.0,0.0,0.0,0.0,0.0,0.0,0.0,0.0,0.0,0.0,0.0,0.0,0.0,0.0,0.0,0.0,0.0,0.0,0.0,0.0,0.0,0.0,0.0,0.0,0.0,0.0,0.0,0.0,0.0,0.0,0.0,0.0,0.0,0.0,0.0,0.0,0.0,0.0,0.0,0.0,0.0,0.0,0.0,0.0,0.0,0.0,0.0,0.0,0.0,0.0,0.0,0.0,0.0,0.0,0.0,0.0,0.0,0.0,0.0,0.0,0.0,0.0,0.0,0.0,0.0,0.0,0.0,0.0,0.0,0.0,0.0,0.0,0.0,0.0,0.0,0.0,0.0,0.0,0.0,0.0,0.0,0.0,0.0,0.0,0.0,0.0,0.0,0.0,0.0,0.0,0.0,0.0,0.0,0.0,0.0,0.0,0.0,0.0,0.0,0.0,0.0,0.0,0.0,0.0,0.0,0.0,0.0,0.0,0.0,0.0,0.0,0.0,0.0,0.0,0.0,0.0,0.0,0.0,0.0,0.0,0.0,0.0,0.0,0.0,0.0,0.0,0.0,0.0,0.0,0.0,0.0,0.0,0.0,0.0,0.0,0.0,0.0,0.0,0.0,0.0,0.0,0.0,0.0,0.0,0.0,0.0,0.0,0.0,0.0,0.0,0.0,0.0,0.0,0.0,0.0,0.0,0.0,0.0,0.0,0.0,0.0,0.0,0.0,0.0,0.0,0.0,0.0,0.0,0.0,0.0,0.0,0.0,0.0,0.0,0.0,0.0,0.0,0.0,0.0,0.0,0.0,0.0,0.0,0.0,0.0,0.0,0.0,0.0,0.0,0.0,0.0,0.0,0.0,0.0,0.0,0.0,0.0,0.0,0.0,0.0,0.0,0.0,0.0,0.0,0.0,0.0,0.0,0.0,0.0,0.0,0.0,0.0,0.0,0.0,0.0,0.0,0.0,0.0,0.0,0.0,0.0,0.0,0.0,0.0,0.0,0.0,0.0,0.0,0.0,0.0,0.0,0.0,0.0,0.0,0.0,0.0,0.0,0.0,0.0,0.0,0.0,0.0,0.0,0.0,0.0,0.0,0.0,0.0,0.0,0.0,0.0,0.0,0.0,0.0,0.0,0.0,0.0,0.0,0.0,0.0,0.0,0.0,0.0,0.0,0.0,0.0,0.0,0.0,0.0,0.0,0.0,0.0,0.0,0.0,0.0,0.0,0.0,0.0,0.0,0.0,0.0,0.0,0.0,0.0,0.0,0.0,0.0,0.0,0.0,0.0,0.0,0.0,0.0,0.0,0.0,0.0,0.0,0.0,0.0,0.0,0.0,0.0,0.0,0.0,0.0,0.0,0.0,0.0,0.0,0.0,0.0,0.0,0.0,0.0,0.0,0.0,0.0,0.0,0.0,0.0,0.0,0.0,0.0,0.0,0.0,0.0,0.0,0.0,0.0,0.0,0.0,0.0,0.0,0.0,0.0,0.0,0.0,0.0,0.0,0.0,0.0,0.0,0.0,0.0,0.0,0.0,0.0,0.0,0.0,0.0,0.0,0.0,0.0,0.0,0.0,0.0,0.0,0.0,0.0,0.0,0.0,0.0,0.0,0.0,0.0,0.0,0.0,0.0,0.0,0.0,0.0,0.0,0.0,0.0,0.0,0.0,0.0,0.0,0.0,0.0,0.0,0.0,0.0,0.0,0.0,0.0,0.0,0.0,0.0,0.0,0.0,0.0,0.0,0.0,0.0,0.0,0.0,0.0,0.0,0.0,0.0,0.0,0.0,0.0,0.0,0.0,0.0,0.0,0.0,0.0,0.0,0.0,0.0,0.0,0.0,0.0,0.0,0.0,0.0,0.0,0.0,0.0,0.0,0.0,0.0,0.0,0.0,0.0,0.0,0.0,0.0,0.0,0.0,0.0,0.0,0.0,0.0,0.0,0.0,0.0,0.0,0.0,0.0,0.0,0.0,0.0,0.0,0.0,0.0,0.0,0.0,0.0,0.0,0.0,0.0,0.0,0.0,0.0,0.0,0.0,0.0,0.0,0.0,0.0,0.0,0.0,0.0,0.0,0.0,0.0,0.0,0.0,0.0,0.0,0.0,0.0,0.0,0.0,0.0,0.0,0.0,0.0,0.0,0.0,0.0,0.0,0.0,0.0,0.0,0.0,0.0,0.0,0.0,0.0,0.0,0.0,0.0,0.0,0.0,0.0,0.0,0.0,0.0,0.0,0.0,0.0,0.0,0.0,0.0,0.0,0.0,0.0,0.0,0.0,0.0,0.0,0.0,0.0,0.0,0.0,0.0,0.0,0.0,0.0,0.0,0.0,0.0,0.0,0.0,0.0,0.0,0.0,0.0,0.0,0.0,0.0,0.0,0.0,0.0,0.0,0.0,0.0,0.0,0.0,0.0,0.0,0.0,0.0,0.0,0.0,0.0,0.0,0.0,0.0,0.0,0.0,0.0,0.0,0.0,0.0,0.0,0.0,0.0,0.0,0.0,0.0,0.0,0.0,0.0,0.0,0.0,0.0,0.0,0.0,0.0,0.0,0.0,0.0,0.0,0.0,0.0,0.0,0.0,0.0,0.0,0.0,0.0,0.0,0.0,0.0,0.0,0.0,0.0,0.0,0.0,0.0,0.0,0.0,0.0,0.0,0.0,0.0,0.0,0.0,0.0,0.0,0.0,0.0,0.0,0.0,0.0,0.0,0.0,0.0,0.0,0.0,0.0,0.0,0.0,0.0,0.0,0.0,0.0,0.0,0.0,0.0,0.0,0.0,0.0,0.0,0.0,0.0,0.0,0.0,0.0,0.0,0.0,0.0,0.0,0.0,0.0,0.0,0.0,0.0,0.0,0.0,0.0,0.0,0.0,0.0,0.0,0.0,0.0,0.0,0.0,0.0,0.0,0.0,0.0,0.0,0.0,0.0,0.0,0.0,0.0,0.0,0.0,0.0,0.0,0.0,0.0,0.0,0.0,0.0,0.0,0.0,0.0,0.0,0.0,0.0,0.0,0.0,0.0,0.0,0.0,0.0,0.0,0.0,0.0,0.0,0.0,0.0,0.0,0.0,0.0,0.0,0.0,0.0,0.0,0.0,0.0,0.0,0.0,0.0,0.0,0.0,0.0,0.0,0.0,0.0,0.0,0.0,0.0,0.0,0.0,0.0,0.0,0.0,0.0,0.0,0.0,0.0,0.0,0.0,0.0,0.0,0.0,0.0,0.0,0.0,0.0,0.0,0.0,0.0,0.0,0.0,0.0,0.0,0.0,0.0,0.0,0.0,0.0,0.0,0.0,0.0,0.0,0.0,0.0,0.0,0.0,0.0,0.0,0.0,0.0,0.0,0.0,0.0,0.0,0.0,0.0,0.0,0.0,0.0,0.0,0.0,0.0,0.0,0.0,0.0,0.0,0.0,0.0,0.0,0.0,0.0,0.0,0.0,0.0,0.0,0.0,0.0,0.0,0.0,0.0,0.0,0.0,0.0,0.0,0.0,0.0,0.0,0.0,0.0,0.0,0.0,0.0,0.0,0.0,0.0,0.0,0.0,0.0,0.0,0.0,0.0,0.0,0.0,0.0,0.0,0.0,0.0,0.0,0.0,0.0,0.0,0.0,0.0,0.0,0.0,0.0,0.0,0.0,0.0,0.0,0.0,0.0,0.0,0.0,0.0,0.0,0.0,0.0,0.0,0.0,0.0,0.0,0.0,0.0,0.0,0.0,0.0,0.0,0.0,0.0,0.0,0.0,0.0,0.0,0.0,0.0,0.0,0.0,0.0,0.0,0.0,0.0,0.0,0.0,0.0,0.0,0.0,0.0,0.0,0.0,0.0,0.0,0.0,0.0,0.0,0.0,0.0,0.0,0.0,0.0,0.0,0.0,0.0,0.0,0.0,0.0,0.0,0.0,0.0,0.0,0.0,0.0,0.0,0.0,0.0,0.0,0.0,0.0,0.0,0.0,0.0,0.0,0.0,0.0,0.0,0.0,0.0,0.0,0.0,0.0,0.0,0.0,0.0,0.0,0.0,0.0,0.0,0.0,0.0,0.0,0.0,0.0,0.0,0.0,0.0,0.0,0.0,0.0,0.0,0.0,0.0,0.0,0.0,0.0,0.0,0.0,0.0,0.0,0.0,0.0,0.0,0.0,0.0,0.0,0.0,0.0,0.0,0.0,0.0,0.0,0.0,0.0,0.0,0.0,0.0,0.0,0.0,0.0,0.0,0.0,0.0,0.0,0.0,0.0,0.0,0.0,0.0,0.0,0.0,0.0,0.0,0.0,0.0,0.0,0.0,0.0,0.0,0.0,0.0,0.0,0.0,0.0,0.0,0.0,0.0,0.0,0.0,0.0,0.0,0.0,0.0,0.0,0.0,0.0,0.0,0.0,0.0,0.0,0.0,0.0,1.5819,0.0,0.0,0.0,0.0,0.0,0.0,0.0,0.0,0.0,0.0,0.0,0.0,0.0,0.0,0.0,0.0,0.0,0.0,0.0,0.0,0.0,0.0,0.0,0.0,0.0,0.0,0.0,0.0,0.0,0.0,0.0,0.0,0.0,0.0,0.0,0.0,0.0,0.0,0.0,0.0,0.0,0.0,0.0,0.0,0.0,0.0,0.0,0.0,0.0,0.0,0.0,0.0,0.0,0.0,0.0,0.0,0.0,0.0,0.0,0.0,0.0,0.0,0.0,0.0,0.0,0.0,0.0,0.0,0.0,0.0,0.0,0.0,0.0,0.0,0.0,0.0,0.0,0.0,0.0,0.0,0.0,0.0,0.0,0.0,0.0,0.0,0.0,0.0,0.0,0.0,0.0,0.0,0.0,0.0,0.0,0.0,0.0,0.0,0.0,0.0,0.0,0.0,0.0,0.0,0.0,0.0,0.0,0.0,0.0,0.0,0.0,0.0,0.0,0.0,0.0,0.0,1.3263,0.0,0.0,0.0,0.0,0.0,0.0,0.0,0.0,0.0,0.0,0.0,0.0,0.0,0.0,0.0,0.0,0.0,0.0,0.0,0.0,0.0,0.0,0.0,0.0,0.0,0.0,0.0,0.0,0.0,0.0,0.0,0.0,0.0,0.0,0.0,0.0,0.0,0.0,0.0,0.0,0.0,0.0,0.0,0.0,0.0,0.0,0.0,0.0,0.0,0.0,0.0,0.0,0.0,0.0,0.0,0.0,0.0,0.0,0.0,0.0,0.0,0.0,0.0,0.0,0.0,0.0,0.0,0.0,0.0,0.0,0.0,0.0,0.0,0.0,0.0,0.0,0.0,0.0,0.0,0.0,0.0,0.0,0.0,0.0,0.0,0.0,0.0,0.0,0.0,0.0,0.0,0.0,0.0,0.0,0.0,0.0,0.0,0.0,0.0,0.0,0.0,0.0,0.0,0.0,0.0,0.0,0.0,0.0,0.6389,0.3952,0.3661,0.4437,0.4714,0.4892,1.1402,0.9695,0.2685,0.679,0.0,0.0,0.0,0.0,0.0,0.0,0.0,0.0,0.0,0.0,0.0,0.0,0.0,0.0,0.0,0.0,0.0,0.0,0.0,0.0,0.0,0.0,0.0,0.0,0.0,0.0,0.0,0.0,0.0,0.0,0.0,0.0,0.0,0.0,0.0,0.0,0.0,0.0,1.8121,1.9396,1.9889,1.9563,1.745,0.0,0.0,0.0,0.0,0.0,0.0,0.0,0.0,0.0,0.0,0.0,0.0,0.0,0.0,0.0,0.0,0.0,0.0,0.0,0.0,0.0,0.0,0.0,0.0,0.0,0.0,0.0,0.0,0.0,0.0,0.0,0.0,0.0,0.0,0.0,0.0,0.0,0.0,0.0,0.0,0.0,0.0,0.0,1.0773,0.8602,0.0,0.0,0.0,0.0,0.0,0.0,0.0,0.0,0.0,0.0,0.0,0.0,0.0,1.0129,0.8865,0.9332,0.7732,0.4143,0.3045,0.0885,-0.2144,-0.3955,-0.4793,-0.4562,0.0277,0.0,0.8993,0.3794,0.0,0.0,0.0,0.0,0.0,0.0,0.0,0.0,0.0,0.0,0.0,0.0,0.0,0.0,0.0,0.0,0.0,0.0,0.0,0.0,0.0,0.0,0.0,0.0,0.0,0.0,0.0,0.0,0.0,0.0,0.0,0.0,0.0,0.0,0.0,0.0,1.752,1.8846,1.9247,2.0351,2.1054,2.1365,2.0275,1.9111,1.7828,1.6001,0.0,0.0,0.0,0.0,0.0,0.0,0.0,0.0,0.0,0.0,0.0,0.0,0.0,0.0,0.0,0.0,0.0,0.0,0.0,0.0,0.0,0.0,0.0,0.0,0.0,0.0,0.0,0.0,0.0,0.0,0.0,0.0,0.0,0.0,0.0,0.0,0.0,0.0,0.0,0.8695,0.6443,0.9904,0.6344,0.3827,0.0,0.0,0.0,0.0,0.0,0.0,0.0,0.0,0.0,0.962,0.8745,0.7503,0.5848,0.4526,0.2545,-0.0053,-0.161,-0.3475,-0.5562,-0.6285,-0.6608,-0.6473,-0.4532,-0.186,0.1013,-0.0,-0.0871,-0.1456,0.0,0.0,0.0,0.0,0.6626,0.8929,0.0,0.0,0.0,0.0,0.0,0.0,0.0,0.0,0.0,0.0,0.0,0.0,0.0,0.0,0.0,1.7087,0.0,0.0,0.0,0.0,0.0,0.0,0.0,0.0,0.0,0.0,0.0,0.0,1.9018,2.0299,2.0759,2.1534,2.2191,2.2709,2.2709,2.1745,1.9972,1.807,1.6559,0.0,0.0,0.0,0.0,0.0,0.0,0.0,0.0,0.0,0.0,0.0,0.0,0.0,0.0,0.0,0.0,0.0,0.0,0.0,0.0,0.0,0.0,0.0,0.0,0.0,0.0,0.0,0.0,0.0,0.0,0.0,0.0,0.0,0.0,0.0,0.0,0.0,0.0,0.7254,0.5708,0.9052,0.4251,0.0978,0.0,0.0,0.0,0.0,0.0,0.0,1.2456,0.8246,0.5181,0.3893,0.4112,0.3578,0.2078,-0.0267,-0.2002,-0.3147,-0.5376,-0.6793,-0.7447,-0.7149,-0.697,-0.6858,-0.6858,-0.6706,-0.6261,-0.3688,-0.3027,-0.3662,-0.3126,-0.1094,0.1603,0.1647,0.2917,0.4581,0.0,0.0,0.0,0.0,0.0,0.0,0.0,0.0,0.0,0.0,0.0,0.0,0.0,0.0,1.7427,1.9792,1.896,1.8646,0.0,0.0,0.0,0.0,0.0,0.0,0.0,0.0,0.0,1.9699,2.0789,2.1994,2.3328,2.4014,2.4243,2.4099,2.4099,2.3621,2.2595,1.9135,1.7957,1.8035,0.0,0.0,0.0,0.0,0.0,0.0,0.0,0.0,0.0,0.0,0.0,0.0,0.0,0.0,0.0,0.0,0.0,0.0,0.0,0.0,0.0,0.0,0.0,0.0,0.0,0.0,0.0,0.0,0.0,0.0,0.0,0.0,0.0,0.0,0.0,0.0,0.0,0.0,0.0,0.4148,0.0043,0.0,0.0,0.0,0.0,0.4237,0.5605,0.8131,1.2003,0.6613,0.1148,-0.3758,-0.2523,-0.1827,-0.189,-0.3437,-0.4718,-0.574,-0.714,-0.7739,-0.7681,-0.7982,-0.7958,-0.767,-0.767,-0.723,-0.6607,-0.6851,-0.7098,-0.7035,-0.4948,-0.3002,-0.1422,-0.1876,-0.0142,0.1905,0.0,0.0,0.0,0.0,0.0,0.0,0.0,0.0,0.0,0.0,0.0,0.0,0.0,1.7279,1.8272,2.0098,1.9897,1.9642,1.9591,0.0,0.0,0.0,0.0,0.0,0.0,0.0,1.8769,1.9895,2.1862,2.3056,2.3517,2.4592,2.504,2.4999,2.5652,2.5854,2.548,2.1992,2.054,2.021,1.654,1.4736,0.0,0.0,0.0,0.0,0.0,0.0,0.0,0.0,0.0,0.0,0.0,0.0,0.0,0.0,0.0,0.0,0.0,0.0,0.0,0.0,0.0,0.0,0.0,0.0,0.0,0.0,0.0,0.0,0.0,0.0,0.0,0.0,0.0,0.0,0.0,0.0,0.0,0.3606,-0.0,0.0,-0.2706,-0.128,-0.016,0.0354,0.0422,0.1091,0.2552,0.0572,-0.185,-0.4688,-0.4222,-0.448,-0.5604,-0.5588,-0.644,-0.8175,-0.7891,-0.7997,-0.8434,-0.853,-0.8523,-0.8374,-0.7883,-0.7563,-0.7283,-0.6982,-0.6897,-0.6876,-0.6571,-0.577,-0.4825,-0.5012,-0.4025,-0.2777,0.0,0.0,0.0,0.0,0.0,0.0,0.0,0.0,0.0,0.0,0.0,1.5579,1.6769,1.7702,1.9021,2.0935,2.058,2.0367,2.0696,0.0,0.0,0.0,0.0,0.0,0.0,1.8798,2.0123,2.0779,2.2699,2.3736,2.395,2.493,2.5403,2.5439,2.6451,2.7193,2.7511,2.4942,2.3266,2.2061,1.8767,1.6992,1.609,0.0,0.0,0.0,0.0,0.0,0.0,0.0,0.0,0.0,0.0,0.0,0.0,0.0,0.0,0.0,0.0,0.0,0.0,0.0,0.0,0.0,0.0,0.0,0.0,0.0,0.0,0.0,0.0,0.0,0.0,0.0,0.0,0.0,0.0,0.0,-0.818,-0.1696,-0.3431,-0.5155,-0.5285,-0.4253,-0.3353,-0.2817,-0.3271,-0.3859,-0.4433,-0.4323,-0.4787,-0.6049,-0.5848,-0.6271,-0.7465,-0.6981,-0.7448,-0.8996,-0.8465,-0.841,-0.8811,-0.8911,-0.8738,-0.8427,-0.7937,-0.7396,-0.6961,-0.6691,-0.648,-0.6308,-0.7289,-0.7396,-0.6966,-0.6696,-0.6065,-0.528,0.0,0.0,0.0,0.0,0.0,0.0,0.0,0.0,0.0,0.0,1.4106,1.5206,1.6708,1.7832,1.9639,2.2436,2.0947,2.0682,2.2712,2.064,0.0,0.0,0.0,0.0,1.6678,2.0168,2.2185,2.2528,2.3351,2.4115,2.4823,2.5245,2.5459,2.5516,2.6544,2.7604,2.8602,2.7705,2.6013,2.3643,2.0636,1.8789,1.7643,0.0,0.0,0.0,0.0,0.0,0.0,0.0,0.0,0.0,0.0,0.0,0.0,0.0,0.0,0.0,0.0,0.0,0.0,0.0,0.0,0.0,0.0,0.0,0.0,0.0,0.0,0.0,0.0,0.0,0.0,0.0,0.0,0.0,-0.7889,-0.7194,-0.7695,-1.1839,-1.0422,-0.914,-0.9089,-0.673,-0.5193,-0.5196,-0.5384,-0.6203,-0.7912,-0.7442,-0.7516,-0.8443,-0.7703,-0.7369,-0.7542,-0.7661,-0.787,-0.8223,-0.8893,-0.9078,-0.8818,-0.9098,-0.8677,-0.7723,-0.7723,-0.6902,-0.5647,-0.6312,-0.6199,-0.5701,-0.7122,-0.767,-0.7563,-0.6858,-0.6145,-0.5382,0.0,0.0,0.0,0.0,0.0,0.0,0.0,0.0,0.0,0.0,1.443,1.5608,1.5998,1.7547,1.9572,2.2061,1.9757,1.911,2.1378,0.0,0.0,0.0,0.0,0.0,1.9666,2.121,2.2427,2.3295,2.4257,2.4821,2.5042,2.618,2.6703,2.6776,2.842,2.9322,2.9552,2.8531,2.7325,2.5895,2.3197,2.0948,1.8818,0.0,0.0,0.0,0.0,0.0,0.0,0.0,0.0,0.0,0.0,0.0,0.0,0.0,0.0,0.0,0.0,0.0,0.0,0.0,0.0,0.0,0.0,0.0,0.0,0.0,0.0,0.0,0.0,0.0,0.0,0.0,0.0,-0.706,-0.703,-0.7597,-0.8483,-0.9872,-0.9782,-0.9419,-0.8899,-0.7872,-0.7255,-0.747,-0.7349,-0.7481,-0.7953,-0.7857,-0.7782,-0.7931,-0.7824,-0.7995,-0.8316,-0.8224,-0.8444,-0.8899,-0.8916,-0.8884,-0.8811,-0.9401,-0.9228,-0.848,-0.8442,-0.7906,-0.7069,-0.675,-0.6804,-0.7122,-0.7557,-0.7396,-0.6858,-0.6696,-0.5823,-0.4736,0.0,0.0,0.0,0.0,0.0,0.0,0.0,0.0,0.0,0.0,1.3916,1.5123,1.4272,1.6226,1.8388,2.0394,1.9161,1.9021,2.0759,0.0,0.0,0.0,0.0,1.8979,1.9946,2.157,2.2884,2.388,2.4646,2.522,2.5625,2.6724,2.7409,2.7807,2.9229,2.9834,2.9693,2.8258,2.7214,2.6251,2.3339,2.1386,1.9803,1.6093,1.5268,1.5179,0.8486,0.4685,0.2623,0.0976,0.0,0.0,0.0,0.0,0.0,0.0,0.0,0.0,0.0,0.0,0.0,0.0,0.0,0.0,0.0,0.0,0.0,0.0,0.0,0.0,0.0,0.0,0.0,0.0,-0.8754,-1.0429,-1.017,-1.0836,-1.1402,-1.16,-1.1785,-1.1606,-1.107,-1.0265,-0.9645,-0.9313,-0.9104,-0.8896,-0.8549,-0.8854,-0.8977,-0.8902,-0.888,-0.9066,-0.9436,-0.8961,-0.8941,-0.9419,-0.9005,-0.8804,-0.8804,-0.9211,-0.9159,-0.8804,-0.8778,-0.8349,-0.767,-0.7563,-0.7616,0.0,0.0,0.0,0.0,0.0,-0.5563,-0.4473,0.0,0.0,0.0,0.0,0.0,0.0,0.0,0.0,0.0,0.0,0.0,1.3974,1.2099,1.4342,1.6658,1.825,1.8251,1.8524,0.0,0.0,0.0,1.6439,1.786,1.8764,1.894,2.1572,2.3361,2.4233,2.4652,2.5323,2.6217,2.6872,2.7563,2.8263,2.8953,2.9119,2.878,2.6889,2.5689,2.4821,2.1482,2.0247,1.9933,1.6179,1.5721,1.606,0.7911,0.3154,0.0398,-0.2201,0.0,0.0,0.0,0.0,0.0,0.0,0.0,0.0,0.0,0.0,0.0,0.0,0.0,0.0,0.0,0.0,0.0,0.0,0.0,0.0,0.0,0.0,0.0,0.0,-1.1062,-1.3621,-1.539,-1.5504,-1.5453,-1.5317,-1.5022,-1.4706,-1.4305,-1.3162,-1.2015,-1.0975,-1.0795,-1.0392,-0.9646,0.0,0.0,0.0,0.0,-1.0274,-1.0571,-0.9699,-0.9406,-0.9626,-0.9072,-0.8804,-0.8804,-0.8857,-0.8857,-0.8811,-0.8956,-0.8633,-0.799,-0.8639,-0.8474,-0.783,-0.7616,-0.7563,-0.7348,-0.6173,-0.5081,-0.4255,0.0,0.0,0.0,0.0,0.0,0.0,0.0,0.0,0.0,1.0291,1.1949,1.2642,1.0696,1.3144,1.5836,1.8126,1.365,1.0915,0.0,0.0,1.6169,1.8402,1.8143,1.8729,2.0454,2.1827,2.2944,2.3817,2.4389,2.4977,2.5581,2.6191,2.6559,2.6636,2.6516,2.6008,2.5134,2.3617,2.209,2.0513,1.7925,1.6907,1.6464,1.1831,0.845,0.5392,-0.042,-0.5418,-0.9141,-0.8728,-0.9291,-1.0073,-0.9188,0.0,0.0,0.0,0.0,0.0,0.0,0.0,0.0,0.0,0.0,0.0,0.0,0.0,0.0,0.0,0.0,0.0,0.0,0.0,0.0,-1.2527,-1.4711,-1.6282,-1.6759,-1.8063,-1.8175,-1.6271,-1.5886,-1.5589,-1.5072,-1.4016,-1.3356,-1.3387,-1.2869,-1.212,-1.1329,-1.1454,-1.1281,-1.0624,-1.0571,-1.0388,-1.0207,-0.98,-0.9506,-0.9263,0.0,0.0,-0.8804,-0.9361,-0.9309,-0.8857,-0.9969,-1.0012,-0.9399,-0.9555,-0.9204,-0.848,-0.7289,-0.6598,-0.6119,-0.5136,-0.3852,-0.2847,0.0,0.0,0.0,0.0,0.0,0.0,0.0,0.0,0.0,0.0,0.6444,0.7621,0.759,0.6813,0.8103,1.2606,0.9563,0.0,0.0,1.1515,1.44,1.6386,1.6559,1.7584,1.9648,2.0131,2.0964,2.2192,2.2197,2.2848,2.4091,2.3729,2.3474,2.3422,2.4179,2.3869,2.263,2.0194,1.9376,1.923,1.3499,1.0441,0.9238,0.7278,0.4016,-0.0,-0.4297,-0.8637,-1.2241,-1.1571,-1.1912,-1.2584,-1.2457,-1.1809,-1.1002,0.0,0.0,0.0,0.0,0.0,0.0,0.0,0.0,0.0,0.0,0.0,0.0,0.0,0.0,-1.2683,0.0,0.0,-1.4488,-1.6027,-1.7559,-1.8765,-1.9525,-1.9809,-1.9367,-1.7624,-1.7361,-1.7055,-1.6383,-1.5575,-1.4979,-1.4525,-1.4302,-1.3666,-1.2451,-1.2389,-1.202,-1.1226,-1.0807,-1.0488,-1.0341,-0.99,-0.9613,-0.9459,-0.9018,-0.8956,-0.9309,-0.9666,-0.9814,-0.9814,-1.0517,-1.0618,-1.0261,-0.9909,-0.9399,-0.8666,-0.7551,-0.6756,-0.6055,-0.4346,-0.3234,-0.2674,0.0,0.0,0.0,0.0,0.0,0.0,0.0,0.0,0.0,0.0,0.0,0.1737,0.2778,-0.0051,-0.0181,0.0,0.0,0.0,0.0,0.9485,1.2444,1.359,1.446,1.5723,1.7414,1.7842,1.8641,1.9891,2.0,2.0273,2.0652,1.951,1.8762,1.8379,1.9614,1.9458,1.8094,1.4863,1.4568,1.5619,0.7626,0.3144,0.1227,0.1324,-0.0563,-0.3677,-0.6747,-1.0136,-1.3158,-1.3011,-1.3365,-1.395,-1.4821,-1.4224,-1.3147,-1.2934,-1.1419,0.0,0.0,0.0,0.0,0.0,0.0,0.0,0.0,0.0,-1.4163,-1.4434,-1.5164,-1.5969,-1.6615,-1.7101,-1.777,-1.8822,-1.991,-2.0993,-2.2067,-2.1239,-2.0191,-1.9064,-1.8625,-1.8213,-1.7461,-1.6992,-1.6321,-1.5327,-1.5413,-1.4809,-1.3169,-1.3108,-1.2645,-1.1593,-1.0926,-1.0624,-1.0624,-1.0033,-0.974,-0.9679,-0.9302,-0.932,-0.9814,-0.9909,-1.0269,-1.0813,-1.0965,-1.1015,-1.0965,-1.0261,-0.9585,-0.8842,-0.8031,-0.7343,-0.6529,-0.4378,-0.3611,-0.3669,0.0,0.0,0.0,0.0,0.0,0.0,0.0,0.0,0.0,0.0,0.0,0.0,0.0,0.0,0.0,0.0,0.0,0.0,-0.0546,0.4894,0.9551,1.2609,1.2783,1.3165,1.38,1.5945,1.7028,1.6972,1.966,1.8271,1.3094,1.2704,1.1693,1.0189,0.9363,0.8355,0.7013,0.4795,0.3524,0.2699,-0.0846,-0.3263,-0.495,-0.7646,-0.8362,-0.8121,-0.9977,-1.2473,-1.486,-1.4493,-1.5441,-1.6647,-1.6271,-1.5711,-1.4984,-1.3576,0.0,-1.1341,-1.3588,-1.5181,-1.6281,-1.666,-1.6223,-1.5856,0.0,0.0,-1.7893,-1.8016,-1.7868,-1.7993,-1.8835,-1.912,-1.9485,-2.0443,-2.1723,-2.2652,-2.2778,-2.2592,-2.1815,-2.0154,-1.8841,-1.79,-1.7432,-1.6992,-1.6646,-1.6534,-1.6179,-1.5299,-1.3605,-1.3542,-1.2641,-1.0814,-1.0624,-1.0624,-1.0624,-1.0234,-0.994,-0.9679,-1.0,-0.9999,-0.9814,-1.0415,-1.072,-1.0813,-1.1416,-1.1665,-1.1665,-1.0965,-1.0312,-0.9547,-0.819,-0.767,-0.7396,-0.6063,-0.586,-0.6277,0.0,0.0,0.0,0.0,0.0,0.0,0.0,0.0,0.0,0.0,0.0,0.0,0.0,0.0,0.0,0.0,0.0,0.0,-0.313,0.2583,0.7656,1.1503,1.0269,0.9429,0.9375,0.9241,0.918,0.9228,0.9595,0.8711,0.6749,0.5647,0.4395,0.2971,0.1514,-0.0147,-0.2048,-0.37,-0.6115,-0.8868,-0.8061,-0.9374,-1.1868,-1.2305,-1.2581,-1.2955,-1.4395,-1.5286,0.0,0.0,-1.652,-1.6542,-1.5748,-1.5774,-1.5746,-1.388,-1.3202,0.0,-1.4337,-1.7063,0.0,0.0,-1.6683,-1.7978,-1.7482,-1.7637,-1.819,-1.9175,-1.8873,-1.9065,-2.0933,-2.0828,-2.0958,0.0,-2.2983,-2.3337,-2.3915,-2.2968,-2.1712,-2.0278,-1.8774,-1.762,-1.7021,-1.6602,-1.6338,-1.6338,-1.5495,-1.4708,-1.3961,-1.3029,-1.2165,-1.1288,-1.0863,-1.0624,-1.0624,-1.0267,-0.9973,-0.9679,-1.0091,-1.0348,-1.0415,-1.1065,-1.1625,-1.2049,-1.2304,-1.2452,-1.2403,-1.1674,-1.1225,-1.083,-0.9444,-0.8922,-0.8712,-0.694,-0.6421,-0.6652,0.0,0.0,0.0,0.0,0.0,0.0,0.0,0.0,0.0,0.0,0.0,0.0,0.0,0.0,0.0,0.0,0.0,0.0,0.0,-0.0183,0.4224,0.8646,0.6545,0.4966,0.4311,0.2245,0.1255,0.1372,-0.0753,-0.1262,-0.0317,-0.1796,-0.2986,-0.3849,-0.5442,-0.7287,-0.9124,-1.069,-1.3141,-1.5881,-1.3636,-1.3976,-1.5698,-1.5021,-1.5426,-1.6487,-1.7271,-1.7698,0.0,0.0,-1.8207,-1.756,-1.6647,-1.6802,-1.6941,-1.5159,-1.5157,-1.5681,-1.5308,0.0,0.0,-1.6918,-1.8196,-2.0104,-1.8967,-1.8976,-1.9421,-2.0304,-2.0194,-2.0474,-2.2133,-2.2179,-2.2375,-2.3743,-2.3819,-2.3976,-2.4691,-2.314,-2.1478,-2.0255,-1.8674,-1.7318,-1.6439,-1.6182,-1.6125,-1.6125,-1.5032,-1.4315,-1.4065,-1.2805,-1.1903,-1.1476,-1.1009,-1.0641,-1.0624,-1.0438,-1.0299,-1.0137,-1.0619,-1.0979,-1.1277,-1.1828,-1.2393,-1.2881,-1.2881,-1.2881,-1.2822,-1.208,-1.1674,-1.1392,-1.0269,-0.9666,-0.9354,-0.7765,-0.7182,-0.7182,0.0,0.0,0.0,0.0,0.0,0.0,0.0,0.0,0.0,0.0,0.0,0.0,0.0,0.0,0.0,0.0,0.0,0.0,0.0,-0.4238,-0.1811,0.3104,0.1342,-0.0292,-0.1449,-0.3696,-0.4945,-0.5221,-0.8589,-0.9724,-0.8748,-0.9874,-1.0309,-1.0296,-1.1952,-1.3053,-1.3801,-1.5815,-1.6439,-1.6191,-1.7139,-1.6309,-1.4741,-1.6106,-1.7124,-1.781,-1.7505,0.0,0.0,0.0,-2.1119,-2.1103,-2.0293,-1.9663,0.0,-1.8057,-1.8151,-1.8382,0.0,0.0,-2.1636,-2.1898,-2.2217,-2.2422,-2.2093,-2.2734,-2.3029,-2.2053,-2.2442,-2.2721,-2.2074,-2.305,-2.3755,-2.3384,-2.4132,-2.4755,-2.482,-2.3191,-2.154,-2.0243,-1.849,-1.6888,0.0,-1.582,-1.6125,-1.6125,-1.5355,-1.4533,-1.3647,-1.3157,-1.2197,-1.0701,-1.0835,-1.0842,-1.0624,-1.0913,-1.1152,-1.1249,-1.194,-1.2289,-1.2471,-1.2759,-1.2881,-1.2881,-1.2881,-1.2881,-1.2822,-1.208,-1.1416,-1.0762,-1.0064,-0.9413,-0.8804,-0.8752,-0.8752,-0.8752,0.0,0.0,0.0,0.0,0.0,0.0,0.0,0.0,0.0,0.0,0.0,0.0,0.0,0.0,0.0,0.0,0.0,0.0,0.0,-0.5669,-0.2662,0.071,-0.1377,-0.3832,-0.6486,-0.7826,-0.8786,-0.937,-1.042,-1.1187,-1.1753,-1.1864,-1.2409,-1.3443,-1.4005,-1.4854,-1.5927,-1.6609,-1.7282,-1.7765,-1.7083,-1.7556,-1.8546,-1.7737,-1.6475,-1.5755,0.0,0.0,0.0,0.0,0.0,-2.0556,-1.9529,-1.9679,-2.0183,-2.0004,-1.9398,-1.8865,0.0,0.0,-2.3429,-2.3009,-2.4065,-2.5094,-2.4681,-2.4153,-2.3706,-2.3796,-2.3134,-2.2844,-2.38,-2.4002,-2.4191,-2.4857,-2.4846,-2.464,-2.4331,-2.2908,-2.1219,-1.933,-1.805,0.0,0.0,0.0,0.0,-1.4874,-1.4355,-1.3536,-1.2476,-1.2743,-1.2453,-1.1413,-1.2009,-1.2266,-1.2212,-1.2279,-1.2552,-1.2909,-1.3849,-1.4134,-1.3902,-1.4008,-1.3618,-1.2881,-1.2881,-1.2881,-1.2881,-1.2618,-1.2089,-1.1416,-1.072,-1.0064,-0.9413,-0.8956,-0.8804,-0.8804,0.0,0.0,0.0,0.0,0.0,0.0,0.0,0.0,0.0,0.0,0.0,0.0,0.0,0.0,0.0,0.0,0.0,0.0,0.0,0.0,-0.8069,-0.4474,-0.7596,-1.0224,-1.1944,-1.2765,-1.3408,-1.3868,-1.301,-1.2874,-1.3455,-1.2556,-1.2767,-1.3914,-1.4512,-1.5365,-1.6308,-1.6631,-1.7825,-1.9359,-1.8093,-1.9111,-2.1274,-2.0694,-1.9166,0.0,0.0,0.0,0.0,0.0,0.0,-2.1704,-2.045,-2.0532,-2.1062,-2.1083,-2.0804,-2.0664,-2.1356,-2.3393,-2.5205,-2.4804,-2.6239,-2.7411,-2.6572,-2.5531,-2.4724,-2.4491,-2.37,-2.3353,-2.4452,-2.4503,-2.4464,-2.4584,-2.4204,-2.3588,-2.2735,-2.1487,-2.0116,-1.8766,-1.7687,0.0,0.0,0.0,0.0,-1.4678,-1.4291,-1.3672,-1.274,-1.3001,-1.2894,-1.2266,-1.2816,-1.3079,-1.3009,-1.3117,-1.3433,-1.3858,-1.4693,-1.4904,-1.4409,-1.4409,-1.3932,-1.3105,-1.3105,-1.3018,-1.2881,-1.2881,-1.2304,-1.1416,-1.0965,-1.0269,-0.9413,-0.8956,-0.8804,-0.8804,0.0,0.0,0.0,0.0,0.0,0.0,0.0,0.0,0.0,0.0,0.0,0.0,0.0,0.0,0.0,0.0,0.0,0.0,0.0,0.0,0.0,-1.1885,-1.6408,-1.8466,-1.7181,-1.8095,-1.856,-1.8462,-1.642,-1.5064,-1.4356,-1.2665,-1.2101,-1.2617,-1.4232,-1.5133,-1.5576,-1.6401,-1.8369,-2.0877,-2.0048,-2.0872,-2.2815,-2.452,0.0,0.0,0.0,0.0,0.0,0.0,0.0,0.0,0.0,-2.2094,-2.1642,-2.1323,-2.239,-2.3644,-2.3673,-2.5243,-2.6948,-2.7278,-2.8574,-2.9347,-2.7717,-2.6924,-2.6017,-2.4366,-2.4167,-2.4288,0.0,0.0,-2.4513,-2.2796,-2.247,-2.1862,-2.0433,-1.9182,-1.8484,0.0,0.0,0.0,0.0,0.0,0.0,-1.5547,0.0,-1.468,-1.4172,-1.3757,-1.3355,-1.3078,-1.3339,-1.341,-1.313,-1.3553,-1.3933,-1.4238,-1.4739,-1.47,-1.4214,-1.4194,-1.3906,-1.3506,-1.3486,-1.3252,-1.2881,-1.2881,-1.2067,-1.0838,-1.0821,-0.9976,-0.8831,-0.8811,-0.8804,-0.8804,0.0,0.0,0.0,0.0,0.0,0.0,0.0,0.0,0.0,0.0,0.0,0.0,0.0,0.0,0.0,0.0,0.0,0.0,0.0,0.0,0.0,0.0,0.0,0.0,0.0,-1.7547,-1.8563,-1.7961,0.0,-1.7717,-1.847,-1.7537,-1.7678,-1.8732,-1.9185,-1.9441,-1.9592,-1.982,-2.0609,-2.1533,0.0,-2.1588,-2.4454,0.0,0.0,0.0,0.0,0.0,0.0,0.0,0.0,0.0,0.0,-2.1796,-2.1913,-2.1819,-2.2894,-2.4163,-2.4438,-2.6082,-2.7893,-2.8396,-2.8837,-2.8925,-2.8052,-2.7424,-2.6635,-2.5476,-2.5486,-2.5661,0.0,0.0,0.0,-2.3287,-2.2487,0.0,-2.0623,-2.0281,0.0,-1.9634,0.0,-1.8027,-1.7715,-1.7578,0.0,0.0,-1.5882,-1.468,-1.3373,-1.4303,-1.4552,-1.3914,-1.4543,-1.4849,-1.4815,-1.5446,-1.5965,-1.643,-1.6746,-1.6383,-1.5432,-1.509,-1.4398,-1.3486,-1.3174,-1.2978,-1.2881,-1.2881,-1.2232,-1.114,-1.092,-1.0113,-0.905,-0.8884,-0.8804,-0.8804,0.0,0.0,0.0,0.0,0.0,0.0,0.0,0.0,0.0,0.0,0.0,0.0,0.0,0.0,0.0,0.0,0.0,0.0,0.0,0.0,0.0,0.0,0.0,0.0,-1.7691,-1.9525,-2.0227,-1.9687,0.0,0.0,0.0,-1.7494,-1.7384,-1.8518,-1.8572,-1.8892,-1.9349,-1.9425,0.0,0.0,0.0,0.0,0.0,0.0,0.0,0.0,0.0,0.0,0.0,0.0,0.0,-2.1843,-2.1854,-2.2186,-2.2665,-2.2816,0.0,-2.5441,-2.5772,-2.7155,-2.8486,-2.8549,-2.8561,-2.8359,-2.7697,-2.6622,-2.5692,-2.5339,-2.5027,0.0,0.0,0.0,0.0,0.0,0.0,0.0,-1.8917,-1.9137,-1.9391,0.0,-1.8735,0.0,-1.8291,-1.8115,-1.7754,0.0,-1.6406,-1.5467,-1.4423,-1.5027,-1.5167,-1.4746,-1.5167,-1.5508,-1.5693,-1.6297,-1.6708,-1.6951,-1.6946,-1.6639,-1.5981,-1.5522,-1.4824,-1.4043,0.0,-1.333,-1.3154,-1.3154,-1.2665,-1.179,-1.1414,-1.0632,-0.97,-0.916,-0.8918,-0.8804,0.0,0.0,0.0,0.0,0.0,0.0,0.0,0.0,0.0,0.0,0.0,0.0,0.0,0.0,0.0,0.0,0.0,0.0,0.0,0.0,0.0,0.0,0.0,0.0,0.0,-2.2009,-2.2173,0.0,0.0,0.0,0.0,0.0,0.0,0.0,0.0,0.0,0.0,0.0,0.0,0.0,0.0,0.0,0.0,0.0,0.0,0.0,0.0,0.0,0.0,0.0,-2.0239,-2.1363,-2.2193,-2.3058,-2.3767,-2.4267,-2.5627,-2.6985,-2.7417,-2.826,-2.8913,-2.8348,-2.8047,-2.7645,-2.6817,-2.5249,-2.4015,-2.4327,0.0,-2.2916,-2.2081,0.0,-2.1197,-1.7906,0.0,-1.7996,-1.6623,-1.7112,-1.7829,-1.8635,-1.8398,-1.832,-1.8682,-1.834,-1.7783,-1.7041,-1.6826,-1.6514,-1.6006,-1.5615,-1.541,-1.541,-1.5469,-1.5703,-1.6213,-1.6543,-1.6665,-1.6728,-1.6279,-1.6096,-1.5957,-1.5527,-1.5127,-1.4756,-1.4326,0.0,-1.3594,-1.3594,-1.32,-1.2582,-1.2071,-1.1328,-1.0421,-0.9522,-0.9058,-0.8811,0.0,0.0,0.0,0.0,0.0,0.0,0.0,0.0,0.0,0.0,-1.1924,-1.2118,0.0,0.0,0.0,0.0,0.0,0.0,0.0,0.0,0.0,0.0,0.0,0.0,0.0,0.0,0.0,0.0,0.0,0.0,0.0,0.0,0.0,0.0,0.0,0.0,0.0,0.0,0.0,0.0,0.0,0.0,0.0,0.0,0.0,0.0,0.0,0.0,0.0,0.0,-2.0237,-2.1914,-2.2734,-2.4035,-2.5431,-2.6445,-2.7226,-2.794,-2.8461,-2.9139,-2.9503,-2.8925,-2.7758,-2.6506,-2.5428,-2.4106,0.0,0.0,0.0,-2.3135,-2.2175,-2.2321,0.0,-1.7798,0.0,0.0,0.0,0.0,-1.7868,0.0,0.0,0.0,0.0,0.0,0.0,0.0,0.0,-1.6377,-1.5566,-1.5449,-1.541,-1.541,-1.5762,-1.6162,-1.6611,-1.6699,-1.6665,-1.6728,-1.6279,-1.5879,-1.5508,-1.5088,-1.4853,-1.4756,-1.4326,0.0,-1.397,-1.397,-1.3742,-1.328,-1.2273,-1.1472,-1.0673,-0.9597,-0.9058,-0.8844,0.0,0.0,0.0,0.0,0.0,0.0,0.0,0.0,-1.0337,-1.1719,-1.1689,-1.2158,-1.378,-1.381,0.0,0.0,0.0,0.0,0.0,0.0,0.0,0.0,0.0,0.0,0.0,0.0,0.0,0.0,0.0,0.0,0.0,0.0,0.0,0.0,0.0,0.0,0.0,0.0,0.0,0.0,0.0,0.0,0.0,0.0,0.0,0.0,0.0,0.0,0.0,0.0,-2.0267,-2.2113,-2.289,-2.4079,-2.5347,-2.6108,-2.6947,-2.7795,-2.8287,-2.9063,-2.9591,-2.8712,-2.7042,-2.5407,-2.4667,0.0,0.0,0.0,0.0,-2.1594,-2.0579,0.0,0.0,0.0,0.0,0.0,0.0,0.0,0.0,0.0,0.0,0.0,0.0,0.0,0.0,0.0,0.0,-1.6885,-1.6465,-1.6006,-1.5752,-1.5752,-1.6182,-1.6514,-1.6665,-1.6953,-1.6953,-1.6728,-1.6279,-1.5947,-1.5732,-1.5303,-1.5107,-1.5088,-1.4658,0.0,-1.4473,-1.4473,-1.4369,-1.4148,-1.3398,-1.253,-1.1668,-1.0646,-0.984,-0.9279,0.0,0.0,0.0,0.0,0.0,0.0,0.0,-1.0305,-1.0366,-1.1744,-1.1949,-1.2648,-1.4456,-1.4671,-1.4949,0.0,0.0,0.0,0.0,0.0,0.0,0.0,0.0,0.0,0.0,0.0,0.0,0.0,0.0,0.0,0.0,0.0,0.0,0.0,0.0,0.0,0.0,0.0,0.0,0.0,0.0,0.0,0.0,0.0,0.0,0.0,0.0,0.0,0.0,0.0,-1.9798,-2.1338,-2.2133,-2.3548,-2.4985,-2.5394,-2.6346,-2.7335,-2.7826,-2.8863,-2.9528,-2.8386,-2.6364,-2.4493,-2.4012,-2.1698,0.0,0.0,-2.0428,-1.981,-1.876,0.0,0.0,0.0,0.0,0.0,0.0,0.0,0.0,0.0,0.0,0.0,0.0,0.0,0.0,0.0,0.0,0.0,-1.7496,-1.6795,-1.6518,-1.6789,-1.7173,-1.7302,-1.7211,-1.7654,-1.754,-1.6832,-1.6475,-1.6187,-1.5908,-1.5566,-1.541,-1.5391,-1.5068,0.0,0.0,-1.4922,-1.4922,-1.4895,-1.439,-1.3676,-1.2763,-1.187,-1.0909,-0.9976,0.0,0.0,0.0,0.0,0.0,0.0,0.0,-1.1409,-1.1357,-1.2231,-1.3009,-1.3595,-1.3883,-1.4099,-1.4369,0.0,0.0,0.0,0.0,0.0,0.0,0.0,0.0,0.0,0.0,0.0,0.0,0.0,0.0,0.0,0.0,0.0,0.0,0.0,0.0,0.0,0.0,0.0,0.0,0.0,0.0,0.0,0.0,0.0,0.0,0.0,0.0,0.0,0.0,0.0,0.0,-1.8601,-1.9749,-2.242,-2.523,-2.5658,0.0,0.0,-2.7886,-2.8938,-2.9528,-2.8386,-2.6076,-2.3872,-2.308,0.0,0.0,-1.8874,-1.9027,-1.8854,-1.7662,-1.9171,0.0,0.0,0.0,0.0,0.0,0.0,0.0,0.0,0.0,0.0,0.0,0.0,0.0,0.0,0.0,0.0,-1.7895,-1.7504,-1.7825,-1.8985,-1.9404,-1.9377,-1.8873,-1.9287,-1.87,-1.7127,-1.7095,-1.6494,-1.5469,-1.543,-1.541,-1.541,-1.5371,0.0,0.0,-1.5352,-1.5352,-1.5245,-1.4501,-1.397,-1.357,-1.2763,-1.1773,-1.083,0.0,0.0,0.0,0.0,0.0,0.0,-1.1298,-1.1249,-1.1618,-1.278,-1.3445,-1.3992,-1.4479,-1.4641,-1.4557,0.0,0.0,0.0,0.0,0.0,0.0,0.0,0.0,0.0,0.0,0.0,0.0,0.0,0.0,0.0,0.0,0.0,0.0,0.0,0.0,0.0,0.0,0.0,0.0,0.0,0.0,0.0,0.0,0.0,0.0,0.0,0.0,0.0,0.0,0.0,0.0,0.0,-1.9494,-2.0483,0.0,0.0,-2.4016,-2.5715,-2.571,-2.7441,-2.9001,-2.7883,-2.5523,-2.3292,-2.2799,0.0,0.0,-1.8317,-1.8515,-1.8589,-1.8322,-1.9375,-2.0112,0.0,0.0,0.0,0.0,0.0,0.0,0.0,0.0,0.0,0.0,0.0,0.0,0.0,0.0,0.0,-1.9506,-1.8408,-1.8337,-1.9609,-1.952,-1.9313,-1.9112,-1.8952,-1.8375,-1.7429,-1.6984,-1.6555,-1.6036,-1.5584,-1.541,-1.541,-1.541,0.0,0.0,-1.541,-1.541,-1.5352,-1.505,-1.4536,-1.3952,-1.3429,-1.2604,-1.1723,0.0,0.0,0.0,0.0,0.0,-1.1227,-1.1218,-1.141,-1.199,-1.3234,-1.3754,-1.4312,-1.4941,-1.515,-1.4715,-1.3427,0.0,0.0,0.0,0.0,0.0,0.0,0.0,0.0,0.0,0.0,0.0,0.0,0.0,0.0,0.0,0.0,0.0,0.0,0.0,0.0,0.0,0.0,0.0,0.0,0.0,0.0,0.0,0.0,0.0,0.0,0.0,0.0,0.0,0.0,0.0,0.0,0.0,0.0,0.0,0.0,-2.1621,-2.3492,-2.3513,-2.55,-2.7301,-2.6327,-2.428,-2.2394,0.0,0.0,0.0,-1.777,-1.7742,-1.7802,-1.8085,-1.8676,-1.9431,-2.0332,0.0,-1.9441,0.0,0.0,0.0,0.0,0.0,0.0,0.0,0.0,0.0,0.0,0.0,0.0,-2.008,-1.926,-1.9287,-2.0563,-2.0238,-1.9901,-1.9599,-1.9182,-1.8631,-1.7907,-1.7202,-1.6708,-1.6492,-1.5758,-1.541,-1.541,-1.541,0.0,0.0,-1.541,-1.541,-1.54,-1.5273,-1.4869,-1.4347,-1.3884,-1.323,-1.2389,0.0,0.0,0.0,0.0,0.0,0.0,0.0,-1.2236,-1.2677,-1.3483,-1.4068,-1.4587,-1.5062,-1.5389,-1.4747,-1.2591,0.0,0.0,0.0,0.0,0.0,0.0,0.0,0.0,0.0,0.0,-1.4035,-1.4905,-1.5664,-1.6067,0.0,0.0,0.0,0.0,0.0,0.0,0.0,0.0,0.0,0.0,0.0,0.0,0.0,0.0,0.0,0.0,0.0,0.0,0.0,0.0,0.0,0.0,0.0,0.0,0.0,0.0,-1.983,-2.0788,-2.1743,-2.3207,-2.4261,-2.3342,-2.216,-2.0978,0.0,0.0,0.0,-1.6881,-1.6441,-1.6175,-1.6305,-1.6702,-1.7522,-1.906,-1.9483,0.0,0.0,0.0,0.0,0.0,0.0,0.0,0.0,0.0,0.0,0.0,0.0,0.0,-1.9097,-1.9901,-2.0964,-2.2226,-2.2251,-2.1782,-2.0677,-2.0665,-1.999,-1.8661,-1.795,-1.7202,-1.6492,-1.5758,-1.541,0.0,0.0,0.0,0.0,-1.541,-1.541,-1.5371,-1.4951,-1.4785,-1.4736,-1.4253,-1.3594,-1.2813,0.0,0.0,0.0,0.0,0.0,0.0,0.0,-1.2595,-1.3049,-1.3907,-1.4474,-1.4866,-1.5009,-1.5241,-1.4529,-1.238,0.0,0.0,0.0,0.0,0.0,0.0,0.0,0.0,0.0,0.0,-1.3905,-1.3806,-1.513,-1.5896,-1.6052,-1.5976,0.0,0.0,0.0,0.0,0.0,0.0,0.0,0.0,0.0,0.0,0.0,0.0,0.0,0.0,0.0,0.0,0.0,0.0,0.0,0.0,0.0,0.0,0.0,-1.6617,0.0,0.0,-1.9464,-2.1247,-2.2912,-2.2274,-2.1504,-2.0733,-1.9978,0.0,0.0,-1.6363,-1.6127,-1.6049,-1.6081,-1.6225,-1.658,-1.7334,-1.8005,0.0,0.0,0.0,0.0,0.0,0.0,0.0,0.0,0.0,0.0,0.0,0.0,0.0,-2.0068,-1.998,-2.0488,-2.17,-2.138,-2.1016,-2.0718,-2.0275,-1.987,-1.9423,-1.8715,-1.8221,-1.7961,-1.6698,-1.6151,0.0,0.0,0.0,0.0,-1.5107,-1.498,-1.4941,-1.4512,-1.4336,-1.4287,-1.3867,-1.3546,-1.3124,0.0,0.0,0.0,0.0,0.0,0.0,0.0,-1.2742,-1.3025,-1.3874,-1.4248,-1.4424,-1.4427,-1.4599,-1.3932,-1.2046,0.0,0.0,0.0,0.0,0.0,0.0,0.0,0.0,0.0,-1.3004,-1.3624,-1.3342,-1.4858,-1.5728,-1.5995,-1.6172,-1.6554,-1.7111,0.0,0.0,0.0,0.0,0.0,0.0,0.0,0.0,-1.4727,0.0,0.0,0.0,0.0,0.0,0.0,0.0,0.0,0.0,0.0,0.0,0.0,0.0,-1.6101,0.0,0.0,-1.8821,-2.0374,-1.9907,-1.9858,0.0,0.0,0.0,0.0,-1.5966,-1.5572,-1.537,-1.537,-1.5473,-1.5652,-1.5986,-1.6437,0.0,0.0,0.0,0.0,0.0,0.0,0.0,0.0,0.0,0.0,0.0,0.0,0.0,-1.9979,-2.0277,-2.065,-2.1192,-2.084,-2.0618,-2.0338,-1.9987,-1.9798,-1.9798,-1.9032,-1.8715,-1.8661,-1.7191,-1.6492,0.0,0.0,0.0,0.0,-1.4893,-1.4687,-1.4492,-1.4062,-1.3896,-1.3795,-1.3428,-1.3101,-1.2632,0.0,0.0,0.0,0.0,0.0,0.0,0.0,0.0,0.0,-1.3473,-1.351,-1.3474,-1.3424,-1.3524,-1.3045,-1.1573,0.0,0.0,0.0,0.0,0.0,0.0,0.0,0.0,0.0,-1.2513,-1.3262,-1.3368,-1.4746,-1.5601,-1.5974,-1.6224,-1.6834,-1.7738,-1.7395,-1.7581,-1.8153,-1.7826,-1.7287,-1.6652,-1.661,-1.6119,0.0,0.0,0.0,0.0,0.0,0.0,0.0,0.0,0.0,0.0,0.0,0.0,0.0,0.0,0.0,0.0,0.0,-1.607,0.0,0.0,0.0,0.0,0.0,0.0,0.0,0.0,0.0,-1.4341,-1.4365,-1.4547,-1.4782,-1.4908,-1.4797,0.0,0.0,0.0,0.0,0.0,0.0,0.0,0.0,0.0,0.0,0.0,0.0,0.0,-1.9239,-2.0583,-2.1149,-2.0794,-2.0706,-2.0351,-1.9811,-1.9798,-1.9798,-1.9798,-1.9097,-1.8768,-1.8715,-1.7269,-1.661,0.0,0.0,0.0,0.0,-1.4707,-1.4453,-1.4,-1.3623,-1.3467,-1.3418,-1.3027,-1.2452,-1.1765,0.0,0.0,0.0,0.0,0.0,0.0,0.0,0.0,0.0,0.0,-1.3239,-1.3054,-1.2639,-1.2652,-1.2274,0.0,0.0,0.0,0.0,0.0,0.0,0.0,0.0,0.0,0.0,-1.2425,-1.3089,-1.3034,-1.4838,-1.5665,-1.5608,-1.6301,-1.6809,-1.7194,-1.7522,-1.7801,-1.8022,-1.7706,-1.7028,-1.6262,-1.6322,-1.5704,0.0,0.0,0.0,0.0,-1.3408,-1.3204,0.0,0.0,0.0,0.0,0.0,0.0,0.0,0.0,-1.2434,-1.208,-1.2063,0.0,-1.608,-1.5867,-1.6448,0.0,0.0,0.0,0.0,0.0,0.0,0.0,0.0,0.0,0.0,0.0,0.0,0.0,0.0,0.0,0.0,0.0,0.0,0.0,0.0,0.0,0.0,0.0,0.0,0.0,-2.0437,-2.013,-2.0348,-2.128,-2.0464,-1.9936,-1.9798,-1.9798,-1.9798,-1.9798,-1.9631,-1.9527,-1.9515,-1.8194,-1.7338,0.0,0.0,0.0,-1.4258,-1.3936,-1.374,-1.3613,-1.3193,-1.3027,-1.3018,-1.291,-1.2774,-1.2461,0.0,0.0,0.0,0.0,0.0,0.0,0.0,0.0,0.0,0.0,0.0,0.0,0.0,0.0,0.0,0.0,0.0,0.0,0.0,0.0,0.0,0.0,0.0,0.0,-1.1132,-1.2439,-1.3122,-1.322,-1.4854,-1.5903,-1.6366,-1.7005,-1.752,-1.7904,-1.7892,-1.7652,-1.7225,-1.7205,-1.6901,-1.6427,-1.6638,0.0,0.0,0.0,0.0,0.0,-1.343,-1.3083,0.0,-1.3151,-1.3203,-1.3011,0.0,0.0,0.0,0.0,-1.129,-1.0855,-1.0762,-1.2425,-1.4277,-1.4642,-1.5198,-1.5718,-1.5956,0.0,0.0,0.0,0.0,0.0,0.0,0.0,0.0,0.0,0.0,0.0,0.0,0.0,0.0,0.0,0.0,0.0,0.0,0.0,0.0,0.0,0.0,0.0,-2.0286,-2.0113,-2.033,-2.1104,-2.0263,-1.9798,-1.9798,-1.9798,-1.9798,-1.9798,-1.956,-1.9447,-1.9371,-1.8137,-1.7322,0.0,0.0,0.0,-1.4214,-1.3696,-1.3389,-1.3203,-1.2969,-1.2881,-1.2881,-1.2881,-1.2666,-1.2295,0.0,0.0,0.0,0.0,0.0,0.0,0.0,0.0,0.0,0.0,0.0,0.0,0.0,0.0,0.0,0.0,0.0,0.0,0.0,0.0,0.0,0.0,0.0,-1.1174,-1.1367,-1.2507,-1.3291,-1.3723,-1.4966,-1.6186,-1.7393,-1.7747,-1.8289,-1.8906,-1.8234,-1.7441,-1.6623,-1.6717,-1.6728,-1.6655,-1.6766,0.0,0.0,0.0,0.0,0.0,0.0,0.0,0.0,-1.2624,-1.2503,-1.222,-1.1994,0.0,0.0,0.0,0.0,0.0,-1.0056,-1.0923,-1.2115,-1.3361,-1.4116,-1.4773,-1.5683,0.0,0.0,0.0,0.0,0.0,0.0,0.0,0.0,0.0,0.0,0.0,0.0,0.0,0.0,0.0,0.0,0.0,0.0,0.0,0.0,0.0,0.0,-1.955,-1.9756,-2.0296,-2.0618,-2.0718,-2.01,-1.9798,-1.9798,-1.9798,-1.9798,-1.9798,-1.9284,-1.8983,-1.8958,-1.7727,-1.7087,-1.6929,0.0,0.0,-1.4247,-1.3641,-1.3203,-1.2881,-1.2881,-1.2881,-1.2881,-1.2881,-1.2501,-1.1972,0.0,0.0,0.0,0.0,0.0,0.0,0.0,0.0,0.0,0.0,0.0,0.0,0.0,0.0,0.0,0.0,0.0,0.0,0.0,0.0,0.0,0.0,-1.1788,-1.1682,-1.2202,-1.2746,-1.343,-1.4282,-1.5331,-1.6367,-1.7323,-1.7432,-1.7896,-1.862,-1.7949,-1.7836,-1.7972,-1.6693,-1.608,-1.5895,-1.5327,0.0,0.0,0.0,0.0,0.0,0.0,0.0,0.0,-1.1285,-1.109,-1.0722,-1.0595,0.0,0.0,0.0,0.0,0.0,-0.8732,-0.9093,-1.0092,-1.2445,-1.3914,-1.4796,-1.4965,0.0,0.0,0.0,0.0,0.0,0.0,0.0,0.0,0.0,0.0,0.0,0.0,0.0,0.0,0.0,0.0,0.0,0.0,0.0,0.0,0.0,0.0,0.0,-2.0466,-2.0147,-2.0162,-2.0706,-2.01,-1.9798,-1.9798,-1.9798,-1.9798,-1.9798,-1.9284,-1.8983,-1.8945,-1.7872,-1.7051,-1.6467,0.0,-1.4421,-1.3836,-1.3252,-1.2939,-1.2881,-1.2881,-1.2881,-1.2881,-1.2881,-1.2832,-1.2657,0.0,0.0,0.0,0.0,0.0,0.0,0.0,0.0,0.0,0.0,0.0,0.0,0.0,0.0,0.0,0.0,0.0,0.0,0.0,0.0,0.0,-1.2636,-1.2229,-1.2279,-1.2867,-1.3431,-1.3987,-1.4628,-1.5796,-1.6879,-1.7919,-1.814,-1.8242,-1.8196,-1.7624,-1.7443,-1.7471,-1.6638,-1.6003,-1.5587,0.0,0.0,0.0,0.0,0.0,0.0,0.0,0.0,0.0,0.0,-1.031,-0.9877,-0.9811,0.0,0.0,0.0,0.0,0.0,-0.8191,-0.8843,-0.9826,-1.1435,-1.2152,-1.265,-1.3499,0.0,0.0,0.0,0.0,0.0,0.0,0.0,0.0,0.0,0.0,0.0,0.0,0.0,0.0,0.0,0.0,0.0,0.0,0.0,0.0,0.0,0.0,0.0,-2.0188,-1.9949,-1.9924,-2.0188,-1.9936,-1.9798,-1.9798,-1.9798,-1.9798,-1.9798,-1.897,-1.8581,-1.8543,-1.7426,-1.6766,-1.6406,0.0,-1.4824,-1.4236,-1.3647,-1.319,-1.2881,-1.2881,-1.2881,-1.2881,-1.2881,-1.3027,-1.3084,0.0,0.0,0.0,0.0,0.0,0.0,0.0,0.0,0.0,0.0,0.0,0.0,0.0,0.0,0.0,0.0,0.0,0.0,0.0,0.0,-1.2937,-1.3124,-1.291,-1.3046,-1.3625,-1.4059,-1.4634,-1.5275,-1.6288,-1.727,-1.819,-1.8708,-1.8578,-1.7933,-1.7497,-1.7223,-1.703,-1.6554,-1.6019,-1.5493,0.0,0.0,0.0,0.0,0.0,0.0,0.0,0.0,0.0,0.0,0.0,0.0,0.0,0.0,0.0,-0.8724,-0.8262,-0.7835,-0.8187,-0.896,-0.9795,-1.0488,0.0,-1.1648,-1.2886,-1.264,0.0,0.0,0.0,0.0,0.0,0.0,0.0,0.0,0.0,0.0,0.0,0.0,0.0,0.0,0.0,0.0,0.0,0.0,0.0,0.0,0.0,0.0,-1.9798,-1.9685,-1.9623,-1.9623,-1.9497,-1.9434,-1.9434,-1.9434,-1.9497,-1.961,-1.8656,-1.8141,-1.7978,-1.6974,-1.6522,-1.6466,-1.5864,-1.5276,-1.4652,-1.405,-1.342,-1.2881,-1.2881,-1.2881,-1.2881,-1.2881,-1.3086,-1.321,0.0,0.0,0.0,0.0,0.0,0.0,0.0,0.0,0.0,0.0,0.0,0.0,0.0,0.0,0.0,0.0,0.0,0.0,0.0,0.0,-1.3897,-1.4713,-1.4264,-1.4169,-1.4612,-1.4392,-1.5083,-1.6738,-1.6782,-1.7066,-1.7574,-1.8435,-1.8534,-1.809,-1.7733,-1.7657,-1.7728,-1.6522,-1.5855,-1.553,-1.4971,0.0,0.0,0.0,0.0,0.0,0.0,0.0,0.0,0.0,0.0,0.0,0.0,0.0,-0.9131,-0.9001,-0.8731,-0.8529,-0.8728,-0.8945,-0.926,-0.9595,-1.1865,0.0,-1.4552,-1.499,0.0,-1.5219,0.0,0.0,0.0,0.0,0.0,0.0,0.0,0.0,0.0,0.0,0.0,0.0,0.0,0.0,0.0,0.0,0.0,0.0,0.0,0.0,-1.9798,-1.9346,-1.9083,-1.9083,-1.8581,-1.8329,-1.8329,-1.8329,-1.8581,-1.9033,-1.848,-1.794,-1.7426,-1.6798,-1.6522,-1.6466,-1.5864,-1.5276,-1.4652,-1.405,-1.342,-1.2881,-1.2881,-1.2881,-1.2881,-1.2881,-1.29,-1.292,0.0,0.0,0.0,0.0,0.0,0.0,0.0,0.0,0.0,0.0,0.0,0.0,0.0,0.0,0.0,0.0,0.0,0.0,0.0,0.0,-1.4038,-1.3906,-1.3799,-1.4297,-1.5483,-1.5294,-1.5768,-1.696,-1.7758,-1.8062,-1.7865,-1.8485,-1.8262,-1.727,-1.7079,-1.6824,-1.6539,-1.58,-1.5164,-1.4602,-1.4707,-1.4055,0.0,0.0,0.0,0.0,0.0,0.0,0.0,0.0,-0.7368,-0.7761,-0.7943,-0.8484,-0.9112,-0.9207,-0.9098,-0.9069,-0.94,-0.9674,-1.0065,-1.0927,-1.25,0.0,0.0,-1.3721,-1.4344,-1.4029,-1.451,0.0,0.0,0.0,0.0,0.0,0.0,0.0,0.0,0.0,0.0,0.0,0.0,0.0,0.0,0.0,0.0,0.0,0.0,0.0,0.0,-1.8618,-1.8518,-1.8518,-1.8317,-1.8204,-1.8204,-1.8204,-1.8141,-1.8003,-1.779,-1.7589,-1.7363,-1.6785,-1.6522,-1.6479,-1.6238,-1.582,-1.5231,-1.4595,-1.4014,-1.342,-1.3065,-1.2881,-1.2881,-1.2881,-1.3047,-1.3173,0.0,0.0,0.0,0.0,0.0,0.0,0.0,0.0,0.0,0.0,0.0,0.0,0.0,0.0,0.0,0.0,0.0,0.0,-1.3997,-1.4352,-1.4298,-1.3633,-1.3723,-1.4406,-1.5645,-1.5788,-1.6244,-1.7089,-1.8163,-1.8468,-1.8088,-1.8396,-1.7929,-1.6842,-1.66,-1.6152,-1.5604,-1.5332,-1.4718,-1.4014,-1.4523,-1.3794,0.0,0.0,0.0,0.0,0.0,0.0,0.0,0.0,-0.6337,-0.6927,-0.7292,-0.7995,-0.8764,-0.9177,-0.9257,-0.9276,-0.9734,-1.0254,-1.085,-1.1699,0.0,0.0,-1.2892,-1.3532,-1.4293,-1.4387,-1.5143,0.0,0.0,0.0,0.0,0.0,0.0,0.0,0.0,0.0,0.0,0.0,0.0,0.0,0.0,0.0,0.0,0.0,0.0,0.0,0.0,-1.8041,-1.794,-1.794,-1.7765,-1.7677,-1.7677,-1.7677,-1.7488,-1.7112,-1.7112,-1.7112,-1.7099,-1.6697,-1.6522,-1.6522,-1.6522,-1.6151,-1.5543,-1.4971,-1.4236,-1.3457,-1.3055,-1.2881,-1.2881,-1.2881,-1.3066,-1.3161,0.0,0.0,0.0,0.0,0.0,0.0,0.0,0.0,0.0,0.0,0.0,0.0,0.0,0.0,0.0,0.0,0.0,0.0,-1.473,-1.4877,-1.4772,-1.4298,-1.4415,-1.4662,-1.4983,-1.5801,-1.6585,-1.7293,-1.7716,-1.7937,-1.8004,-1.7935,-1.7563,-1.6957,-1.6437,-1.5819,-1.5196,-1.5188,-1.4666,-1.3914,-1.4398,-1.3462,-1.1712,0.0,0.0,0.0,0.0,0.0,0.0,0.0,-0.548,-0.601,-0.6527,0.0,-0.816,-0.8911,-0.9159,-0.9315,-0.97,-1.059,-1.1439,0.0,0.0,0.0,-1.4657,-1.5096,-1.5861,-1.7013,0.0,0.0,0.0,0.0,0.0,0.0,0.0,0.0,0.0,0.0,0.0,0.0,0.0,0.0,0.0,0.0,0.0,0.0,0.0,0.0,0.0,-1.7664,-1.7375,-1.7375,-1.6823,-1.6522,-1.6522,-1.6522,-1.6522,-1.6522,-1.6522,-1.6522,-1.6522,-1.6522,-1.6522,-1.6522,-1.6522,-1.6151,-1.5543,-1.4926,-1.3978,-1.2881,-1.2881,-1.2881,-1.2881,-1.2881,-1.2881,-1.2774,0.0,0.0,0.0,0.0,0.0,0.0,0.0,0.0,0.0,0.0,0.0,0.0,0.0,0.0,0.0,0.0,0.0,0.0,-1.3662,-1.3999,-1.3813,-1.2865,-1.3443,-1.4125,-1.4764,-1.582,-1.6829,-1.7873,-1.85,-1.8533,-1.8004,-1.8004,-1.7337,-1.6136,-1.5537,-1.4861,-1.4118,-1.3753,-1.3325,-1.291,-1.2927,-1.2047,-1.0693,0.0,0.0,0.0,0.0,0.0,0.0,0.0,0.0,0.0,-0.6314,0.0,-0.8818,-0.9291,-0.9968,-1.0698,-1.1377,-1.185,0.0,0.0,0.0,0.0,0.0,-1.5749,0.0,0.0,0.0,0.0,0.0,0.0,0.0,0.0,0.0,0.0,0.0,0.0,0.0,0.0,0.0,0.0,0.0,0.0,0.0,0.0,0.0,0.0,0.0,-1.6861,-1.6773,-1.6773,-1.6609,-1.6522,-1.6522,-1.6522,-1.6522,-1.6522,-1.6522,-1.6522,-1.6522,-1.6522,-1.6522,-1.6522,-1.6522,-1.6151,-1.5543,-1.4503,-1.361,-1.2881,-1.2881,-1.2881,-1.2881,-1.2881,-1.2559,-1.203,0.0,0.0,0.0,0.0,0.0,0.0,0.0,0.0,0.0,0.0,0.0,0.0,0.0,0.0,0.0,0.0,0.0,0.0,0.0,-1.3785,-1.3601,-1.2866,-1.3317,-1.4079,-1.5181,-1.59,-1.6745,-1.7665,-1.7963,-1.7947,-1.7689,-1.7536,-1.6942,-1.5979,-1.5244,-1.4411,-1.3554,-1.3191,-1.2535,-1.1821,-1.1931,-1.1176,-0.9817,0.0,0.0,0.0,0.0,0.0,0.0,0.0,0.0,0.0,-0.601,0.0,-0.852,-0.9144,-0.9991,-1.0875,-1.1562,-1.2413,0.0,0.0,0.0,0.0,0.0,0.0,0.0,0.0,0.0,0.0,0.0,0.0,0.0,0.0,0.0,0.0,0.0,0.0,0.0,0.0,0.0,0.0,0.0,0.0,0.0,0.0,0.0,0.0,0.0,-1.6522,-1.6522,-1.6522,-1.6522,-1.6522,-1.6522,-1.6522,-1.6522,-1.6522,-1.6522,-1.6522,-1.6522,-1.6522,-1.6522,-1.6479,-1.6238,-1.5676,-1.4812,-1.4086,-1.342,-1.2881,-1.2881,-1.2881,-1.2871,-1.2559,-1.2249,-1.1864,0.0,0.0,0.0,0.0,0.0,0.0,0.0,0.0,0.0,0.0,0.0,0.0,0.0,0.0,0.0,0.0,0.0,0.0,0.0,0.0,-1.3841,-1.3697,-1.371,-1.4433,-1.5966,-1.6097,-1.6387,-1.6891,-1.6613,-1.67,-1.7054,-1.6688,-1.6389,-1.6073,-1.5203,-1.4315,-1.338,-1.3259,-1.2236,-1.0829,-1.143,-1.0658,-0.9136,-0.8496,0.0,0.0,0.0,0.0,0.0,0.0,0.0,0.0,-0.5813,-0.6749,-0.7783,-0.8683,-0.95,-1.0283,-1.0881,0.0,0.0,0.0,0.0,0.0,0.0,0.0,0.0,0.0,0.0,0.0,0.0,0.0,0.0,0.0,0.0,0.0,0.0,0.0,0.0,0.0,0.0,0.0,0.0,0.0,0.0,0.0,0.0,0.0,0.0,-1.6522,-1.6522,-1.6522,-1.6522,-1.6522,-1.6522,-1.6522,-1.6522,-1.6522,-1.6522,-1.6522,-1.6522,-1.6522,-1.6466,-1.638,-1.5776,-1.4858,-1.3815,-1.3732,-1.3372,-1.2881,-1.2881,-1.29,-1.2871,-1.2098,-1.2001,-1.207,0.0,0.0,0.0,0.0,0.0,0.0,0.0,0.0,0.0,0.0,0.0,0.0,0.0,0.0,0.0,0.0,0.0,0.0,0.0,0.0,-1.317,-1.2733,-1.3399,-1.448,-1.5977,-1.6165,-1.6212,-1.6144,-1.679,-1.6747,-1.612,-1.6127,-1.5616,-1.4713,-1.4294,-1.3893,-1.3477,-1.3099,-1.243,-1.1522,-1.1305,-1.0413,-0.9096,-0.8177,-0.7058,0.0,0.0,0.0,0.0,0.0,0.0,0.0,-0.6606,-0.7566,-0.8423,-0.9047,-0.9839,-1.0787,0.0,-1.2363,0.0,0.0,0.0,0.0,0.0,0.0,0.0,0.0,0.0,0.0,0.0,0.0,0.0,0.0,0.0,0.0,0.0,0.0,0.0,0.0,0.0,0.0,0.0,0.0,0.0,0.0,0.0,0.0,-1.6522,-1.6522,-1.6522,-1.6522,-1.6522,-1.6522,-1.6522,-1.6522,-1.6522,0.0,-1.6522,-1.6522,-1.6522,-1.6522,-1.6238,-1.5776,-1.5152,-1.4468,-1.3779,-1.3286,-1.3017,-1.2881,-1.2881,-1.3076,-1.3229,-1.219,-1.1904,-1.1801,0.0,0.0,0.0,0.0,0.0,0.0,0.0,0.0,0.0,0.0,0.0,0.0,0.0,0.0,0.0,0.0,0.0,0.0,0.0,0.0,0.0,-1.241,-1.3222,-1.4217,-1.5412,-1.5537,-1.5579,-1.5551,-1.5816,-1.5706,-1.5207,-1.5082,-1.4671,-1.4081,-1.3795,-1.3524,-1.3238,-1.2923,-1.2163,-1.1159,-1.1064,-1.0347,-0.9307,-0.851,-0.7531,-0.6377,-0.5029,0.0,0.0,0.0,0.0,0.0,0.0,0.0,-0.7839,-0.864,-0.9454,-1.0365,0.0,0.0,0.0,0.0,0.0,0.0,0.0,0.0,0.0,0.0,0.0,0.0,0.0,0.0,0.0,0.0,0.0,0.0,0.0,0.0,0.0,0.0,0.0,0.0,0.0,0.0,0.0,0.0,0.0,-1.6409,-1.6132,-1.6371,-1.6396,-1.6132,-1.6384,-1.6522,-1.6522,-1.6522,-1.6522,-1.6522,-1.6522,-1.6522,-1.6522,-1.6522,-1.6194,-1.5588,-1.4971,-1.4376,-1.3732,-1.3152,-1.2881,-1.2881,-1.2881,-1.3018,-1.3124,-1.2153,-1.1791,-1.1703,0.0,0.0,0.0,0.0,0.0,0.0,0.0,0.0,0.0,0.0,0.0,0.0,0.0,0.0,0.0,0.0,0.0,0.0,0.0,0.0,0.0,-1.2721,-1.3163,-1.3812,-1.4622,-1.4663,-1.4712,-1.4844,-1.4322,-1.404,0.0,-1.3727,-1.3606,-1.3543,-1.3279,-1.3016,-1.2812,-1.2638,-1.1819,-1.066,-1.0695,-1.0131,-0.9247,-0.8622,-0.7687,-0.6552,-0.5087,-0.4552,-0.4406,-0.3554,0.0,0.0,0.0,0.0,-0.7026,-0.8034,-0.8842,-0.9646,0.0,0.0,0.0,0.0,0.0,0.0,0.0,0.0,0.0,0.0,0.0,0.0,0.0,0.0,0.0,0.0,0.0,0.0,0.0,0.0,0.0,0.0,0.0,0.0,0.0,0.0,0.0,0.0,0.0,-1.6321,-1.5856,-1.6271,-1.6308,-1.5856,-1.6283,-1.6522,-1.6522,-1.6522,-1.6522,-1.6522,-1.6522,-1.6522,-1.6522,-1.6522,-1.6095,-1.541,-1.4926,-1.4283,-1.36,-1.3104,-1.2881,-1.2881,-1.2881,-1.293,-1.2929,-1.2107,-1.1844,-1.1791,0.0,0.0,0.0,0.0,0.0,0.0,0.0,0.0,0.0,0.0,0.0,0.0,0.0,0.0,0.0,0.0,0.0,0.0,-1.3458,0.0,0.0,-1.3942,-1.3389,-1.3388,-1.408,-1.4166,-1.3913,-1.3381,-1.2738,0.0,0.0,0.0,0.0,-1.224,-1.207,-1.2061,-1.2159,-1.2218,-1.1898,-1.119,-1.0266,-0.922,-0.8099,-0.7036,-0.599,-0.4961,-0.4235,-0.3829,-0.3581,-0.3474,-0.3933,0.0,0.0,0.0,-0.7115,-0.778,-0.8539,-0.93,0.0,0.0,0.0,0.0,0.0,0.0,0.0,0.0,0.0,0.0,0.0,0.0,0.0,0.0,0.0,0.0,0.0,0.0,0.0,0.0,0.0,0.0,0.0,0.0,0.0,0.0,0.0,0.0,-1.6522,-1.6484,-1.6409,-1.6471,-1.6484,-1.6409,-1.6471,-1.6522,-1.6522,-1.6522,-1.6522,-1.6522,-1.6522,-1.6522,-1.6522,-1.6522,-1.5876,-1.4835,-1.4744,-1.4071,-1.3017,-1.292,-1.2881,-1.2881,-1.2881,-1.3105,-1.3268,-1.2208,-1.2225,-1.2529,0.0,0.0,0.0,0.0,0.0,0.0,0.0,0.0,0.0,0.0,0.0,0.0,0.0,0.0,0.0,-1.2209,-1.2207,-1.2453,-1.301,-1.3302,-1.3367,-1.3208,-1.3149,-1.3153,-1.3268,-1.2825,-1.2451,-1.2203,0.0,0.0,0.0,-0.9748,-0.9969,0.0,0.0,0.0,-1.0762,0.0,-1.0722,-1.0095,-0.9392,-0.8633,-0.7735,-0.688,-0.6015,-0.5222,-0.4474,-0.4517,-0.4883,-0.4248,-0.4623,-0.5511,-0.6359,0.0,0.0,0.0,0.0,0.0,-1.0004,0.0,0.0,0.0,0.0,0.0,0.0,0.0,0.0,0.0,0.0,0.0,0.0,0.0,0.0,0.0,0.0,0.0,0.0,0.0,0.0,0.0,0.0,0.0,0.0,0.0,0.0,0.0,-1.6522,-1.6384,-1.607,-1.6358,-1.6371,-1.607,-1.6358,-1.6522,-1.6522,-1.6522,-1.6522,-1.6522,-1.6522,-1.6522,-1.6522,-1.6522,-1.602,-1.5186,-1.4835,-1.4201,-1.3372,-1.3065,-1.2881,-1.2881,-1.2881,-1.2998,-1.3085,-1.2626,-1.2614,-1.2813,0.0,0.0,0.0,0.0,0.0,0.0,0.0,0.0,0.0,0.0,0.0,0.0,0.0,0.0,0.0,0.0,-1.2327,-1.251,-1.2824,-1.3334,-1.3362,-1.2812,-1.2899,-1.2794,-1.2502,-1.1583,-1.0924,0.0,0.0,0.0,-0.8592,-0.7393,-0.7407,0.0,-0.8806,-0.9117,0.0,0.0,0.0,0.0,-0.8379,-0.7717,-0.7063,-0.6369,-0.5859,-0.543,-0.4537,-0.4951,-0.5774,-0.5023,-0.5168,-0.5881,-0.6735,-0.6523,0.0,0.0,0.0,0.0,0.0,0.0,0.0,0.0,0.0,0.0,0.0,0.0,0.0,0.0,0.0,0.0,0.0,0.0,0.0,0.0,0.0,0.0,0.0,0.0,0.0,0.0,0.0,0.0,0.0,0.0,0.0,0.0,-1.6434,-1.6333,-1.5919,-1.6296,-1.6333,-1.5919,-1.6308,-1.6522,-1.6522,-1.6522,-1.6522,-1.6522,-1.6522,-1.6522,-1.6522,-1.6522,-1.6095,-1.5365,-1.488,-1.4294,-1.3552,-1.3113,-1.2881,-1.2881,-1.2881,-1.2881,-1.2881,-1.2881,-1.2919,-1.2912,0.0,0.0,0.0,0.0,0.0,0.0,0.0,0.0,0.0,0.0,0.0,0.0,-1.103,-1.1047,-1.1374,-1.2234,-1.2475,-1.278,-1.3243,-1.3195,-1.3337,-1.3794,-1.2819,0.0,-1.1956,-1.0839,-0.9608,0.0,0.0,0.0,-0.6165,-0.5322,-0.5387,-0.6234,-0.716,-0.796,-0.8534,0.0,0.0,0.0,0.0,0.0,-0.5528,-0.4718,-0.4548,0.0,0.0,-0.4262,-0.501,-0.5353,-0.5113,-0.4953,-0.6522,-0.664,-0.6297,0.0,0.0,0.0,0.0,0.0,0.0,0.0,0.0,0.0,0.0,0.0,0.0,0.0,0.0,0.0,0.0,0.0,0.0,0.0,0.0,0.0,0.0,0.0,0.0,0.0,0.0,0.0,0.0,0.0,0.0,0.0,-1.622,-1.6509,-1.6471,-1.6497,-1.6509,-1.6471,-1.6509,-1.6522,-1.6522,-1.6522,-1.6522,-1.6522,-1.6522,-1.6522,-1.6522,-1.6522,-1.5876,-1.4744,-1.4698,-1.4025,-1.2929,-1.2929,-1.2881,-1.2881,-1.2881,-1.2881,-1.2881,-1.2881,-1.291,-1.285,0.0,0.0,0.0,0.0,0.0,0.0,0.0,0.0,0.0,0.0,0.0,0.0,0.0,-1.1359,-1.1645,-1.2418,-1.2234,-1.2429,-1.3241,-1.3208,-1.3023,-1.2681,-1.2364,-1.1668,-1.0521,-0.9333,-0.8026,0.0,0.0,-0.4692,-0.4699,-0.3798,-0.4115,-0.5451,-0.5707,-0.6185,-0.673,-0.6176,0.0,0.0,0.0,0.0,0.0,0.0,0.0,0.0,0.0,0.0,0.0,-0.814,-0.8014,-0.7492,-0.8134,-0.7663,0.0,0.0,0.0,0.0,0.0,0.0,0.0,0.0,0.0,0.0,0.0,0.0,0.0,0.0,0.0,0.0,0.0,0.0,0.0,0.0,0.0,0.0,0.0,0.0,0.0,0.0,0.0,0.0,0.0,0.0,0.0,0.0,0.0,-1.6145,-1.6497,-1.6522,-1.6522,-1.6522,-1.6522,-1.6522,-1.6522,-1.6522,-1.6522,-1.6522,-1.6522,-1.6522,-1.6522,-1.6522,-1.5832,-1.4698,-1.4698,-1.4025,-1.2881,-1.2881,-1.2881,-1.2881,-1.2881,-1.2881,-1.2881,-1.2881,-1.3047,-1.325,0.0,0.0,0.0,0.0,0.0,0.0,0.0,0.0,0.0,0.0,0.0,0.0,0.0,0.0,-1.1886,-1.2442,-1.2076,-1.1952,-1.2345,-1.2028,-1.1706,-1.1385,-1.09,-1.0135,-0.9159,-0.8117,-0.6658,0.0,0.0,0.0,0.0,-0.1545,-0.2041,-0.3531,-0.3119,-0.4104,0.0,0.0,0.0,-0.561,0.0,0.0,-0.4679,0.0,0.0,0.0,0.0,0.0,0.0,0.0,0.0,0.0,0.0,0.0,0.0,0.0,0.0,0.0,0.0,0.0,0.0,0.0,0.0,0.0,0.0,0.0,0.0,0.0,0.0,0.0,0.0,0.0,0.0,0.0,0.0,0.0,0.0,0.0,0.0,0.0,0.0,0.0,0.0,0.0,0.0,0.0,0.0,0.0,-1.6471,-1.6346,-1.6321,-1.6509,-1.6522,-1.6522,-1.6522,-1.6522,-1.6522,-1.6522,-1.6522,-1.6522,-1.6466,-1.6281,-1.5644,-1.4709,-1.4468,-1.3836,-1.2881,-1.2881,-1.2881,-1.2881,-1.2881,-1.2881,-1.2881,-1.2881,-1.3057,-1.3301,0.0,0.0,0.0,0.0,0.0,0.0,0.0,0.0,0.0,-0.9406,0.0,0.0,0.0,0.0,0.0,-1.2238,-1.1923,-1.1345,-1.0498,-0.9572,-0.9322,-0.9943,-0.833,-0.7567,-0.784,-0.7215,-0.5409,0.0,0.0,0.0,0.0,0.0,0.0951,-0.0297,0.0544,-0.184,-0.6426,0.0,-0.4958,-0.562,0.0,-0.4145,-0.425,0.0,0.0,0.0,-0.9312,-1.0442,0.0,0.0,0.0,0.0,0.0,0.0,0.0,0.0,0.0,0.0,0.0,0.0,0.0,0.0,0.0,0.0,0.0,0.0,0.0,0.0,0.0,0.0,0.0,0.0,0.0,0.0,0.0,0.0,0.0,0.0,0.0,0.0,0.0,0.0,0.0,0.0,0.0,0.0,-1.489,-1.5329,-1.6409,-1.5969,-1.5944,-1.6471,-1.6509,-1.6522,-1.6522,-1.6522,-1.6522,-1.6522,-1.6522,-1.6522,-1.6466,-1.5908,-1.5276,-1.4698,-1.4097,-1.3457,-1.2929,-1.2929,-1.2881,-1.2881,-1.2881,-1.2881,-1.2881,-1.2881,-1.2881,-1.2881,0.0,0.0,0.0,0.0,0.0,0.0,0.0,0.0,0.0,0.0,0.0,0.0,-1.0955,-1.1312,-1.146,-1.1185,-1.0387,-0.9797,-0.9506,-0.8383,-0.7494,-0.6951,-0.599,-0.5199,-0.4612,-0.3747,-0.2468,0.0,0.0,0.0,0.0,0.0,0.0,0.0,-0.032,-0.2125,-0.426,-0.2839,0.0,0.0,-0.4542,-0.4942,0.0,0.0,0.0,0.0,0.0,-0.9985,-1.0436,0.0,-1.08,-0.9591,0.0,0.0,0.0,0.0,0.0,0.0,-0.9566,0.0,0.0,0.0,0.0,0.0,0.0,0.0,0.0,0.0,0.0,0.0,0.0,0.0,0.0,0.0,0.0,0.0,0.0,0.0,0.0,0.0,0.0,0.0,0.0,0.0,0.0,0.0,-1.4311,-1.4626,-1.5291,-1.5567,-1.5768,-1.5919,-1.6308,-1.6522,-1.6522,-1.6522,-1.6522,-1.6522,-1.6522,-1.6522,-1.6466,-1.6337,-1.592,-1.532,-1.4687,-1.4097,-1.3505,-1.3055,-1.2881,-1.2881,-1.2881,-1.2881,-1.2881,-1.2881,-1.2881,-1.2881,0.0,0.0,0.0,0.0,0.0,0.0,0.0,0.0,0.0,0.0,0.0,0.0,-1.1282,-1.0803,-1.0387,-1.0035,-0.905,-0.8171,-0.7547,-0.646,-0.5867,-0.5939,-0.5449,-0.5286,-0.5499,-0.2197,-0.0288,0.0,0.0,0.0,0.0,0.0,0.0,0.0,0.0,0.0,0.0,0.0,0.0,0.0,-0.469,0.0,0.0,-0.7764,-0.8347,0.0,0.0,0.0,-1.0961,-1.1447,-1.0919,0.0,0.0,0.0,0.0,0.0,0.0,0.0,0.0,0.0,0.0,0.0,0.0,0.0,0.0,-1.2246,0.0,0.0,0.0,0.0,0.0,0.0,0.0,0.0,0.0,0.0,0.0,0.0,0.0,0.0,0.0,0.0,0.0,0.0,0.0,-1.4035,-1.3871,-1.3984,-1.4538,-1.5306,-1.5693,-1.5693,-1.6233,-1.6522,-1.6522,-1.6522,-1.6522,-1.6522,-1.6522,-1.6522,-1.6479,-1.6238,-1.5788,-1.5186,-1.4606,-1.3967,-1.342,-1.3065,-1.2881,-1.2881,-1.2881,-1.2881,-1.2881,-1.2881,-1.2881,-1.2881,0.0,0.0,0.0,0.0,0.0,0.0,0.0,0.0,0.0,0.0,-1.2602,-1.2121,-1.1092,-0.9869,-0.9068,-0.881,-0.7762,-0.6636,-0.5368,-0.4248,-0.4431,-0.6257,-0.5756,-0.6336,-0.8239,-0.2384,0.0638,0.0,0.0,0.0,0.0,0.0,0.0,0.0,0.0,0.0,0.0,0.0,0.0,-0.6222,-0.534,-0.5553,0.0,0.0,-0.9008,0.0,-1.0762,-1.1713,-1.204,-1.1547,-1.0922,0.0,0.0,0.0,0.0,0.0,-0.8342,0.0,0.0,0.0,0.0,0.0,0.0,0.0,-1.1202,-1.214,-1.2769,0.0,0.0,0.0,0.0,0.0,0.0,0.0,0.0,0.0,0.0,0.0,0.0,0.0,0.0,0.0,0.0,-1.3547,-1.349,-1.4018,-1.3544,-1.3446,-1.3972,-1.4979,-1.5542,-1.5605,-1.6132,-1.6459,-1.6522,-1.6522,-1.6522,-1.6522,-1.6522,-1.6466,-1.638,-1.582,-1.5276,-1.4652,-1.405,-1.3515,-1.2968,-1.2929,-1.2881,-1.2881,-1.2881,-1.2881,-1.2881,-1.2881,-1.2881,-1.2881,-1.387,0.0,0.0,0.0,0.0,0.0,0.0,0.0,0.0,0.0,-1.1287,-1.0385,-0.9582,-0.8754,-0.8005,-0.7439,-0.6283,-0.5449,-0.5246,-0.3243,-0.339,-0.6414,-0.4512,-0.4287,-0.6227,-0.4904,-0.2376,0.0,0.0,0.0,0.0,0.0,0.0,0.0,0.0,0.0,0.0,0.0,0.0,-0.7618,-0.7355,0.0,-0.7512,-0.913,-0.9697,-0.97,-1.0102,-1.0295,-1.0339,0.0,-1.0192,-1.0267,0.0,0.0,0.0,0.0,0.0,0.0,0.0,0.0,0.0,0.0,0.0,0.0,-1.1452,-1.1616,-1.1855,0.0,0.0,0.0,0.0,0.0,0.0,0.0,0.0,0.0,0.0,0.0,0.0,0.0,0.0,0.0,0.0,-1.4032,-1.3821,-1.3926,-1.3489,-1.3248,-1.3348,-1.4047,-1.4614,-1.5054,-1.5567,-1.607,-1.6509,-1.6522,-1.6522,-1.6522,-1.6522,-1.6238,-1.5776,-1.5632,-1.5276,-1.4652,-1.405,-1.3732,-1.36,-1.3104,-1.2881,-1.2881,-1.2881,-1.2881,-1.2881,-1.2881,-1.2881,-1.2881,-1.3517,0.0,0.0,0.0,0.0,0.0,0.0,0.0,0.0,0.0,-1.1133,-0.9798,-0.9191,-0.7941,-0.714,-0.6923,-0.5019,-0.3677,-0.3443,-0.1411,-0.199,-0.5972,-0.5265,-0.6324,-0.9612,-0.5937,-0.2474,0.0,0.0,0.0,0.0,0.0,0.0,0.0,0.0,0.0,0.0,0.0,-0.7935,-0.8744,-0.8243,0.0,-0.8142,-0.9176,-0.9493,-0.9439,-0.9777,-0.9905,-1.0021,-1.0755,-1.0633,0.0,0.0,-0.997,-0.9206,0.0,-0.8615,-0.9022,0.0,0.0,0.0,-1.037,0.0,0.0,0.0,-1.0825,-1.1229,0.0,0.0,0.0,0.0,0.0,0.0,0.0,0.0,0.0,0.0,0.0,0.0,0.0,0.0,0.0,0.0,-1.4246,-1.3901,-1.3901,-1.3868,-1.3769,-1.3547,-1.4075,-1.4545,-1.489,-1.5404,-1.5957,-1.6509,-1.6522,-1.6522,-1.6522,-1.6522,-1.6194,-1.5588,-1.5588,-1.5096,-1.4236,-1.3909,-1.3637,-1.3334,-1.3017,-1.2881,-1.2881,-1.2881,-1.2881,-1.2881,-1.2881,-1.2881,-1.291,-1.3042,0.0,0.0,0.0,0.0,0.0,0.0,0.0,0.0,0.0,0.0,0.0,0.0,0.0,0.0,0.0,-0.422,-0.2188,0.0,0.0,-0.0647,-0.4858,-0.5127,-0.7149,-1.1422,-0.528,-0.1148,0.0599,0.0,0.0,0.0,0.0,0.0,0.0,0.0,0.0,0.0,0.0,0.0,-0.9777,0.0,-0.8865,-0.8884,-0.9309,-0.9261,-0.907,-0.9673,-0.9905,-1.0046,-1.1142,0.0,-0.953,-1.1445,-1.0697,0.0,0.0,0.0,0.0,0.0,0.0,0.0,0.0,0.0,-1.0541,0.0,0.0,0.0,0.0,0.0,0.0,0.0,0.0,0.0,0.0,0.0,0.0,0.0,0.0,0.0,0.0,0.0,0.0,0.0,-1.4495,-1.4084,-1.4019,-1.431,-1.4374,-1.4019,-1.4443,-1.4787,-1.4993,-1.5444,-1.5957,-1.6509,-1.6522,-1.6522,-1.6522,-1.6522,-1.6194,-1.5588,-1.5499,-1.4812,-1.3779,-1.3684,-1.3324,-1.2881,-1.2881,-1.2881,-1.2881,-1.2881,-1.2881,-1.2881,-1.2881,-1.293,-1.3047,-1.2358,-1.2523,0.0,0.0,0.0,0.0,0.0,0.0,0.0,0.0,0.0,0.0,0.0,0.0,0.0,0.0,0.0,0.0,-0.1449,0.0,0.0,-0.2563,-0.0478,-0.0608,-0.3521,-0.1864,0.108,0.5241,0.0,0.0,0.0,0.0,0.0,0.0,-0.1827,0.0,0.0,0.0,-0.9544,0.0,-1.1132,-1.0836,0.0,-1.0432,-0.9991,-0.9307,-0.9764,-0.9905,-0.9742,0.0,-0.7662,-0.7418,0.0,-1.081,-1.0472,0.0,0.0,0.0,0.0,0.0,0.0,0.0,-1.0335,0.0,0.0,0.0,0.0,0.0,0.0,0.0,0.0,0.0,0.0,0.0,0.0,0.0,0.0,0.0,0.0,0.0,0.0,0.0,0.0,0.0,-1.4814,-1.447,-1.447,-1.447,-1.4438,-1.4614,-1.4918,-1.5434,-1.5591,-1.5957,-1.6509,-1.6522,-1.6522,-1.6522,-1.6522,-1.6194,-1.5588,-1.5062,-1.4422,-1.3768,-1.3238,-1.2968,-1.2881,-1.2881,-1.2881,-1.2881,-1.2881,-1.2881,-1.2881,-1.2881,-1.3115,-1.3447,-1.171,-1.2005,0.0,0.0,0.0,0.0,0.0,0.0,0.0,0.0,0.0,0.0,0.0,0.0,0.0,0.0,0.0,-0.3244,0.0,0.0,0.0,0.0,0.0,0.0,-0.6796,-0.2191,0.113,0.2938,0.5324,0.0,0.0,0.0,0.0,0.0,-0.3796,0.0,-0.8304,0.0,0.0,0.0,0.0,0.0,0.0,-0.9857,-0.8502,-0.6815,-0.6994,-0.8273,-0.9805,0.0,-0.9617,0.0,0.0,0.0,0.0,0.0,0.0,0.0,0.0,0.0,0.0,0.0,0.0,0.0,-1.0051,0.0,-1.0467,0.0,0.0,0.0,0.0,0.0,0.0,0.0,0.0,0.0,0.0,0.0,0.0,0.0,0.0,0.0,0.0,0.0,0.0,0.0,-1.4398,-1.4558,-1.4278,-1.4744,-1.5202,-1.5496,-1.5631,-1.5957,-1.6509,-1.6522,-1.6522,-1.6522,-1.6522,-1.6194,-1.5588,-1.532,-1.4687,-1.3779,-1.3552,-1.3238,-1.2881,-1.2881,-1.2881,-1.2881,-1.2881,-1.2881,-1.2881,-1.2881,-1.2998,-1.3213,-1.0893,0.0,0.0,0.0,0.0,0.0,0.0,0.0,0.0,0.0,0.0,0.0,-0.7428,-0.6068,0.0,0.0,0.0,-0.4617,0.0,0.0,-0.2101,0.0,0.0,0.0,0.0,0.0,0.1548,0.2244,0.0,0.0,0.0,0.0,0.0,0.0,0.0,-0.7075,-0.8588,0.0,0.0,-1.209,-1.1733,-1.1129,-1.0267,-0.9198,-0.7749,-0.6105,-0.4278,-0.5161,-0.7181,-0.7181,-0.9077,0.0,-1.0947,0.0,0.0,0.0,0.0,0.0,-1.1183,0.0,0.0,0.0,0.0,0.0,0.0,0.0,0.0,0.0,0.0,0.0,0.0,0.0,0.0,0.0,0.0,0.0,0.0,0.0,0.0,0.0,0.0,0.0,0.0,0.0,0.0,-1.3968,-1.4433,-1.4693,-1.4558,-1.4962,-1.5343,-1.5644,-1.5811,-1.612,-1.6522,-1.6522,-1.6522,-1.6522,-1.6522,-1.6281,-1.582,-1.5676,-1.505,-1.405,-1.3862,-1.3552,-1.3152,-1.2978,-1.3017,-1.3152,-1.2968,-1.2881,-1.2881,-1.2881,-1.2959,-1.3135,-0.9742,-1.0194,0.0,0.0,0.0,0.0,0.0,0.0,0.0,0.0,0.0,0.0,0.0,0.0,0.0,0.0,0.0,-0.5857,-0.5702,0.0,-0.2416,0.0,0.0,0.0853,0.0,0.0,0.0,0.6119,0.0,0.0,0.0,0.0,0.0,0.0,0.0,-0.8126,-1.084,-1.0412,-1.1833,-1.4223,-1.2219,-1.1076,-1.0427,0.0,-0.8853,-0.8901,-0.2461,0.0,0.0,-0.0314,-0.3206,0.0,0.0,0.0,0.0,0.0,0.0,0.0,0.0,0.0,0.0,-1.221,0.0,0.0,0.0,0.0,-0.9312,0.0,0.0,0.0,0.0,0.0,0.0,0.0,0.0,0.0,0.0,0.0,0.0,0.0,0.0,0.0,0.0,0.0,0.0,-1.4966,-1.474,-1.4941,-1.571,-1.5231,-1.5259,-1.6068,-1.6344,-1.6497,-1.6522,-1.6522,-1.6522,-1.6522,-1.6522,-1.6479,-1.6466,-1.5864,-1.5276,-1.4652,-1.405,-1.3779,-1.3732,-1.3152,-1.3238,-1.3732,-1.3152,-1.2881,-1.2881,-1.2881,-1.3135,-1.3486,0.0,0.0,0.0,0.0,0.0,0.0,0.0,-0.6573,0.0,0.0,0.0,0.0,0.0,0.0,-0.7795,0.0,0.0,-0.807,-0.9145,-0.7138,0.0,0.0,0.0,-0.4305,0.0,0.0,0.0,0.0,0.0,0.0,0.0,0.0,0.0,0.0,0.0,-0.9346,0.0,0.0,0.0,0.0,0.0,-1.1922,-1.3704,0.0,0.0,-0.3051,-0.0803,0.0,0.0,0.0,-0.0989,-0.3721,-1.2244,-1.3856,-1.2672,-1.3099,-1.2281,0.0,0.0,0.0,-1.2046,-1.1945,0.0,0.0,0.0,0.0,0.0,0.0,0.0,0.0,0.0,0.0,0.0,0.0,0.0,0.0,0.0,0.0,0.0,0.0,0.0,0.0,0.0,0.0,0.0,-1.3092,-1.3196,-1.3623,-1.437,-1.5428,-1.6047,-1.6118,-1.6705,-1.6879,-1.6522,-1.6522,-1.6522,-1.6522,-1.6522,-1.6522,-1.6466,-1.6281,-1.5644,-1.4698,-1.4915,-1.4549,-1.3815,-1.4014,-1.4201,-1.434,-1.3732,-1.3515,-1.3467,-1.3065,-1.2969,-1.3174,-0.8342,0.0,0.0,0.0,0.0,0.0,0.0,0.0,0.0,0.0,-0.487,0.0,-0.8393,0.0,-0.8154,0.0,-0.9935,-0.9722,-1.1183,-0.9486,0.0,-1.1882,-0.9209,0.0,0.0,0.0,0.0,0.0,0.0,-0.3672,0.0,0.0,0.0,0.0,0.0,0.0,0.0,0.0,-1.2526,0.0,0.0,-1.3489,0.0,0.0,-0.4258,0.0,0.0,0.0,-0.057,-0.4347,-0.4362,-0.43,-1.2785,-1.4627,-1.3776,-1.437,-1.3345,-1.2308,-1.358,-1.3201,0.0,-1.2516,-1.3326,0.0,-1.1927,0.0,0.0,0.0,0.0,0.0,0.0,0.0,0.0,0.0,0.0,0.0,0.0,-1.2018,0.0,0.0,0.0,0.0,0.0,0.0,-1.2753,-1.2503,-1.2592,-1.3084,0.0,0.0,-1.602,-1.6354,-1.7163,-1.7353,-1.6795,-1.6795,-1.668,-1.6522,-1.6522,-1.6522,-1.6522,-1.6522,-1.5964,-1.505,-1.541,-1.5174,-1.4457,-1.4652,-1.4835,-1.496,-1.4376,-1.4003,-1.3732,-1.3104,-1.2881,-1.2998,0.0,0.0,0.0,0.0,-0.4442,0.0,0.0,0.0,-0.5227,0.0,-0.6502,-0.7991,-0.8936,-0.9798,-1.0502,-1.093,-1.0607,0.0,-1.1757,-1.0389,0.0,0.0,-1.0966,-1.0741,-1.2026,0.0,0.0,0.0,0.0,0.0,0.0,0.0,0.0,0.0,-0.9665,0.0,-1.0452,-1.225,-1.3231,-1.3603,-1.4469,-1.5499,-1.679,-1.9484,-1.249,-0.1134,-0.0308,0.0,-0.1619,-1.2231,-1.2546,-0.9253,-1.3596,-1.478,-1.4651,-1.5027,-1.4564,-1.4084,-1.4876,-1.4339,-1.3607,-1.3845,0.0,0.0,0.0,0.0,-1.3614,0.0,0.0,0.0,0.0,0.0,0.0,0.0,0.0,0.0,0.0,0.0,0.0,0.0,0.0,0.0,0.0,-1.3263,-1.3484,-1.3186,-1.2894,0.0,0.0,0.0,-1.5263,-1.6784,-1.7684,-1.7867,-1.7353,-1.7312,-1.7034,-1.6552,-1.6522,-1.6522,-1.6522,-1.6522,-1.6194,-1.5588,-1.5632,-1.5632,-1.5543,-1.5017,-1.5152,-1.5588,-1.4971,-1.4376,-1.3779,-1.3152,-1.2891,-1.3027,-0.693,-0.551,-0.4107,0.0,-0.2827,-0.2701,0.0,0.0,0.0,0.0,-0.7051,-0.8633,-1.0773,-1.0903,-1.1144,-1.1937,-1.1637,0.0,0.0,0.0,0.0,-1.1903,-1.2225,-1.2036,-1.1296,-1.0076,0.0,-0.9055,0.0,0.0,-0.7336,0.0,0.0,0.0,0.0,0.0,-1.1,-1.1603,-1.2674,-1.4078,-1.4751,-1.5121,0.0,0.0,-1.979,-1.7151,-0.4518,0.0,-0.1619,-1.2231,-1.6203,-1.6548,-1.5787,-1.5659,-1.5734,-1.5639,-1.5013,-1.447,-1.4968,-1.4689,-1.4177,-1.3946,-1.3979,-1.3813,0.0,0.0,0.0,0.0,0.0,0.0,0.0,0.0,0.0,0.0,0.0,0.0,0.0,0.0,0.0,-1.2001,0.0,0.0,-1.2946,-1.2523,-1.2338,-1.2668,-1.2204,0.0,0.0,0.0,0.0,-1.599,-1.7768,-1.8458,-1.7907,-1.7504,-1.7229,-1.7076,-1.668,-1.6522,-1.6522,-1.6522,-1.6194,-1.5632,-1.6051,-1.5996,-1.5632,-1.592,-1.6151,-1.6194,-1.5599,-1.5005,-1.434,-1.3296,-1.3076,-1.3418,-0.7298,0.0,0.0,-0.3636,0.0,0.0,-0.3615,0.0,0.0,-0.7945,-0.9196,0.0,-1.1837,-1.1821,-1.1806,-1.209,-1.1931,0.0,0.0,0.0,0.0,-1.2728,-1.2821,-1.2574,-1.1979,-1.0714,0.0,-1.0317,0.0,0.0,-0.814,0.0,0.0,0.0,0.0,-0.9944,0.0,-1.1015,-1.2253,-1.3358,-0.9907,0.0,0.0,-1.6938,-2.0808,-2.3072,-0.6095,0.0,-0.1259,-0.9563,-1.5216,-1.8478,-1.6443,-1.6068,-1.6337,-1.5935,-1.5329,-1.4845,-1.5285,-1.4968,-1.4438,-1.4214,-1.4196,-1.4088,-1.352,-1.3808,-1.4132,0.0,0.0,0.0,0.0,0.0,0.0,0.0,0.0,0.0,0.0,0.0,0.0,0.0,-1.1848,0.0,-1.2769,-1.2385,-1.2175,-1.234,0.0,0.0,0.0,0.0,0.0,-1.599,-1.7683,-1.811,-1.7052,-1.7673,-1.7491,-1.6548,-1.6751,-1.671,-1.6522,-1.6522,-1.6324,-1.6008,-1.6337,-1.6293,-1.6008,-1.638,-1.6522,-1.6423,-1.582,-1.541,-1.4994,-1.4296,-1.3967,-1.3972,0.0,0.0,0.0,0.0,0.0,0.0,0.0,-0.6466,0.0,-1.0303,0.0,-1.2497,-1.2625,-1.2653,-1.2526,-1.213,0.0,-1.2359,-1.3225,-1.283,-1.2997,-1.3959,-1.3031,-1.2672,-1.3085,-1.1573,0.0,0.0,0.0,0.0,0.0,0.0,0.0,0.0,0.0,0.0,0.0,-1.0636,-1.1719,0.0,-0.489,-0.6511,-1.3164,-1.3704,-1.7275,-2.0284,-0.7252,-0.1466,-0.0839,-0.6325,-1.2418,-1.7503,-1.6413,-1.6413,-1.6712,-1.6084,-1.5581,-1.5285,-1.5697,-1.5255,-1.4627,-1.4533,-1.4627,-1.4787,-1.479,-1.5241,-1.5831,-1.6308,-1.5608,-1.5122,0.0,0.0,0.0,0.0,0.0,0.0,0.0,0.0,0.0,0.0,0.0,0.0,0.0,-1.2403,-1.2435,0.0,0.0,0.0,0.0,0.0,0.0,-1.5959,-1.7374,-1.742,-1.5985,0.0,-1.7907,-1.5916,-1.687,-1.7034,-1.6522,-1.6522,-1.6522,-1.6522,-1.6522,-1.6522,-1.6466,-1.6423,-1.6337,-1.6194,-1.5776,-1.5588,-1.5614,-1.5799,-1.5381,-1.485,0.0,0.0,0.0,0.0,0.0,-0.6301,-0.8926,-0.8347,-0.8273,-1.0115,-1.146,-1.2646,-1.3689,-1.3442,-1.332,-1.368,-1.3236,0.0,0.0,0.0,0.0,-1.3336,-1.316,-1.2885,-1.2567,-1.1715,-1.1186,0.0,0.0,0.0,0.0,0.0,0.0,0.0,0.0,0.0,-1.1324,-1.09,0.0,-1.0272,-1.225,-0.8854,-0.3469,-1.1031,-0.995,-0.5467,-1.3408,-0.9246,-0.0973,-0.7391,-1.3196,-1.7652,-1.7428,-1.7428,-1.7399,-1.6741,-1.6129,-1.5712,-1.577,-1.5697,-1.5389,-1.469,-1.4859,-1.5031,-1.4381,-1.5016,-1.5718,-1.5819,-1.5674,-1.5388,-1.4857,0.0,0.0,0.0,0.0,0.0,0.0,0.0,0.0,0.0,0.0,0.0,0.0,0.0,0.0,0.0,0.0,0.0,0.0,0.0,0.0,0.0,-1.6221,0.0,0.0,0.0,-1.8478,-1.7678,-1.7423,-1.7034,-1.6522,-1.6522,-1.6522,-1.6522,-1.6522,-1.6522,-1.6479,-1.5952,-1.5454,-1.5062,-1.5454,-1.5588,-1.5751,-1.7176,-1.7243,-1.6558,0.0,0.0,0.0,0.0,0.0,0.0,0.0,-1.0328,0.0,-1.1887,-1.3184,-1.4095,-1.4441,-1.4526,-1.4545,-1.45,-1.4237,-1.4086,-1.4086,-1.381,-1.3659,-1.3659,-1.3348,0.0,-1.281,-1.2502,-1.1814,-1.0745,0.0,0.0,0.0,0.0,0.0,0.0,0.0,-0.9666,0.0,0.0,0.0,-1.0268,-1.492,-1.3735,-0.9374,-1.1149,-0.6907,-0.1736,-1.4947,-1.5605,-1.0638,-1.3376,-1.6278,-1.8627,-1.7906,-1.7921,-1.8029,-1.701,-1.6488,-1.6204,-1.5903,-1.561,-1.5285,-1.4658,-1.4528,-1.4492,-1.419,-1.4714,-1.5341,-1.563,-1.5693,-1.5166,-1.3411,-1.2922,0.0,0.0,0.0,0.0,0.0,0.0,0.0,0.0,0.0,0.0,0.0,0.0,0.0,0.0,0.0,0.0,0.0,0.0,0.0,0.0,0.0,0.0,0.0,0.0,0.0,-1.6231,-1.725,-1.7312,-1.6522,-1.6522,-1.6522,-1.6522,-1.6522,-1.6522,-1.6479,-1.6194,-1.592,-1.5656,-1.5964,-1.6051,-1.6186,-1.7227,-1.7424,-1.7067,0.0,-0.8091,0.0,0.0,-0.8978,0.0,-1.1834,-1.2299,-1.2899,-1.4025,-1.4903,-1.5357,-1.5193,-1.5467,-1.5517,-1.513,-1.4979,-1.4916,-1.4916,-1.45,-1.4261,-1.4261,-1.381,-1.3549,-1.3549,-1.3471,-1.2664,0.0,0.0,0.0,0.0,0.0,0.0,0.0,0.0,0.0,0.0,0.0,-1.4559,-1.2401,-1.6397,-1.7947,-1.7416,-1.3271,-0.8573,-0.5551,-1.5978,-1.969,-1.9585,-1.8931,-1.9121,-1.951,-1.8463,-1.8298,-1.8283,-1.7219,-1.6726,-1.6398,-1.5933,-1.5551,-1.5165,-1.4721,-1.4406,-1.4232,-1.4377,-1.4765,-1.5205,-1.5605,-1.5605,-1.4901,-1.2817,-1.3496,0.0,0.0,0.0,0.0,0.0,0.0,0.0,0.0,0.0,0.0,0.0,0.0,0.0,0.0,0.0,0.0,0.0,0.0,0.0,0.0,0.0,-1.5015,-1.4645,0.0,-1.795,-1.5308,-1.7182,-1.7544,-1.6522,-1.6522,-1.6522,-1.6522,-1.6522,-1.6423,-1.6293,-1.6293,-1.6238,-1.6107,-1.625,-1.6399,-1.6534,-1.6967,-1.7179,-1.7255,0.0,0.0,0.0,0.0,0.0,0.0,-1.2783,-1.4073,-1.5085,-1.5384,-1.505,-1.5186,-1.6219,-1.5953,-1.5668,-1.5618,-1.5205,-1.4916,-1.4916,-1.4865,-1.484,-1.484,-1.4777,-1.4752,-1.4752,-1.4261,-1.3696,0.0,0.0,0.0,0.0,0.0,0.0,0.0,0.0,0.0,0.0,-1.5159,-1.6344,-1.8121,-1.8809,-1.876,-1.8268,-1.7807,-1.77,-1.7999,-1.9241,-1.969,-1.9675,-1.96,-1.9615,-1.966,-1.954,-1.8732,-1.7757,-1.7637,-1.6787,-1.5873,-1.5829,-1.577,-1.561,-1.5165,-1.5109,-1.5196,-1.5349,-1.5517,-1.563,-1.568,-1.5291,-1.4879,-1.4501,-1.5029,-1.5372,0.0,0.0,0.0,0.0,0.0,0.0,0.0,0.0,0.0,0.0,0.0,0.0,0.0,0.0,0.0,0.0,0.0,0.0,-1.2478,0.0,-1.3785,-1.4679,-1.6955,-1.7964,-1.7783,-1.8011,-1.7544,-1.6522,-1.6522,-1.6522,-1.6522,-1.6522,-1.6194,-1.5676,-1.5676,-1.5365,-1.4926,-1.5454,-1.5975,-1.6465,-1.6943,-1.7405,-1.7686,0.0,0.0,0.0,0.0,0.0,0.0,0.0,-1.4425,-1.4687,-1.5508,-1.541,-1.5276,-1.5433,-1.5552,-1.5776,-1.6141,-1.5982,-1.5856,-1.5856,-1.5542,-1.5367,-1.5367,-1.5079,-1.4916,-1.4916,-1.4689,-1.409,0.0,0.0,0.0,0.0,0.0,0.0,0.0,0.0,-1.3142,-1.459,-1.6208,-1.75,-1.8543,-1.9354,-1.9609,-1.9568,-1.9869,-1.9866,-1.969,-1.969,-1.969,-1.969,-1.969,-1.969,-1.969,-1.969,-1.9331,-1.8747,-1.7921,-1.7625,-1.7281,-1.6128,-1.5891,-1.5841,-1.5266,-1.4776,-1.4466,-1.4536,-1.4823,-1.5104,-1.5104,-1.5131,-1.5039,-1.4641,-1.5324,-1.5791,0.0,0.0,0.0,0.0,0.0,0.0,0.0,0.0,0.0,0.0,0.0,0.0,0.0,0.0,0.0,0.0,0.0,0.0,-1.4053,0.0,-1.515,-1.6533,-1.7427,-1.753,-1.6956,-1.7716,-1.7544,-1.6522,-1.6522,-1.6522,-1.6466,-1.6107,-1.6051,-1.6095,-1.5377,-1.5332,-1.578,-1.5522,-1.6055,-1.6981,-1.6915,-1.7345,-1.7847,-1.2842,0.0,-1.3587,0.0,-1.4033,-1.4754,-1.5174,-1.4861,-1.4778,-1.5276,-1.5499,-1.5365,-1.4744,-1.5421,-1.5952,-1.6194,-1.638,-1.6522,-1.6522,-1.6158,-1.5932,-1.5932,-1.5567,0.0,-1.5354,-1.523,-1.4688,-1.379,-1.2255,0.0,0.0,0.0,0.0,0.0,-1.3297,-1.44,-1.5209,-1.7228,-1.8314,-1.8697,-1.9673,-2.0241,-2.055,-2.1023,-2.0731,-2.0085,-2.0085,-1.998,-1.9874,-1.9874,-1.9818,-1.969,-1.969,-1.9555,-1.9181,-1.8059,-1.7891,-1.7775,-1.6233,-1.5906,-1.5883,-1.5431,-1.469,-1.417,-1.443,-1.4606,-1.4726,-1.4865,-1.4992,-1.4979,-1.4728,-1.553,-1.6128,-1.5771,0.0,0.0,0.0,0.0,0.0,0.0,-1.2243,-1.272,-1.2855,0.0,0.0,0.0,0.0,0.0,0.0,0.0,0.0,0.0,0.0,0.0,0.0,-1.705,-1.6969,-1.6784,-1.7649,-1.7544,-1.6466,-1.6337,-1.6238,-1.6194,-1.5599,-1.5599,-1.5901,-1.5177,-1.5372,-1.611,-1.5688,-1.6323,-1.7493,-1.7008,-1.7352,-1.8059,-1.4564,-1.4626,-1.4603,-1.4742,-1.5228,-1.5406,-1.4893,-1.5776,-1.6064,-1.488,-1.5231,-1.5365,-1.4744,-1.5788,-1.6238,-1.5676,-1.6151,-1.6522,-1.6522,-1.6509,-1.6509,0.0,0.0,-1.6497,-1.6497,-1.5969,-1.568,-1.5668,0.0,0.0,-1.1827,0.0,-1.1058,-1.3484,-1.4054,-1.5671,-1.8051,-1.8104,-1.8669,-1.9626,-2.0035,-2.052,-2.1039,-2.143,-2.1337,-2.0991,-2.0991,-2.0682,-2.028,-2.028,-2.0035,-1.969,-1.969,-1.9241,-1.8583,-1.7891,-1.7234,-1.6592,-1.5978,-1.5799,-1.5814,-1.5799,-1.5134,-1.4749,-1.5752,-1.5298,-1.4796,-1.5196,-1.4864,-1.4641,-1.5013,-1.5918,-1.6518,-1.6251,0.0,0.0,0.0,0.0,0.0,0.0,-1.043,-1.3162,-1.2829,0.0,0.0,0.0,0.0,0.0,0.0,0.0,0.0,-1.1812,-1.1081,0.0,-1.4811,-1.5221,-1.6324,-1.8092,-1.8092,-1.7544,-1.6466,-1.5864,-1.5632,-1.5588,-1.4971,-1.4709,-1.4743,-1.5118,-1.5307,-1.5363,-1.5803,-1.6751,-1.7816,-1.704,-1.7569,-1.8596,-1.583,-1.5929,-1.5905,-1.5948,-1.6088,-1.6173,-1.5991,-1.5898,-1.5732,-1.5365,-1.5499,-1.5365,-1.4744,-1.5017,-1.5522,0.0,-1.5996,-1.6051,0.0,-1.6522,-1.6522,-1.6522,-1.6522,-1.6522,-1.6522,-1.6346,-1.6258,-1.6258,0.0,0.0,0.0,-1.2883,-1.3743,-1.4941,-1.5558,-1.6215,-1.6877,-1.6877,-1.747,-1.8504,-1.9226,-2.0096,-2.1071,-2.1811,-2.1794,-2.1399,-2.1399,-2.115,-2.0731,-2.0416,-2.0212,-2.0054,-1.9782,-1.954,-1.9241,-1.8583,-1.8553,-1.8508,-1.7401,-1.743,-1.767,-1.7221,-1.6691,-1.6246,-1.6096,-1.5844,-1.5891,-1.6764,-1.679,-1.6591,-1.6259,-1.6683,-1.7038,-1.6893,-1.8127,0.0,0.0,0.0,0.0,0.0,-1.4354,-1.5466,0.0,-1.5427,0.0,0.0,0.0,0.0,0.0,0.0,0.0,0.0,-1.6155,0.0,-1.8543,-1.7543,-1.7568,-1.865,-1.8263,-1.7544,-1.6466,-1.5864,-1.5588,-1.5543,-1.4549,-1.4329,-1.4674,-1.3947,-1.4323,-1.5326,-1.5401,-1.6445,-1.7926,-1.8072,-1.8677,-1.9374,-1.6446,-1.6522,-1.6522,-1.6522,-1.6522,-1.6522,-1.6522,-1.6194,-1.5952,-1.5952,-1.5952,-1.5776,-1.5433,-1.5152,0.0,-1.5788,-1.5876,-1.6008,-1.6139,-1.638,-1.6522,-1.6522,-1.6522,-1.6522,-1.6522,-1.6281,0.0,-1.6151,-1.4462,-1.3303,-1.2717,-1.4102,-1.4926,-1.5276,-1.6151,-1.6448,-1.6393,-1.6393,-1.6996,-1.8067,-1.8916,-1.9981,-2.1103,-2.1991,-2.2106,-2.1853,-2.1853,-2.1598,-2.1181,-2.0878,-2.0567,-2.0246,-2.0,-1.9818,-1.9555,-1.8897,-1.9001,-1.9091,-1.7981,-1.8029,-1.8238,-1.7787,-1.7257,-1.663,-1.5938,-1.6258,-1.6755,-1.6934,-1.7386,-1.7477,-1.6683,-1.7051,-1.748,-1.74,-1.8718,-1.9098,-1.7219,0.0,0.0,0.0,0.0,0.0,0.0,-1.7174,-1.6377,0.0,0.0,0.0,0.0,0.0,0.0,-1.7843,-1.7651,0.0,-1.9679,-1.8431,-1.8179,-1.8893,-1.8145,-1.7353,-1.6479,-1.5802,-1.5405,-1.5197,-1.4148,-1.3803,-1.3988,-1.337,-1.3739,-1.4673,-1.5247,-1.6302,-1.7641,-1.8419,-1.9028,-1.9459,-1.6522,-1.6522,0.0,0.0,-1.6522,0.0,-1.6522,-1.6522,-1.6522,-1.6522,-1.6522,-1.6466,-1.6423,-1.5964,-1.532,-1.4698,0.0,0.0,0.0,-1.6139,-1.6466,-1.6423,-1.6423,-1.6423,-1.6423,-1.5864,-1.5543,-1.5499,-1.4365,-1.3505,-1.2929,-1.4071,-1.4663,-1.4744,-1.5932,-1.6479,-1.6522,-1.6522,-1.7105,-1.8171,-1.9053,-2.0073,-2.1118,-2.2003,-2.2321,-2.2321,-2.2321,-2.2032,-2.1642,-2.1628,-2.1023,-2.0348,-2.0314,-2.0019,-1.957,-1.8957,-1.8777,-1.8642,-1.7996,-1.7832,-1.7784,-1.7784,-1.7073,-1.6228,-1.5668,-1.6656,-1.7396,-1.6293,-1.7012,-1.7541,-1.6604,-1.7231,-1.7866,-1.7805,-1.9264,-1.9602,-1.7235,0.0,0.0,0.0,0.0,0.0,0.0,-1.7659,-1.7566,0.0,0.0,0.0,0.0,0.0,-1.6563,-1.6832,-1.6623,-1.7254,-1.8882,-1.829,-1.8291,-1.8893,-1.7908,-1.7128,-1.6584,-1.5765,-1.5177,-1.474,-1.387,-1.3281,-1.2959,-1.3311,-1.3496,-1.3674,-1.5245,-1.6363,-1.7176,-1.8272,-1.8833,-1.897,0.0,0.0,-1.6522,-1.6522,-1.6522,-1.6522,-1.6522,-1.6522,-1.6522,-1.6522,-1.6522,-1.6337,-1.5864,-1.5676,-1.5174,-1.4097,-1.5141,-1.5555,-1.4971,-1.592,-1.6281,-1.582,-1.582,-1.582,-1.582,-1.5231,-1.4687,-1.4226,-1.3956,-1.3505,-1.2929,-1.3647,-1.4283,-1.4744,-1.5466,-1.6051,-1.6522,-1.6522,-1.7105,-1.8171,-1.9053,-2.0195,-2.1469,-2.2279,-2.2599,-2.2599,-2.2599,-2.2419,-2.2077,-2.1718,-2.1275,-2.0748,-2.0416,-2.0019,-1.966,-1.9495,-1.945,-1.942,-1.9271,-1.8912,-1.8608,-1.8608,-1.7743,-1.7107,-1.7874,-1.7971,-1.8045,-1.8634,-1.9001,-1.8944,-1.793,-1.8181,-1.8566,-1.861,-1.9155,-1.8996,-1.7302,-1.8107,0.0,0.0,-1.7507,-1.8212,-1.9492,-1.9751,-1.9134,0.0,0.0,0.0,0.0,-1.9498,-2.1184,-2.1288,-2.0632,-2.0487,-2.0922,-2.0111,-1.9426,-1.8893,-1.8642,-1.8269,-1.7765,-1.6538,-1.5941,-1.5769,-1.4195,-1.3447,-1.334,-1.3125,-1.3408,-1.4057,-1.5007,-1.6202,-1.7585,-1.8401,-1.8833,-1.892,-1.6522,-1.6522,-1.6522,-1.6522,-1.6522,-1.6522,-1.6522,-1.6522,-1.6522,-1.6522,-1.6522,-1.6281,-1.5676,-1.5588,-1.5129,-1.3909,-1.4641,-1.4915,-1.4329,-1.5152,-1.5511,-1.5186,-1.5186,-1.5186,-1.5186,-1.4606,-1.4014,-1.3372,-1.3372,-1.3238,-1.2929,-1.3505,-1.4097,-1.4744,-1.532,-1.5964,-1.6522,-1.6522,-1.7105,-1.8171,-1.9053,-2.0247,-2.1586,-2.2398,-2.2695,-2.2695,-2.2695,-2.2527,-2.2254,-2.2003,-2.1507,-2.0975,-2.0698,-2.0208,-1.969,-1.969,-1.969,-1.969,-1.969,-1.9332,-1.8779,-1.8302,-1.7857,-1.7584,-1.7678,-1.8031,-1.8353,-1.8423,-1.8876,-1.8959,-1.7961,-1.81,-1.8285,-1.8193,-1.815,-1.7826,-1.6983,-1.7783,0.0,-1.7966,-1.8737,-1.9512,-2.0057,-2.0343,-2.0114,-1.9137,-1.9948,0.0,-1.9457,-2.0637,-2.1218,-2.0988,-2.1582,-2.1823,-2.1582,-2.0748,-1.9954,-1.9214,-1.8983,-1.864,-1.8149,-1.701,-1.6389,-1.6076,-1.4337,-1.3542,-1.3435,-1.2849,-1.3008,-1.3696,-1.519,-1.61,-1.6836,-1.8307,-1.8585,-1.8267,-1.6637,-1.6637,-1.6595,-1.6522,-1.6522,-1.6522,-1.6522,-1.6522,-1.6522,-1.6522,-1.6522,-1.6238,-1.5543,-1.5454,-1.5005,-1.3779,-1.4154,-1.4201,-1.3684,-1.4329,-1.4663,-1.456,-1.456,-1.456,-1.456,-1.3956,-1.342,-1.2881,-1.2881,-1.2881,-1.2929,-1.342,-1.405,-1.4698,-1.5231,-1.5864,-1.6522,-1.6522,-1.7105,-1.8171,-1.9053,-2.0264,-2.1657,-2.246,-2.2822,-2.2848,-2.2797,-2.259,-2.2332,-2.2237,-2.1645,-2.1007,-2.0926,-2.033,-1.969,-1.9603,-1.9566,-1.9566,-1.9566,-1.9132,-1.8419,-1.7422,-1.7504,-1.7611,-1.6652,-1.7655,-1.8464,-1.7405,-1.8091,-1.8597,-1.785,-1.7937,-1.7952,-1.7444,-1.7171,-1.6855,-1.6357,0.0,-1.8728,-1.8139,-1.9761,-2.0622,-1.9919,-2.0275,-2.0692,-2.1013,-2.005,-2.0539,-2.303,-2.1347,-1.9899,-1.8993,-2.1233,-2.2186,-2.1685,-2.0943,-2.033,-1.9843,-1.9376,-1.8888,-1.8398,-1.7384,-1.6677,-1.6166,-1.4388,-1.3607,-1.3542,-1.2638,-1.2573,-1.3194,-1.5267,-1.5912,-1.5856,-1.8031,-1.8284,-1.7589,-1.7271,-1.7188,-1.7034,-1.6595,-1.6522,-1.6522,-1.6522,-1.6522,-1.6522,-1.6522,-1.6522,-1.6064,-1.4971,-1.4835,-1.4329,-1.3152,-1.3104,-1.3152,-1.3065,-1.4061,-1.4468,-1.3956,-1.3956,-1.3956,-1.3956,-1.3334,-1.2968,-1.2881,-1.2881,-1.2881,-1.2881,-1.3027,-1.361,-1.4698,-1.4789,-1.5478,-1.6522,-1.6522,-1.7105,-1.8171,-1.9053,-2.0366,-2.1927,-2.2803,-2.33,-2.3522,-2.3212,-2.2923,-2.2556,-2.1907,-2.1399,-2.0926,-2.0516,-2.007,-1.9603,-1.9169,-1.9006,-1.9006,-1.9006,-1.8302,-1.7394,-1.6795,-1.668,-1.6811,-1.7083,-1.7719,-1.8285,-1.8521,-1.9111,-1.9531,-1.9484,-1.9526,-1.9138,-1.7852,-1.8128,-1.7625,-1.5255,0.0,-1.875,-1.7643,-1.8756,-1.9726,-2.0025,-2.0568,-2.1133,-2.1625,-2.2699,-2.2572,-2.0839,-2.224,-2.2078,-1.9883,-2.1948,-2.2729,-2.204,-2.1881,-2.158,-2.1024,-2.0473,-1.9899,-1.9428,-1.8054,-1.7104,-1.6364,-1.4421,-1.3765,-1.3898,-1.2748,-1.2739,-1.3469,-1.4364,-1.5256,-1.6232,-1.7564,-1.8093,-1.8154,-1.7435,-1.7312,-1.7105,-1.6595,-1.6522,-1.6522,-1.6522,-1.6522,-1.6522,-1.6522,-1.6522,-1.6064,-1.4835,-1.4698,-1.4201,-1.3017,-1.2881,-1.2881,-1.2881,-1.343,-1.361,-1.3334,-1.3334,-1.3334,-1.3334,-1.3065,-1.2881,-1.2881,-1.2881,-1.2881,-1.2929,-1.3238,-1.3884,-1.4698,-1.5062,-1.5688,-1.6522,-1.6522,-1.7105,-1.8171,-1.9053,-2.0415,-2.1993,-2.2877,-2.33,-2.3414,-2.3277,-2.289,-2.2419,-2.2073,-2.1538,-2.0959,-2.0764,-2.0243,-1.9639,-1.9406,-1.893,-1.8419,-1.8145,-1.7666,-1.7146,-1.6637,-1.6522,-1.6552,-1.6795,-1.7504,-1.8249,-1.876,-1.9224,-1.9626,-1.9892,-1.9796,-1.9197,-1.7626,-1.7636,0.0,0.0,-1.6727,-1.7745,-1.705,-1.8224,-1.9295,-1.9874,-2.0588,-2.1393,-2.2374,-2.3529,-2.3707,-2.2574,-2.3543,-2.3657,-2.2609,-2.3091,-2.3106,-2.2599,-2.2057,-2.1738,-2.1654,-2.0607,-1.9942,-1.963,-1.826,-1.6946,-1.5736,-1.4055,-1.3363,-1.3403,-1.2392,-1.2456,-1.3293,-1.4169,-1.5034,-1.5988,-1.7138,-1.7849,-1.8292,-1.7652,-1.7504,-1.7271,-1.6637,-1.6522,-1.6522,-1.6522,-1.6522,-1.6522,-1.6522,-1.6522,-1.6064,-1.4835,-1.4698,-1.4201,-1.3017,-1.2881,-1.2881,-1.2881,-1.2881,-1.2881,-1.2881,-1.2881,-1.2881,-1.2881,-1.2881,-1.2978,-1.3104,-1.3104,-1.32,-1.3344,-1.3779,-1.4329,-1.4926,-1.541,-1.5964,-1.6522,-1.6522,-1.7105,-1.8171,-1.9053,-2.0415,-2.1993,-2.2778,-2.3165,-2.33,-2.3141,-2.2781,-2.236,-2.2192,-2.1615,-2.0991,-2.0862,-2.0296,-1.969,-1.9566,-1.8727,-1.7787,-1.7271,-1.7118,-1.7034,-1.6595,-1.6522,-1.6522,-1.6522,-1.7353,-1.8235,-1.8717,-1.9236,-1.9765,-2.0283,-2.0009,-1.924,-1.7748,0.0,0.0,0.0,-1.6436,-1.708,-1.7058,-1.8036,-1.8987,-1.9568,-2.0461,-2.1482,-2.263,-2.3639,-2.4284,-2.4495,-2.4508,-2.4644,-2.4886,-2.4185,-2.3619,-2.3254,-2.2375,-2.2013,-2.212,-2.0567,-1.9714,-1.9413,-1.7806,-1.6352,-1.4974,-1.3399,-1.2764,-1.2868,-1.2014,-1.2175,-1.3008,-1.4178,-1.4989,-1.5638,-1.6991,-1.7872,-1.8419,-1.8375,-1.8027,-1.7706,-1.668,-1.6522,-1.6522,-1.6522,-1.6522,-1.6522,-1.6522,-1.6522,-1.6064,-1.4835,-1.4698,-1.4201,-1.3017,-1.2881,-1.2881,-1.2881,-1.2881,-1.2881,-1.2881,-1.2881,-1.2881,-1.2881,-1.2881,-1.3152,-1.3732,-1.3732,-1.4003,-1.4571,-1.4606,-1.4971,-1.5543,-1.5588,-1.5964,-1.6522,-1.6522,-1.7105,-1.8171,-1.9053,-2.0415,-2.1966,-2.2522,-2.3117,-2.3566,-2.2972,-2.2721,-2.2565,-2.1861,-2.1368,-2.0926,-2.0483,-2.007,-1.9603,-1.9095,-1.8224,-1.7229,-1.671,-1.6552,-1.6552,-1.6522,-1.6522,-1.6522,-1.6522,-1.7353,-1.8235,-1.8717,-1.9546,-2.0505,-2.1318,-2.0907,-2.0036,-1.8876,0.0,0.0,-1.689,-1.7075,-1.7576,-1.8351,-1.8328,-1.8478,-1.9021,-2.0237,-2.1249,-2.1841,-2.3309,-2.4284,-2.4495,-2.4557,-2.4778,-2.5155,-2.4866,-2.4449,-2.3931,-2.3536,-2.3041,-2.2457,-2.0789,-1.9506,-1.863,-1.6437,-1.5032,-1.4195,-1.2565,-1.2284,-1.2868,-1.2014,-1.2175,-1.3027,-1.4244,-1.5034,-1.5686,-1.7494,-1.8482,-1.8933,-1.8305,-1.7827,-1.7394,-1.6637,-1.6522,-1.6522,-1.6522,-1.6522,-1.6522,-1.6522,-1.6522,-1.6064,-1.4835,-1.4698,-1.4201,-1.3017,-1.2881,-1.2881,-1.2881,-1.2881,-1.2881,-1.2881,-1.2881,-1.3055,-1.3467,-1.3467,-1.3552,-1.3815,-1.3815,-1.3909,-1.4143,-1.4514,-1.5017,-1.5632,-1.6008,-1.6281,-1.6522,-1.6522,-1.6909,-1.7693,-1.8943,-2.0118,-2.1272,-2.2319,-2.2873,-2.3045,-2.2797,-2.2599,-2.2354,-2.179,-2.1337,-2.0926,-2.0449,-2.0019,-1.9603,-1.9043,-1.8612,-1.8106,-1.7229,-1.6752,-1.6522,-1.6522,-1.6522,-1.6595,-1.6909,-1.7585,-1.8377,-1.9459,-2.0252,-2.1054,-2.2085,-2.2041,-2.1302,-1.9584,0.0,-1.9136,-1.717,-1.7446,-1.8096,-1.8706,-1.8699,-1.9171,-2.0469,-2.1277,-2.1957,-2.2611,-2.343,-2.3981,-2.4174,-2.4529,-2.4775,-2.4892,-2.4825,-2.4626,-2.4257,-2.3258,-2.2667,-2.2469,-2.0242,-1.8716,-1.7798,-1.61,-1.4055,-1.1912,-1.1819,-1.1797,-1.1775,-1.1696,-1.2556,-1.3818,-1.3926,-1.4789,-1.6002,-1.6599,-1.7618,-1.879,-1.8266,-1.7666,-1.7105,-1.6595,-1.6522,-1.6522,-1.6522,-1.6522,-1.6522,-1.6522,-1.6522,-1.6107,-1.5107,-1.4971,-1.4514,-1.3286,-1.32,-1.3104,-1.2929,-1.2881,-1.2881,-1.2881,-1.2881,-1.32,-1.3779,-1.3589,-1.3695,-1.4097,-1.3909,-1.392,-1.4097,-1.4698,-1.5186,-1.5632,-1.6238,-1.6522,-1.6522,-1.6522,-1.6795,-1.7409,-1.8697,-1.981,-2.0813,-2.1916,-2.2512,-2.2695,-2.2599,-2.2463,-2.2237,-2.1928,-2.1446,-2.0926,-2.0616,-2.0139,-1.9603,-1.9043,-1.8779,-1.8458,-1.7544,-1.6909,-1.6522,-1.6522,-1.6522,-1.6637,-1.7188,-1.7706,-1.8493,-1.9917,-2.0635,-2.1336,-2.2495,-2.2504,-2.1927,-2.0586,-2.048,-1.9885,-1.7959,-1.7876,-1.8254,-1.8833,-1.8822,-1.9391,-2.1053,-2.1663,-2.2177,-2.2776,-2.3163,-2.3533,-2.3913,-2.3884,-2.3807,-2.3698,-2.3274,-2.3145,-2.3352,-2.2625,-2.2074,-2.1677,-1.8852,-1.6958,-1.5971,-1.4236,-1.229,-1.0225,-1.054,-1.0705,-1.0799,-1.1322,-1.248,-1.3951,-1.3991,-1.5037,-1.6457,-1.6508,-1.7622,-1.898,-1.8349,-1.7666,-1.7105,-1.6595,-1.6522,-1.6522,-1.6522,-1.6522,-1.6522,-1.6522,-1.6522,-1.6281,-1.5676,-1.5588,-1.5129,-1.3909,-1.3826,-1.3552,-1.2978,-1.2881,-1.2881,-1.2881,-1.2881,-1.32,-1.3779,-1.3238,-1.3478,-1.4698,-1.4097,-1.4097,-1.4698,-1.532,-1.5588,-1.5632,-1.6238,-1.6522,-1.6522,-1.6466,-1.6795,-1.7381,-1.8373,-1.9562,-2.075,-2.1348,-2.2046,-2.2643,-2.2415,-2.231,-2.231,-2.2282,-2.1721,-2.0991,-2.0991,-2.0413,-1.9603,-1.9043,-1.8535,-1.7987,-1.7463,-1.6909,-1.6522,-1.6522,-1.6522,-1.6637,-1.7188,-1.7706,-1.8478,-1.9917,-2.0635,-2.1336,-2.2495,-2.2114,-2.1731,-2.2056,-2.0806,-1.9714,-1.9443,-1.8408,-1.7997,-1.8809,-1.8602,-1.8935,-2.0285,-2.1129,-2.1707,-2.1965,-2.2342,-2.2932,-2.3733,-2.2477,-2.1639,-2.1425,-1.9914,-1.9717,-2.0952,-2.1683,-2.1361,-1.9978,-1.6549,-1.4219,-1.2947,-1.051,-0.9445,-0.9535,-0.8586,-0.8882,-1.0134,-1.0806,-1.1848,-1.3086,-1.4546,-1.5879,-1.7074,-1.7686,-1.87,-1.9695,-1.7707,-1.7118,-1.668,-1.6522,-1.6522,-1.6522,-1.6522,-1.6522,-1.6522,-1.6522,-1.6522,-1.6281,-1.5676,-1.5588,-1.5276,-1.4514,-1.4422,-1.4201,-1.3552,-1.3152,-1.2881,-1.2881,-1.3334,-1.3826,-1.4422,-1.4247,-1.4107,-1.405,-1.3909,-1.3909,-1.4097,-1.4698,-1.5186,-1.5632,-1.6238,-1.6522,-1.6466,-1.6051,-1.6225,-1.6782,-1.7357,-1.8469,-1.9878,-2.0719,-2.1606,-2.2398,-2.2321,-2.231,-2.2237,-2.1928,-2.1446,-2.0894,-2.0277,-1.9925,-1.9603,-1.9043,-1.8779,-1.8458,-1.7544,-1.7188,-1.6951,-1.6595,-1.6522,-1.6752,-1.7666,-1.7987,-1.8608,-2.0403,-2.0878,-2.1411,-2.2788,-2.2876,-2.2721,-2.2747,-2.1554,-2.0513,-2.009,-1.8937,-1.8489,-1.9471,-1.9518,-1.9806,-2.0724,-2.0914,-2.0904,-2.0756,-1.9846,-1.9908,-2.1267,-1.7804,-1.5302,-1.4303,-1.2264,-1.0393,-0.8704,-1.4151,-1.8707,-2.2169,-1.6464,-1.3357,-1.2641,-1.1088,-0.9811,-0.8705,-0.8,-0.7788,-0.8143,-1.0228,-1.2577,-1.4864,-1.5454,-1.6455,-1.7618,-1.7661,-1.8254,-1.8927,-1.7435,-1.7034,-1.6752,-1.6552,-1.6522,-1.6522,-1.6522,-1.6522,-1.6522,-1.6522,-1.6522,-1.638,-1.6008,-1.5952,-1.5732,-1.5096,-1.4835,-1.456,-1.419,-1.3789,-1.3695,-1.3967,-1.4329,-1.4457,-1.4329,-1.4107,-1.392,-1.3815,-1.3815,-1.3815,-1.3815,-1.4641,-1.5231,-1.5632,-1.6238,-1.638,-1.6139,-1.5764,-1.5688,-1.5864,-1.6557,-1.7596,-1.8914,-2.0113,-2.1163,-2.2032,-2.2237,-2.218,-2.1974,-2.1688,-2.1197,-2.055,-1.9681,-1.9369,-1.9244,-1.8496,-1.8263,-1.8066,-1.7229,-1.6993,-1.6909,-1.6595,-1.668,-1.7034,-1.7907,-1.8263,-1.8925,-2.0634,-2.0991,-2.133,-2.238,-2.2635,-2.2718,-2.265,-2.1462,-2.0459,-2.0296,-1.8825,-1.8134,-1.9154,-1.9148,-1.941,-2.0293,-2.0051,-1.934,-1.8141,-1.771,-1.7167,-1.6402,-1.1299,-0.8196,-0.7698,-0.4864,-0.2693,-0.1329,-0.4185,-0.8473,-1.3973,-1.0084,-0.8032,-0.762,-0.6772,-0.6234,-0.5899,-0.5361,-0.5931,-0.7387,-0.9819,-1.2327,-1.4696,-1.5756,-1.6808,-1.7804,-1.7955,-1.8489,-1.9097,-1.7476,-1.7353,-1.7146,-1.668,-1.6522,-1.6522,-1.6522,-1.6522,-1.6522,-1.6522,-1.6522,-1.6522,-1.6522,-1.6522,-1.6281,-1.572,-1.5152,-1.4789,-1.4789,-1.4744,-1.4971,-1.5499,-1.5543,-1.4994,-1.3909,-1.3334,-1.3286,-1.3815,-1.3815,-1.3815,-1.3815,-1.4994,-1.5499,-1.5454,-1.6064,-1.6008,-1.5543,-1.5454,-1.5141,-1.4789,-1.5828,-1.6853,-1.7932,-1.9491,-2.0653,-2.1552,-2.2061,-2.1928,-2.1521,-2.1491,-2.0927,-2.0093,-1.9177,-1.8855,-1.8612,-1.7585,-1.7312,-1.7188,-1.6637,-1.6522,-1.6522,-1.6522,-1.6951,-1.7504,-1.7987,-1.8496,-1.9273,-2.0649,-2.0959,-2.1124,-2.1464,-2.1785,-2.2011,-2.2078,-2.0838,-1.9948,-2.0213,-1.8424,-1.7378,-1.8135,-1.7942,-1.8115,-1.9008,-1.8533,-1.7126,-1.4627,-1.5651,-1.4409,-0.9867,-0.366,-0.0485,-0.1024,0.2732,0.4394,0.3659,0.7376,0.616,0.0064,-0.0051,0.0126,0.0563,0.0661,-0.0,-0.1395,-0.1548,-0.3734,-0.7364,-0.9515,-1.1458,-1.3356,-1.5651,-1.7034,-1.7797,-1.8555,-1.9202,-1.9798,-1.8029,-1.7585,-1.7271,-1.7146,-1.6795,-1.6522,-1.6522,-1.6522,-1.6522,-1.6522,-1.6522,-1.6522,-1.6522,-1.6522,-1.6436,-1.6337,-1.5732,-1.541,-1.541,-1.4971,-1.4744,-1.488,-1.488,-1.4789,-1.4514,-1.4387,-1.4154,-1.3815,-1.3815,-1.3815,-1.3815,-1.4549,-1.4652,-1.4226,-1.4835,-1.5017,-1.488,-1.4411,-1.4376,-1.4698,-1.496,-1.5948,-1.7384,-1.8645,-1.9708,-2.062,-2.1444,-2.146,-2.1086,-2.0715,-2.0215,-1.9656,-1.9066,-1.8612,-1.8145,-1.7504,-1.7312,-1.7188,-1.6637,-1.6522,-1.6522,-1.6522,-1.7229,-1.7947,-1.8066,-1.8496,-1.9214,-2.0246,-2.0748,-2.1032,-2.1116,-2.1607,-2.2011,-2.2078,-2.1025,-2.0294,-2.0546,-1.9134,-1.7923,-1.7497,-1.7356,-1.7237,-1.6993,-1.6001,-1.4295,-1.1766,-1.219,-1.0178,-0.4715,0.2519,0.7177,0.8685,1.2916,1.5816,1.715,1.73,1.1745,0.0734,0.3377,0.4714,0.4906,0.4961,0.4801,0.429,0.1257,-0.2155,-0.5751,-0.9085,-1.1798,-1.4064,-1.6476,-1.7797,-1.8555,-1.9307,-1.9643,-1.9631,-1.7801,-1.7504,-1.7229,-1.6951,-1.668,-1.6522,-1.6522,-1.6522,-1.6522,-1.6522,-1.6522,-1.6522,-1.6522,-1.6522,-1.6522,-1.6522,-1.6194,-1.6051,-1.6051,-1.5454,-1.5242,-1.5567,-1.5287,-1.5152,-1.5152,-1.5152,-1.4824,-1.4236,-1.4236,-1.4236,-1.4236,-1.456,-1.4514,-1.4236,-1.456,-1.4514,-1.4236,-1.3909,-1.3956,-1.4283,-1.456,-1.5528,-1.6866,-1.8021,-1.9023,-1.9982,-2.0669,-2.0814,-2.055,-1.9884,-1.9456,-1.9111,-1.8366,-1.7947,-1.7626,-1.7076,-1.6909,-1.6879,-1.6595,-1.6522,-1.6522,-1.6522,-1.7118,-1.7787,-1.8027,-1.8688,-1.95,-2.0177,-2.0483,-2.0687,-2.0749,-2.1139,-2.1436,-2.1361,-2.0416,-1.9597,-1.9338,-1.8108,-1.6921,-1.6095,-1.6009,-1.5624,-1.4722,-1.3144,-1.1345,-0.9372,-0.9152,-0.6716,-0.1246,0.62,1.0932,1.2326,1.7377,2.0698,2.2054,2.2124,1.8508,1.1348,1.0745,0.9891,0.8907,0.8551,0.7596,0.616,0.4115,0.0072,-0.5323,-0.9814,-1.2375,-1.3793,-1.6146,-1.7523,-1.8286,-1.898,-1.9475,-1.9579,-1.7612,-1.7422,-1.7229,-1.6837,-1.6637,-1.6522,-1.6522,-1.6522,-1.6522,-1.6522,-1.6522,-1.6522,-1.6522,-1.6522,-1.6522,-1.6522,-1.6522,-1.6423,-1.6293,-1.5964,-1.5908,-1.6324,-1.5964,-1.5764,-1.5764,-1.5764,-1.541,-1.4698,-1.4698,-1.4663,-1.456,-1.456,-1.4479,-1.4387,-1.4387,-1.4107,-1.3637,-1.3779,-1.3815,-1.3862,-1.456,-1.5443,-1.6378,-1.7464,-1.845,-1.9302,-1.9878,-2.015,-2.0058,-1.9177,-1.8779,-1.8458,-1.7585,-1.7312,-1.7188,-1.6752,-1.671,-1.6752,-1.6752,-1.671,-1.6637,-1.6637,-1.6951,-1.7435,-1.7867,-1.8727,-1.9536,-1.9849,-2.0058,-2.0182,-2.0136,-2.0442,-2.0567,-2.0303,-1.9467,-1.8563,-1.7789,-1.6692,-1.5641,-1.4676,-1.4318,-1.3737,-1.257,-1.0647,-0.8858,-0.7553,-0.6841,-0.432,0.0656,0.818,1.2577,1.3049,1.9219,2.2752,2.3192,2.4396,2.4351,2.2989,1.8497,1.4863,1.2193,1.1332,0.9376,0.6513,0.6339,0.2179,-0.4962,-1.0676,-1.3028,-1.3243,-1.5603,-1.6922,-1.7688,-1.8447,-1.915,-1.9579,-1.8559,-1.7947,-1.7626,-1.7867,-1.7105,-1.6522,-1.6522,-1.6522,-1.6522,-1.6522,-1.6522,-1.6522,-1.6522,-1.6522,-1.6522,-1.6522,-1.6522,-1.6207,-1.5534,-1.602,-1.6194,-1.5732,-1.6139,-1.638,-1.638,-1.638,-1.5832,-1.4698,-1.4698,-1.4422,-1.3909,-1.3909,-1.3647,-1.3152,-1.3152,-1.3113,-1.3065,-1.36,-1.3815,-1.3909,-1.505,-1.5588,-1.584,-1.6941,-1.749,-1.78,-1.9178,-1.9677,-1.9621,-1.9066,-1.8302,-1.7504,-1.7353,-1.7312,-1.7312,-1.7188,-1.7504,-1.7867,-1.7867,-1.7544,-1.7188,-1.7188,-1.7229,-1.7312,-1.7394,-1.7867,-1.8327,-1.8405,-1.9096,-1.9481,-1.8823,-1.9248,-1.959,-1.9327,-1.8644,-1.7937,-1.7276,-1.669,-1.5707,-1.4122,-1.288,-1.1904,-1.1157,-0.9703,-0.8252,-0.6848,-0.6282,-0.421,-0.0055,0.8623,1.3449,1.3345,2.0988,2.5001,2.479,2.6099,2.5848,2.3996,2.1895,1.848,1.3946,1.2613,1.0375,0.7528,0.668,0.2931,-0.3087,-1.0139,-1.3008,-1.3243,-1.5603,-1.6922,-1.7688,-1.8447,-1.915,-1.9475,-1.7935,-1.7626,-1.7463,-1.7626,-1.7353,-1.7118,-1.7118,-1.6752,-1.6522,-1.6522,-1.6522,-1.6522,-1.6522,-1.6522,-1.6522,-1.6522,-1.6522,-1.6337,-1.5976,-1.5964,-1.6051,-1.6095,-1.6051,-1.6151,-1.6466,-1.6522,-1.6064,-1.5186,-1.488,-1.456,-1.4283,-1.36,-1.3152,-1.2881,-1.2881,-1.3104,-1.342,-1.3684,-1.4179,-1.4858,-1.5398,-1.582,-1.6139,-1.6655,-1.7034,-1.7422,-1.8416,-1.876,-1.8646,-1.7773,-1.7395,-1.7229,-1.6912,-1.705,-1.7422,-1.7972,-1.8324,-1.8478,-1.8478,-1.809,-1.7626,-1.7381,-1.7076,-1.6837,-1.6837,-1.7034,-1.7394,-1.7987,-1.8468,-1.8749,-1.863,-1.8891,-1.8937,-1.8454,-1.8143,-1.7581,-1.6384,-1.5768,-1.4892,-1.3467,-1.207,-1.1116,-1.0813,-0.8835,-0.7272,-0.6642,-0.5677,-0.3434,0.0384,0.8694,1.3706,1.4591,2.146,2.5084,2.4925,2.5893,2.5643,2.4202,2.2178,1.9248,1.5446,1.4371,1.1931,0.8519,0.6243,0.2437,-0.2734,-0.967,-1.2696,-1.3183,-1.5148,-1.6585,-1.7743,-1.8874,-1.9527,-1.9527]},{"header":{"parameterUnit":"m.s-1","parameterCategory":1,"la1":30.6,"la2":28.766,"lo1":-90.7593,"lo2":-88.6598,"dy":0.0162,"dx":0.0183,"nx":116,"ny":114,"refTime":"2023-08-16T06:00:00:Z","depth":0,"parameterNumber":3,"parameterNumberName":"V-component_of_WINDS"},"data":[0.0,0.0,0.0,0.0,0.0,0.0,0.0,0.0,0.0,0.0,0.0,0.0,0.0,0.0,0.0,0.0,0.0,0.0,0.0,0.0,0.0,0.0,0.0,0.0,0.0,0.0,0.0,0.0,0.0,0.0,0.0,0.0,0.0,0.0,0.0,0.0,0.0,0.0,0.0,0.0,0.0,0.0,0.0,0.0,0.0,0.0,0.0,0.0,0.0,0.0,0.0,0.0,0.0,0.0,0.0,0.0,0.0,0.0,0.0,0.0,0.0,0.0,0.0,0.0,0.0,0.0,0.0,0.0,0.0,0.0,0.0,0.0,0.0,0.0,0.0,0.0,0.0,0.0,0.0,0.0,0.0,0.0,0.0,0.0,0.0,0.0,0.0,0.0,0.0,0.0,0.0,0.0,0.0,0.0,0.0,0.0,0.0,0.0,0.0,0.0,0.0,0.0,0.0,0.0,0.0,0.0,0.0,0.0,0.0,0.0,0.0,0.0,0.0,0.0,0.0,0.0,0.0,0.0,0.0,0.0,0.0,0.0,0.0,0.0,0.0,0.0,0.0,0.0,0.0,0.0,0.0,0.0,0.0,0.0,0.0,0.0,0.0,0.0,0.0,0.0,0.0,0.0,0.0,0.0,0.0,0.0,0.0,0.0,0.0,0.0,0.0,0.0,0.0,0.0,0.0,0.0,0.0,0.0,0.0,0.0,0.0,0.0,0.0,0.0,0.0,0.0,0.0,0.0,0.0,0.0,0.0,0.0,0.0,0.0,0.0,0.0,0.0,0.0,0.0,0.0,0.0,0.0,0.0,0.0,0.0,0.0,0.0,0.0,0.0,0.0,0.0,0.0,0.0,0.0,0.0,0.0,0.0,0.0,0.0,0.0,0.0,0.0,0.0,0.0,0.0,0.0,0.0,0.0,0.0,0.0,0.0,0.0,0.0,0.0,0.0,0.0,0.0,0.0,0.0,0.0,0.0,0.0,0.0,0.0,0.0,0.0,0.0,0.0,0.0,0.0,0.0,0.0,0.0,0.0,0.0,0.0,0.0,0.0,0.0,0.0,0.0,0.0,0.0,0.0,0.0,0.0,0.0,0.0,0.0,0.0,0.0,0.0,0.0,0.0,0.0,0.0,0.0,0.0,0.0,0.0,0.0,0.0,0.0,0.0,0.0,0.0,0.0,0.0,0.0,0.0,0.0,0.0,0.0,0.0,0.0,0.0,0.0,0.0,0.0,0.0,0.0,0.0,0.0,0.0,0.0,0.0,0.0,0.0,0.0,0.0,0.0,0.0,0.0,0.0,0.0,0.0,0.0,0.0,0.0,0.0,0.0,0.0,0.0,0.0,0.0,0.0,0.0,0.0,0.0,0.0,0.0,0.0,0.0,0.0,0.0,0.0,0.0,0.0,0.0,0.0,0.0,0.0,0.0,0.0,0.0,0.0,0.0,0.0,0.0,0.0,0.0,0.0,0.0,0.0,0.0,0.0,0.0,0.0,0.0,0.0,0.0,0.0,0.0,0.0,0.0,0.0,0.0,0.0,0.0,0.0,0.0,0.0,0.0,0.0,0.0,0.0,0.0,0.0,0.0,0.0,0.0,0.0,0.0,0.0,0.0,0.0,0.0,0.0,0.0,0.0,0.0,0.0,0.0,0.0,0.0,0.0,0.0,0.0,0.0,0.0,0.0,0.0,0.0,0.0,0.0,0.0,0.0,0.0,0.0,0.0,0.0,0.0,0.0,0.0,0.0,0.0,0.0,0.0,0.0,0.0,0.0,0.0,0.0,0.0,0.0,0.0,0.0,0.0,0.0,0.0,0.0,0.0,0.0,0.0,0.0,0.0,0.0,0.0,0.0,0.0,0.0,0.0,0.0,0.0,0.0,0.0,0.0,0.0,0.0,0.0,0.0,0.0,0.0,0.0,0.0,0.0,0.0,0.0,0.0,0.0,0.0,0.0,0.0,0.0,0.0,0.0,0.0,0.0,0.0,0.0,0.0,0.0,0.0,0.0,0.0,0.0,0.0,0.0,0.0,0.0,0.0,0.0,0.0,0.0,0.0,0.0,0.0,0.0,0.0,0.0,0.0,0.0,0.0,0.0,0.0,0.0,0.0,0.0,0.0,0.0,0.0,0.0,0.0,0.0,0.0,0.0,0.0,0.0,0.0,0.0,0.0,0.0,0.0,0.0,0.0,0.0,0.0,0.0,0.0,0.0,0.0,0.0,0.0,0.0,0.0,0.0,0.0,0.0,0.0,0.0,0.0,0.0,0.0,0.0,0.0,0.0,0.0,0.0,0.0,0.0,0.0,0.0,0.0,0.0,0.0,0.0,0.0,0.0,0.0,0.0,0.0,0.0,0.0,0.0,0.0,0.0,0.0,0.0,0.0,0.0,0.0,0.0,0.0,0.0,0.0,0.0,0.0,0.0,0.0,0.0,0.0,0.0,0.0,0.0,0.0,0.0,0.0,0.0,0.0,0.0,0.0,0.0,0.0,0.0,0.0,0.0,0.0,0.0,0.0,0.0,0.0,0.0,0.0,0.0,0.0,0.0,0.0,0.0,0.0,0.0,0.0,0.0,0.0,0.0,0.0,0.0,0.0,0.0,0.0,0.0,0.0,0.0,0.0,0.0,0.0,0.0,0.0,0.0,0.0,0.0,0.0,0.0,0.0,0.0,0.0,0.0,0.0,0.0,0.0,0.0,0.0,0.0,0.0,0.0,0.0,0.0,0.0,0.0,0.0,0.0,0.0,0.0,0.0,0.0,0.0,0.0,0.0,0.0,0.0,0.0,0.0,0.0,0.0,0.0,0.0,0.0,0.0,0.0,0.0,0.0,0.0,0.0,0.0,0.0,0.0,0.0,0.0,0.0,0.0,0.0,0.0,0.0,0.0,0.0,0.0,0.0,0.0,0.0,0.0,0.0,0.0,0.0,0.0,0.0,0.0,0.0,0.0,0.0,0.0,0.0,0.0,0.0,0.0,0.0,0.0,0.0,0.0,0.0,0.0,0.0,0.0,0.0,0.0,0.0,0.0,0.0,0.0,0.0,0.0,0.0,0.0,0.0,0.0,0.0,0.0,0.0,0.0,0.0,0.0,0.0,0.0,0.0,0.0,0.0,0.0,0.0,0.0,0.0,0.0,0.0,0.0,0.0,0.0,0.0,0.0,0.0,0.0,0.0,0.0,0.0,0.0,0.0,0.0,0.0,0.0,0.0,0.0,0.0,0.0,0.0,0.0,0.0,0.0,0.0,0.0,0.0,0.0,0.0,0.0,0.0,0.0,0.0,0.0,0.0,0.0,0.0,0.0,0.0,0.0,0.0,0.0,0.0,0.0,0.0,0.0,0.0,0.0,0.0,0.0,0.0,0.0,0.0,0.0,0.0,0.0,0.0,0.0,0.0,0.0,0.0,0.0,0.0,0.0,0.0,0.0,0.0,0.0,0.0,0.0,0.0,0.0,0.0,0.0,0.0,0.0,0.0,0.0,0.0,0.0,0.0,0.0,0.0,0.0,0.0,0.0,0.0,0.0,0.0,0.0,0.0,0.0,0.0,0.0,0.0,0.0,0.0,0.0,0.0,0.0,0.0,0.0,0.0,0.0,0.0,0.0,0.0,0.0,0.0,0.0,0.0,0.0,0.0,0.0,0.0,0.0,0.0,0.0,0.0,0.0,0.0,0.0,0.0,0.0,0.0,0.0,0.0,0.0,0.0,0.0,0.0,0.0,0.0,0.0,0.0,0.0,0.0,0.0,0.0,0.0,0.0,0.0,0.0,0.0,0.0,0.0,0.0,0.0,0.0,0.0,0.0,0.0,0.0,0.0,0.0,0.0,0.0,0.0,0.0,0.0,0.0,0.0,0.0,0.0,0.0,0.0,0.0,0.0,0.0,0.0,0.0,0.0,0.0,0.0,0.0,0.0,0.0,0.0,0.0,0.0,0.0,0.0,0.0,0.0,0.0,0.0,0.0,0.0,0.0,0.0,0.0,0.0,0.0,0.0,0.0,0.0,0.0,0.0,0.0,0.0,0.0,0.0,0.0,0.0,0.0,0.0,0.0,0.0,0.0,0.0,0.0,0.0,0.0,0.0,0.0,0.0,0.0,0.0,0.0,0.0,0.0,0.0,0.0,0.0,0.0,0.0,0.0,0.0,0.0,0.0,0.0,0.0,0.0,0.0,0.0,0.0,0.0,0.0,0.0,0.0,0.0,0.0,0.0,0.0,0.0,0.0,0.0,0.0,0.0,0.0,0.0,0.0,0.0,0.0,0.0,0.0,0.0,0.0,0.0,0.0,0.0,0.0,0.0,0.0,0.0,0.0,0.0,0.0,0.0,0.0,0.0,0.0,0.0,0.0,0.0,0.0,0.0,0.0,0.0,0.0,0.0,0.0,0.0,0.0,0.0,0.0,0.0,0.0,0.0,0.0,0.0,0.0,0.0,0.0,0.0,0.0,0.0,0.0,0.0,0.0,0.0,0.0,0.0,0.0,0.0,0.0,0.0,0.0,0.0,0.0,0.0,0.0,0.0,0.0,0.0,0.0,0.0,0.0,0.0,0.0,0.0,0.0,0.0,0.0,0.0,0.0,0.0,0.0,0.0,0.0,0.0,0.0,0.0,0.0,0.0,0.0,0.0,0.0,0.0,0.0,0.0,0.0,0.0,0.0,0.0,0.0,0.0,0.0,0.0,0.0,0.0,0.0,0.0,0.0,0.0,0.0,0.0,0.0,0.0,0.0,0.0,0.0,0.0,0.0,0.0,0.0,0.0,0.0,0.0,0.0,0.0,0.0,0.0,0.0,0.0,0.0,0.0,0.0,0.0,0.0,0.0,0.0,0.0,0.0,0.0,0.0,0.0,0.0,0.0,0.0,0.0,0.0,0.0,0.0,0.0,0.0,0.0,0.0,0.0,0.0,0.0,0.0,0.0,0.0,0.0,0.0,0.0,0.0,0.0,0.0,0.0,0.0,0.0,0.0,0.0,0.0,0.0,0.0,0.0,0.0,0.0,0.0,0.0,0.0,0.0,0.0,0.0,0.0,0.0,0.0,0.0,0.0,0.0,0.0,0.0,0.0,0.0,0.0,0.0,0.0,0.0,0.0,0.0,0.0,0.0,0.0,0.0,0.0,0.0,0.0,0.0,0.0,0.0,0.0,0.0,0.0,0.0,0.0,0.0,0.0,0.0,0.0,0.0,0.0,0.0,0.0,0.0,0.0,0.0,0.0,0.0,0.0,0.0,0.0,0.0,0.0,0.0,0.0,0.0,0.0,0.0,0.0,0.0,0.0,0.0,0.0,0.0,0.0,0.0,0.0,0.0,0.0,0.0,0.0,0.0,0.0,0.0,0.0,0.0,0.0,0.0,0.0,0.0,0.0,0.0,0.0,0.0,0.0,0.0,0.0,0.0,0.0,0.0,0.0,0.0,0.0,0.0,0.0,0.0,0.0,0.0,0.0,0.0,0.0,0.0,0.0,0.0,0.0,0.0,0.0,0.0,0.0,0.0,0.0,0.0,0.0,0.0,0.0,0.0,0.0,0.0,0.0,0.0,0.0,0.0,0.0,0.0,0.0,0.0,0.0,0.0,0.0,0.0,0.0,0.0,0.0,0.0,0.0,0.0,0.0,0.0,0.0,0.0,0.0,0.0,0.0,0.0,0.0,0.0,0.0,0.0,0.0,0.0,0.0,0.0,0.0,0.0,0.0,0.0,0.0,0.0,0.0,0.0,0.0,0.0,0.0,0.0,0.0,0.0,0.0,0.0,0.0,0.0,0.0,0.0,0.0,0.0,0.0,0.0,0.0,0.0,0.0,0.0,0.0,0.0,0.0,0.0,0.0,0.0,0.0,0.0,0.0,0.0,0.0,0.0,0.0,0.0,0.0,0.0,0.0,0.0,0.0,0.0,0.0,0.0,0.0,0.0,0.0,0.0,0.0,0.0,0.0,0.0,0.0,0.0,0.0,0.0,0.0,0.0,0.0,0.0,0.0,0.0,0.0,0.0,0.0,0.0,0.0,0.0,0.0,0.0,0.0,0.0,0.0,0.0,0.0,0.0,0.0,0.0,0.0,0.0,0.0,0.0,0.0,0.0,0.0,0.0,0.0,0.0,0.0,0.0,-1.0175,0.0,0.0,0.0,0.0,0.0,0.0,0.0,0.0,0.0,0.0,0.0,0.0,0.0,0.0,0.0,0.0,0.0,0.0,0.0,0.0,0.0,0.0,0.0,0.0,0.0,0.0,0.0,0.0,0.0,0.0,0.0,0.0,0.0,0.0,0.0,0.0,0.0,0.0,0.0,0.0,0.0,0.0,0.0,0.0,0.0,0.0,0.0,0.0,0.0,0.0,0.0,0.0,0.0,0.0,0.0,0.0,0.0,0.0,0.0,0.0,0.0,0.0,0.0,0.0,0.0,0.0,0.0,0.0,0.0,0.0,0.0,0.0,0.0,0.0,0.0,0.0,0.0,0.0,0.0,0.0,0.0,0.0,0.0,0.0,0.0,0.0,0.0,0.0,0.0,0.0,0.0,0.0,0.0,0.0,0.0,0.0,0.0,0.0,0.0,0.0,0.0,0.0,0.0,0.0,0.0,0.0,0.0,0.0,0.0,0.0,0.0,0.0,0.0,0.0,0.0,0.0,-1.189,0.0,0.0,0.0,0.0,0.0,0.0,0.0,0.0,0.0,0.0,0.0,0.0,0.0,0.0,0.0,0.0,0.0,0.0,0.0,0.0,0.0,0.0,0.0,0.0,0.0,0.0,0.0,0.0,0.0,0.0,0.0,0.0,0.0,0.0,0.0,0.0,0.0,0.0,0.0,0.0,0.0,0.0,0.0,0.0,0.0,0.0,0.0,0.0,0.0,0.0,0.0,0.0,0.0,0.0,0.0,0.0,0.0,0.0,0.0,0.0,0.0,0.0,0.0,0.0,0.0,0.0,0.0,0.0,0.0,0.0,0.0,0.0,0.0,0.0,0.0,0.0,0.0,0.0,0.0,0.0,0.0,0.0,0.0,0.0,0.0,0.0,0.0,0.0,0.0,0.0,0.0,0.0,0.0,0.0,0.0,0.0,0.0,0.0,0.0,0.0,0.0,0.0,0.0,0.0,0.0,0.0,0.0,0.0,-1.7087,-1.7288,-1.7412,-1.7634,-1.7905,-1.81,-1.636,-1.582,-1.6046,-1.5342,0.0,0.0,0.0,0.0,0.0,0.0,0.0,0.0,0.0,0.0,0.0,0.0,0.0,0.0,0.0,0.0,0.0,0.0,0.0,0.0,0.0,0.0,0.0,0.0,0.0,0.0,0.0,0.0,0.0,0.0,0.0,0.0,0.0,0.0,0.0,0.0,0.0,0.0,0.5325,0.6162,0.6848,0.7461,0.6698,0.0,0.0,0.0,0.0,0.0,0.0,0.0,0.0,0.0,0.0,0.0,0.0,0.0,0.0,0.0,0.0,0.0,0.0,0.0,0.0,0.0,0.0,0.0,0.0,0.0,0.0,0.0,0.0,0.0,0.0,0.0,0.0,0.0,0.0,0.0,0.0,0.0,0.0,0.0,0.0,0.0,0.0,0.0,-0.6863,-0.8907,0.0,0.0,0.0,0.0,0.0,0.0,0.0,0.0,0.0,0.0,0.0,0.0,0.0,-1.6448,-1.8903,-1.9676,-2.0818,-2.2354,-2.2746,-2.2522,-2.177,-2.1872,-2.1844,-2.1693,-2.1131,0.0,-1.9619,-1.8442,0.0,0.0,0.0,0.0,0.0,0.0,0.0,0.0,0.0,0.0,0.0,0.0,0.0,0.0,0.0,0.0,0.0,0.0,0.0,0.0,0.0,0.0,0.0,0.0,0.0,0.0,0.0,0.0,0.0,0.0,0.0,0.0,0.0,0.0,0.0,0.0,0.4328,0.4743,0.5292,0.598,0.6487,0.6736,0.6296,0.7384,0.9529,0.8961,0.0,0.0,0.0,0.0,0.0,0.0,0.0,0.0,0.0,0.0,0.0,0.0,0.0,0.0,0.0,0.0,0.0,0.0,0.0,0.0,0.0,0.0,0.0,0.0,0.0,0.0,0.0,0.0,0.0,0.0,0.0,0.0,0.0,0.0,0.0,0.0,0.0,0.0,0.0,-0.5096,-0.9507,-1.1343,-1.4001,-1.5209,0.0,0.0,0.0,0.0,0.0,0.0,0.0,0.0,0.0,-1.7534,-1.803,-1.9547,-2.2212,-2.2498,-2.324,-2.4414,-2.4557,-2.4343,-2.3852,-2.3874,-2.3827,-2.3743,-2.3592,-2.2991,-2.2086,-2.1348,-2.0998,-2.0828,0.0,0.0,0.0,0.0,-1.7038,-1.6109,0.0,0.0,0.0,0.0,0.0,0.0,0.0,0.0,0.0,0.0,0.0,0.0,0.0,0.0,0.0,0.1195,0.0,0.0,0.0,0.0,0.0,0.0,0.0,0.0,0.0,0.0,0.0,0.0,0.3999,0.4967,0.5611,0.6175,0.6573,0.6889,0.6889,0.7754,0.9207,0.8571,0.8712,0.0,0.0,0.0,0.0,0.0,0.0,0.0,0.0,0.0,0.0,0.0,0.0,0.0,0.0,0.0,0.0,0.0,0.0,0.0,0.0,0.0,0.0,0.0,0.0,0.0,0.0,0.0,0.0,0.0,0.0,0.0,0.0,0.0,0.0,0.0,0.0,0.0,0.0,-0.7191,-1.2035,-1.394,-1.7539,-1.9468,0.0,0.0,0.0,0.0,0.0,0.0,-1.7625,-1.8306,-1.9337,-2.0751,-2.1405,-2.2589,-2.4365,-2.4471,-2.4743,-2.5175,-2.5294,-2.5133,-2.4743,-2.4933,-2.4922,-2.4731,-2.4731,-2.4388,-2.3779,-2.3284,-2.2611,-2.1883,-2.2242,-2.1789,-2.0954,-2.0931,-2.0122,-1.9267,0.0,0.0,0.0,0.0,0.0,0.0,0.0,0.0,0.0,0.0,0.0,0.0,0.0,0.0,-0.2838,-0.2738,-0.0952,0.0488,0.0,0.0,0.0,0.0,0.0,0.0,0.0,0.0,0.0,0.3341,0.5183,0.6203,0.636,0.7227,0.7994,0.8652,0.8652,0.8249,0.7505,0.7538,0.7119,0.6698,0.0,0.0,0.0,0.0,0.0,0.0,0.0,0.0,0.0,0.0,0.0,0.0,0.0,0.0,0.0,0.0,0.0,0.0,0.0,0.0,0.0,0.0,0.0,0.0,0.0,0.0,0.0,0.0,0.0,0.0,0.0,0.0,0.0,0.0,0.0,0.0,0.0,0.0,0.0,-1.5348,-1.9785,0.0,0.0,0.0,0.0,-1.8726,-1.8771,-1.9273,-2.0176,-2.2505,-2.3898,-2.4064,-2.5618,-2.6128,-2.5438,-2.5255,-2.5147,-2.5114,-2.5747,-2.5512,-2.4549,-2.5314,-2.524,-2.4512,-2.4512,-2.4604,-2.4657,-2.3697,-2.3216,-2.3011,-2.2089,-2.1707,-2.1692,-2.199,-2.1621,-2.1243,0.0,0.0,0.0,0.0,0.0,0.0,0.0,0.0,0.0,0.0,0.0,0.0,0.0,-0.5407,-0.5499,-0.4456,-0.4548,-0.3552,-0.0855,0.0,0.0,0.0,0.0,0.0,0.0,0.0,-0.0082,0.0521,0.3024,0.5006,0.6411,0.7931,0.8806,0.9037,0.8708,0.809,0.7366,0.7519,0.6624,0.5086,0.3895,0.4895,0.0,0.0,0.0,0.0,0.0,0.0,0.0,0.0,0.0,0.0,0.0,0.0,0.0,0.0,0.0,0.0,0.0,0.0,0.0,0.0,0.0,0.0,0.0,0.0,0.0,0.0,0.0,0.0,0.0,0.0,0.0,0.0,0.0,0.0,0.0,0.0,0.0,-1.7723,-2.2324,0.0,-2.3753,-2.442,-2.4413,-2.32,-2.4195,-2.4996,-2.5341,-2.6224,-2.6459,-2.5927,-2.7036,-2.7133,-2.6084,-2.6008,-2.583,-2.554,-2.522,-2.4797,-2.4321,-2.4598,-2.458,-2.4321,-2.4444,-2.4545,-2.4588,-2.4351,-2.4253,-2.4178,-2.3695,-2.3582,-2.3713,-2.3834,-2.3426,-2.3036,0.0,0.0,0.0,0.0,0.0,0.0,0.0,0.0,0.0,0.0,0.0,-0.3454,-0.7032,-0.8207,-0.837,-0.7465,-0.7643,-0.613,-0.2084,0.0,0.0,0.0,0.0,0.0,0.0,-0.1067,-0.0747,-0.0953,0.2636,0.5099,0.653,0.8342,0.9183,0.9196,0.8658,0.8119,0.75,0.6046,0.447,0.2709,0.0287,0.1823,0.5462,0.0,0.0,0.0,0.0,0.0,0.0,0.0,0.0,0.0,0.0,0.0,0.0,0.0,0.0,0.0,0.0,0.0,0.0,0.0,0.0,0.0,0.0,0.0,0.0,0.0,0.0,0.0,0.0,0.0,0.0,0.0,0.0,0.0,0.0,0.0,-2.0246,-2.0967,-2.4803,-2.7152,-2.6569,-2.6853,-2.6822,-2.6255,-2.7639,-2.8352,-2.7991,-2.8502,-2.823,-2.7007,-2.751,-2.7437,-2.6691,-2.6054,-2.5761,-2.576,-2.5116,-2.4598,-2.4208,-2.4483,-2.4504,-2.4303,-2.4426,-2.4575,-2.4682,-2.4756,-2.4832,-2.4836,-2.4607,-2.4575,-2.47,-2.4775,-2.4555,-2.4316,0.0,0.0,0.0,0.0,0.0,0.0,0.0,0.0,0.0,0.0,-0.287,-0.5088,-0.8931,-1.0556,-1.1453,-1.1804,-0.9935,-0.682,-0.2337,-0.0991,0.0,0.0,0.0,0.0,-0.4313,-0.1632,-0.0339,-0.0688,0.4117,0.6518,0.6593,0.8325,0.9141,0.9098,0.8561,0.8242,0.7731,0.3034,0.0397,-0.0671,-0.0585,0.0041,0.1079,0.0,0.0,0.0,0.0,0.0,0.0,0.0,0.0,0.0,0.0,0.0,0.0,0.0,0.0,0.0,0.0,0.0,0.0,0.0,0.0,0.0,0.0,0.0,0.0,0.0,0.0,0.0,0.0,0.0,0.0,0.0,0.0,0.0,-1.8144,-2.1977,-2.4974,-2.5102,-2.715,-2.8553,-2.861,-2.8032,-2.7681,-2.77,-2.8699,-2.8872,-2.7823,-2.9304,-2.9326,-2.7401,-2.7313,-2.7264,-2.7196,-2.5454,-2.4961,-2.5689,-2.5465,-2.4942,-2.4226,-2.4997,-2.5023,-2.4495,-2.4495,-2.4678,-2.4955,-2.4855,-2.4864,-2.4943,-2.4636,-2.4512,-2.4545,-2.4731,-2.4877,-2.5053,0.0,0.0,0.0,0.0,0.0,0.0,0.0,0.0,0.0,0.0,-0.5181,-0.8212,-1.2612,-1.3895,-1.3896,-1.2609,-1.1008,-0.7964,-0.2957,0.0,0.0,0.0,0.0,0.0,-0.6532,-0.519,-0.3955,-0.2912,0.1696,0.4656,0.6128,0.726,0.7846,0.7805,0.735,0.6433,0.4813,-0.0498,-0.4267,-0.6818,-0.8158,-0.7009,-0.4692,0.0,0.0,0.0,0.0,0.0,0.0,0.0,0.0,0.0,0.0,0.0,0.0,0.0,0.0,0.0,0.0,0.0,0.0,0.0,0.0,0.0,0.0,0.0,0.0,0.0,0.0,0.0,0.0,0.0,0.0,0.0,0.0,-2.2738,-2.3543,-2.6064,-2.8409,-2.9938,-2.9885,-3.0104,-3.1034,-2.9899,-2.9371,-2.9962,-2.975,-2.9455,-2.917,-2.958,-2.9297,-2.8122,-2.8699,-2.8347,-2.699,-2.6487,-2.5987,-2.5483,-2.4834,-2.441,-2.4208,-2.4174,-2.4198,-2.4284,-2.4174,-2.4334,-2.4651,-2.476,-2.4746,-2.4636,-2.4526,-2.4575,-2.4731,-2.4775,-2.4975,-2.5243,0.0,0.0,0.0,0.0,0.0,0.0,0.0,0.0,0.0,0.0,-0.736,-1.0201,-1.3843,-1.423,-1.3731,-1.2436,-0.9974,-0.655,-0.2045,0.0,0.0,0.0,0.0,-0.9514,-0.9674,-0.8497,-0.6779,-0.448,-0.0323,0.2762,0.4923,0.6231,0.6644,0.6228,0.5417,0.3663,0.0907,-0.4856,-1.031,-1.5156,-1.6418,-1.4222,-1.0474,-1.2743,-1.1928,-0.9905,-1.2581,-1.4208,-1.5265,-1.6553,0.0,0.0,0.0,0.0,0.0,0.0,0.0,0.0,0.0,0.0,0.0,0.0,0.0,0.0,0.0,0.0,0.0,0.0,0.0,0.0,0.0,0.0,0.0,0.0,-2.373,-2.6141,-2.8327,-2.9373,-3.0497,-3.2089,-3.1313,-3.0837,-3.1262,-3.0239,-2.9683,-2.9994,-2.9547,-2.9325,-2.957,-2.9419,-2.9137,-2.8669,-2.8819,-2.8536,-2.7798,-2.6783,-2.6151,-2.5878,-2.474,-2.419,-2.419,-2.3996,-2.4016,-2.419,-2.4116,-2.4247,-2.4512,-2.4545,-2.4528,0.0,0.0,0.0,0.0,0.0,-2.5094,-2.537,0.0,0.0,0.0,0.0,0.0,0.0,0.0,0.0,0.0,0.0,0.0,-1.1265,-1.3496,-1.3027,-1.2326,-1.1739,-0.7888,-0.4064,0.0,0.0,0.0,-1.0727,-1.2047,-1.2836,-1.32,-1.1349,-0.8792,-0.565,-0.2157,0.0663,0.2987,0.4617,0.486,0.3784,0.2279,-0.0381,-0.4045,-1.012,-1.6922,-2.3555,-2.4388,-2.1336,-1.6504,-1.7969,-1.6639,-1.4271,-1.687,-1.7888,-1.8238,-2.0095,0.0,0.0,0.0,0.0,0.0,0.0,0.0,0.0,0.0,0.0,0.0,0.0,0.0,0.0,0.0,0.0,0.0,0.0,0.0,0.0,0.0,0.0,0.0,0.0,-2.6219,-2.9379,-3.2086,-3.1966,-3.186,-3.2661,-3.185,-3.1006,-3.0504,-2.9737,-2.9186,-2.8967,-2.868,-2.8746,-2.9251,0.0,0.0,0.0,0.0,-2.8227,-2.8847,-2.6649,-2.5841,-2.6447,-2.4924,-2.419,-2.419,-2.417,-2.417,-2.4208,-2.4113,-2.421,-2.4409,-2.4228,-2.4266,-2.4461,-2.4528,-2.4545,-2.461,-2.4991,-2.5256,-2.5428,0.0,0.0,0.0,0.0,0.0,0.0,0.0,0.0,0.0,-0.8334,-0.9762,-1.1383,-1.3752,-1.3671,-1.2938,-1.1715,-0.7762,-0.4577,0.0,0.0,-0.9101,-1.2707,-1.4496,-1.5508,-1.5695,-1.2857,-0.9976,-0.6998,-0.463,-0.246,-0.0502,0.0171,-0.0406,-0.2096,-0.4378,-0.7581,-1.1587,-1.6768,-2.1239,-2.5107,-2.8273,-2.7321,-2.4068,-2.5084,-2.4894,-2.4071,-2.4059,-2.3705,-2.3059,-2.1878,-2.1496,-2.1119,-1.8944,0.0,0.0,0.0,0.0,0.0,0.0,0.0,0.0,0.0,0.0,0.0,0.0,0.0,0.0,0.0,0.0,0.0,0.0,0.0,0.0,-2.7173,-2.9505,-3.1445,-3.2715,-3.3441,-3.4002,-3.4306,-3.2214,-3.1096,-3.1956,-3.0229,-2.9307,-2.9893,-2.8734,-2.821,-2.8578,-2.8529,-2.8639,-2.8994,-2.8847,-2.8539,-2.8044,-2.6924,-2.6117,-2.5623,0.0,0.0,-2.419,-2.3917,-2.3937,-2.417,-2.3628,-2.3588,-2.386,-2.3798,-2.3978,-2.4284,-2.4607,-2.4842,-2.5004,-2.5244,-2.5393,-2.5486,0.0,0.0,0.0,0.0,0.0,0.0,0.0,0.0,0.0,0.0,-0.891,-0.9411,-0.9585,-0.9124,-0.8138,-0.6492,-0.4978,0.0,0.0,-0.9242,-1.308,-1.7192,-1.7913,-1.8289,-1.8564,-1.5728,-1.3549,-1.2175,-0.9137,-0.7424,-0.6965,-0.7425,-0.837,-0.9702,-1.1598,-1.5206,-2.0109,-2.3644,-2.6915,-2.9896,-3.1995,-3.1663,-2.9751,-2.8922,-2.8133,-2.7285,-2.5678,-2.4561,-2.364,-2.2227,-2.149,-2.0944,-1.946,-1.8991,-1.8771,0.0,0.0,0.0,0.0,0.0,0.0,0.0,0.0,0.0,0.0,0.0,0.0,0.0,0.0,-2.3605,0.0,0.0,-2.7247,-2.8766,-3.0412,-3.1698,-3.2176,-3.2644,-3.3043,-3.3498,-3.2311,-3.1411,-3.1304,-2.9919,-2.9084,-2.9292,-2.807,-2.756,-2.8129,-2.8156,-2.8316,-2.8682,-2.8905,-2.8815,-2.8411,-2.72,-2.641,-2.5988,-2.4777,-2.4113,-2.3937,-2.3774,-2.3692,-2.3692,-2.3346,-2.33,-2.3459,-2.3631,-2.386,-2.4136,-2.4508,-2.4779,-2.498,-2.5293,-2.542,-2.5446,0.0,0.0,0.0,0.0,0.0,0.0,0.0,0.0,0.0,0.0,0.0,-0.7376,-0.5664,-0.4707,-0.3315,0.0,0.0,0.0,0.0,-1.2417,-1.6741,-2.154,-2.0942,-2.0677,-2.1031,-1.8638,-1.7383,-1.7367,-1.4069,-1.2853,-1.3669,-1.4903,-1.6166,-1.7518,-1.9107,-2.2782,-2.7863,-2.9974,-3.2339,-3.4672,-3.4759,-3.4211,-3.3063,-3.0323,-2.8666,-2.747,-2.4964,-2.3173,-2.1898,-2.1233,-2.0384,-1.9558,-1.9228,-1.9311,-1.9309,-1.8387,-1.8635,0.0,0.0,0.0,0.0,0.0,0.0,0.0,0.0,0.0,-2.2886,-2.4751,-2.6134,-2.7383,-2.8634,-2.9323,-2.9722,-2.9832,-3.0806,-3.1567,-3.1662,-3.1637,-3.1693,-3.2043,-3.2097,-3.1546,-3.0243,-2.9431,-2.8847,-2.8526,-2.7521,-2.7274,-2.8081,-2.811,-2.8235,-2.8515,-2.8839,-2.8994,-2.8994,-2.7567,-2.6759,-2.6594,-2.5047,-2.4121,-2.3692,-2.3631,-2.3477,-2.3189,-2.3117,-2.3093,-2.3117,-2.3459,-2.3723,-2.3968,-2.4355,-2.4591,-2.4799,-2.5149,-2.529,-2.5302,0.0,0.0,0.0,0.0,0.0,0.0,0.0,0.0,0.0,0.0,0.0,0.0,0.0,0.0,0.0,0.0,0.0,0.0,-1.0005,-1.6007,-2.0717,-2.3223,-2.2254,-2.1802,-2.2192,-2.0408,-1.9332,-1.9016,-1.8094,-1.7799,-1.8105,-1.8924,-2.0986,-2.415,-2.6624,-2.9626,-3.2993,-3.467,-3.5784,-3.6326,-3.5244,-3.3886,-3.216,-2.8787,-2.7139,-2.6355,-2.3793,-2.0965,-1.8351,-1.822,-1.7684,-1.7239,-1.7992,-1.9144,-2.0158,-2.0032,0.0,-2.0355,-1.7392,-1.5858,-1.5586,-1.7632,-1.9506,-2.1724,0.0,0.0,-2.8915,-3.0892,-3.2234,-3.2968,-3.2788,-3.2622,-3.2428,-3.2088,-3.2206,-3.235,-3.238,-3.2415,-3.2191,-3.1484,-3.1357,-3.1004,-3.0192,-2.9431,-2.8977,-2.8929,-2.8164,-2.803,-2.8847,-2.8877,-2.8899,-2.8923,-2.8994,-2.8994,-2.8994,-2.8117,-2.731,-2.6594,-2.5387,-2.444,-2.3692,-2.3392,-2.3253,-2.3189,-2.2898,-2.2772,-2.2772,-2.3117,-2.3437,-2.378,-2.4301,-2.4512,-2.4575,-2.4777,-2.4886,-2.4945,0.0,0.0,0.0,0.0,0.0,0.0,0.0,0.0,0.0,0.0,0.0,0.0,0.0,0.0,0.0,0.0,0.0,0.0,-1.2102,-1.7032,-2.1178,-2.4116,-2.32,-2.3048,-2.3953,-2.2872,-2.258,-2.3129,-2.3022,-2.3454,-2.4335,-2.4955,-2.6988,-3.0166,-3.1526,-3.3593,-3.6075,-3.6748,-3.7038,-3.6939,-3.5623,-3.3802,-3.1532,-2.847,-2.5938,-2.3613,-2.0654,-1.8709,0.0,0.0,-1.6377,-1.6327,-1.749,-1.8145,-1.8683,-1.9823,-1.9389,0.0,-1.8268,-1.8298,0.0,0.0,-2.3606,-2.5321,-2.8113,-3.0548,-3.248,-3.338,-3.4579,-3.5297,-3.4839,-3.3989,-3.3057,0.0,-3.1634,-3.1252,-3.0886,-3.0479,-3.0022,-2.9504,-2.9469,-2.947,-2.9482,-2.8755,-2.8298,-2.8298,-2.7811,-2.7661,-2.8002,-2.8426,-2.8658,-2.8658,-2.8863,-2.8994,-2.8994,-2.8209,-2.7402,-2.6594,-2.5455,-2.4379,-2.3392,-2.3069,-2.2815,-2.266,-2.2544,-2.2463,-2.249,-2.2789,-2.3014,-2.3224,-2.3821,-2.4022,-2.4099,-2.4606,-2.4828,-2.4827,0.0,0.0,0.0,0.0,0.0,0.0,0.0,0.0,0.0,0.0,0.0,0.0,0.0,0.0,0.0,0.0,0.0,0.0,0.0,-1.6757,-2.0307,-2.3124,-2.3013,-2.3365,-2.4447,-2.4428,-2.4988,-2.6175,-2.6532,-2.753,-2.908,-2.9359,-3.1009,-3.3785,-3.3882,-3.5031,-3.6937,-3.6677,-3.635,-3.5881,-3.4618,-3.2727,-3.0317,-2.7381,-2.3983,-2.0451,-1.7885,-1.6504,0.0,0.0,-1.4161,-1.4347,-1.5797,-1.6368,-1.6867,-1.8637,-1.7825,-1.689,-1.9244,0.0,0.0,-2.5082,-2.6976,-2.8578,-3.08,-3.3202,-3.5036,-3.5345,-3.6059,-3.6372,-3.5593,-3.4153,-3.2708,-3.1509,-3.0763,-3.0143,-2.9687,-2.8961,-2.8373,-2.8136,-2.7948,-2.7985,-2.833,-2.8027,-2.7789,-2.7789,-2.7686,-2.7646,-2.7753,-2.8592,-2.8915,-2.8583,-2.9059,-2.9237,-2.8994,-2.8105,-2.7364,-2.6757,-2.5324,-2.423,-2.3379,-2.2842,-2.2473,-2.231,-2.231,-2.231,-2.2321,-2.2599,-2.2789,-2.2975,-2.3477,-2.3774,-2.3899,-2.4441,-2.4639,-2.4639,0.0,0.0,0.0,0.0,0.0,0.0,0.0,0.0,0.0,0.0,0.0,0.0,0.0,0.0,0.0,0.0,0.0,0.0,0.0,-1.5283,-1.8388,-1.9599,-2.1188,-2.2303,-2.2864,-2.437,-2.574,-2.686,-2.7662,-2.9061,-3.1017,-3.0615,-3.1727,-3.3941,-3.3062,-3.3567,-3.5036,-3.411,-3.3335,-3.2651,-3.1565,-3.0038,-2.8019,-2.4683,-2.0865,-1.7124,-1.6253,0.0,0.0,0.0,-1.0073,-1.0464,-1.2073,-1.3768,0.0,-1.6402,-1.6415,-1.677,0.0,0.0,-2.2113,-2.5527,-2.8693,-3.158,-3.3859,-3.5515,-3.6854,-3.7627,-3.735,-3.6539,-3.4985,-3.3072,-3.1524,-3.0752,-3.0068,-2.9633,-2.9579,-2.8895,-2.8326,-2.812,-2.7413,-2.6895,0.0,-2.7402,-2.7789,-2.7789,-2.8133,-2.8523,-2.8935,-3.008,-3.0188,-2.9007,-2.9769,-2.9787,-2.8994,-2.7882,-2.726,-2.7157,-2.5033,-2.3989,-2.3829,-2.2784,-2.231,-2.231,-2.231,-2.231,-2.2321,-2.2599,-2.2898,-2.3212,-2.3566,-2.3896,-2.419,-2.4209,-2.4209,-2.4209,0.0,0.0,0.0,0.0,0.0,0.0,0.0,0.0,0.0,0.0,0.0,0.0,0.0,0.0,0.0,0.0,0.0,0.0,0.0,-1.4769,-1.7296,-1.9147,-2.101,-2.2013,-2.2074,-2.3908,-2.4984,-2.523,-2.6795,-2.7689,-2.7857,-2.8466,-2.9233,-3.0018,-2.9695,-2.9957,-3.0595,-3.0274,-2.9783,-2.9132,-2.8152,-2.5307,-2.1429,-1.9272,-1.5296,-1.0627,0.0,0.0,0.0,0.0,0.0,-1.0026,-1.1677,-1.2658,-1.3422,-1.4667,-1.6714,-1.8948,0.0,0.0,-2.5234,-2.8414,-3.1362,-3.3913,-3.5578,-3.6665,-3.7211,-3.6643,-3.4951,-3.293,-3.0876,-2.8353,-2.6866,-2.7607,-2.7353,-2.7486,-2.874,-2.8671,-2.8031,-2.6852,-2.6886,0.0,0.0,0.0,0.0,-2.7394,-2.7141,-2.7449,-2.8523,-2.879,-2.8811,-2.8608,-2.8639,-2.8551,-2.8255,-2.7906,-2.7226,-2.6321,-2.4479,-2.3407,-2.3023,-2.2637,-2.2441,-2.231,-2.231,-2.231,-2.231,-2.2415,-2.2616,-2.2898,-2.3253,-2.3566,-2.3896,-2.4113,-2.419,-2.419,0.0,0.0,0.0,0.0,0.0,0.0,0.0,0.0,0.0,0.0,0.0,0.0,0.0,0.0,0.0,0.0,0.0,0.0,0.0,0.0,-1.5176,-1.6696,-1.8226,-1.9029,-1.9022,-2.0628,-2.1354,-2.1152,-2.3113,-2.3835,-2.3422,-2.451,-2.5192,-2.5493,-2.5135,-2.5196,-2.5598,-2.5366,-2.4421,-2.3071,-2.2443,-1.9447,-1.5244,-1.3958,-1.0624,0.0,0.0,0.0,0.0,0.0,0.0,-0.9101,-1.1046,-1.2398,-1.3613,-1.5108,-1.7534,-2.013,-2.1923,-2.4759,-2.7871,-3.063,-3.3135,-3.5243,-3.6075,-3.6462,-3.6142,-3.4494,-3.2029,-2.949,-2.7157,-2.4718,-2.342,-2.4692,-2.4738,-2.5406,-2.7579,-2.7751,-2.7561,-2.7178,-2.7498,0.0,0.0,0.0,0.0,-2.7034,-2.702,-2.7273,-2.7956,-2.8202,-2.8294,-2.821,-2.8287,-2.8209,-2.7897,-2.7501,-2.665,-2.539,-2.4575,-2.3851,-2.3285,-2.3285,-2.3073,-2.2699,-2.2699,-2.2547,-2.231,-2.231,-2.2544,-2.2898,-2.3117,-2.3477,-2.3896,-2.4113,-2.419,-2.419,0.0,0.0,0.0,0.0,0.0,0.0,0.0,0.0,0.0,0.0,0.0,0.0,0.0,0.0,0.0,0.0,0.0,0.0,0.0,0.0,0.0,-1.2524,-1.3287,-1.3789,-1.41,-1.5049,-1.5436,-1.5219,-1.7078,-1.8032,-1.8129,-1.9044,-1.9844,-2.0489,-1.9499,-1.9456,-2.0027,-1.9459,-1.7585,-1.496,-1.4903,-1.2853,-0.9684,-0.8925,0.0,0.0,0.0,0.0,0.0,0.0,0.0,0.0,0.0,-1.321,-1.5868,-1.7734,-1.8955,-2.0553,-2.4301,-2.7308,-2.9929,-3.208,-3.4053,-3.5443,-3.5476,-3.4929,-3.3754,-3.1327,-2.8801,-2.6275,0.0,0.0,-2.1309,-2.2111,-2.247,-2.365,-2.6271,-2.6646,-2.7276,0.0,0.0,0.0,0.0,0.0,0.0,-2.6928,0.0,-2.8051,-2.7369,-2.8363,-2.8641,-2.7886,-2.8605,-2.8594,-2.784,-2.6742,-2.5661,-2.4661,-2.5274,-2.5206,-2.4495,-2.4461,-2.4086,-2.3393,-2.3359,-2.2953,-2.231,-2.231,-2.2694,-2.3242,-2.3206,-2.3646,-2.4263,-2.4208,-2.419,-2.419,0.0,0.0,0.0,0.0,0.0,0.0,0.0,0.0,0.0,0.0,0.0,0.0,0.0,0.0,0.0,0.0,0.0,0.0,0.0,0.0,0.0,0.0,0.0,0.0,0.0,-1.3833,-1.4244,-1.397,0.0,-1.4801,-1.4173,-1.465,-1.4573,-1.3988,-1.3496,-1.3299,-1.3215,-1.2871,-1.2383,-1.1874,0.0,-0.8613,-0.5198,0.0,0.0,0.0,0.0,0.0,0.0,0.0,0.0,0.0,0.0,-1.68,-1.8551,-2.107,-2.3095,-2.5131,-2.7744,-3.0404,-3.2659,-3.3692,-3.4367,-3.4625,-3.4181,-3.2109,-2.9842,-2.8047,-2.4611,-2.1437,0.0,0.0,0.0,-2.0693,-2.2783,0.0,-2.8255,-2.9927,0.0,-3.082,0.0,-3.1224,-3.0683,-3.0446,0.0,0.0,-2.7929,-2.7321,-2.7725,-2.7476,-2.7368,-2.7457,-2.7351,-2.7208,-2.7004,-2.6354,-2.618,-2.6421,-2.5664,-2.5108,-2.4696,-2.4149,-2.3727,-2.3359,-2.2818,-2.2479,-2.231,-2.231,-2.3005,-2.4027,-2.3419,-2.397,-2.5035,-2.441,-2.419,-2.419,0.0,0.0,0.0,0.0,0.0,0.0,0.0,0.0,0.0,0.0,0.0,0.0,0.0,0.0,0.0,0.0,0.0,0.0,0.0,0.0,0.0,0.0,0.0,0.0,-1.006,-1.0164,-1.025,-1.0358,0.0,0.0,0.0,-1.1855,-1.1948,-1.1348,-1.0994,-1.0634,-1.0288,-0.9844,0.0,0.0,0.0,0.0,0.0,0.0,0.0,0.0,0.0,0.0,0.0,0.0,0.0,-1.661,-1.8831,-2.0598,-2.2273,-2.479,0.0,-2.8132,-3.0309,-3.2362,-3.3948,-3.4023,-3.4038,-3.3647,-3.2003,-2.9697,-2.7074,-2.4257,-2.1281,0.0,0.0,0.0,0.0,0.0,0.0,0.0,-2.7524,-2.9468,-3.0882,0.0,-3.1806,0.0,-3.1681,-3.1376,-3.0751,0.0,-2.8416,-2.7759,-2.7855,-2.711,-2.6808,-2.7019,-2.6808,-2.686,-2.7182,-2.7257,-2.7534,-2.7935,-2.6858,-2.6244,-2.6079,-2.5329,-2.4793,-2.4323,0.0,-2.3088,-2.2784,-2.2784,-2.3326,-2.4173,-2.4201,-2.4598,-2.5105,-2.4829,-2.4502,-2.419,0.0,0.0,0.0,0.0,0.0,0.0,0.0,0.0,0.0,0.0,0.0,0.0,0.0,0.0,0.0,0.0,0.0,0.0,0.0,0.0,0.0,0.0,0.0,0.0,0.0,-0.6363,-0.5993,0.0,0.0,0.0,0.0,0.0,0.0,0.0,0.0,0.0,0.0,0.0,0.0,0.0,0.0,0.0,0.0,0.0,0.0,0.0,0.0,0.0,0.0,0.0,-1.9976,-2.0361,-2.2387,-2.4404,-2.6512,-2.8538,-2.9481,-3.0367,-3.2243,-3.3679,-3.4457,-3.3784,-3.3425,-3.2511,-2.9653,-2.7434,-2.4868,-2.0777,0.0,-1.7426,-1.6943,0.0,-1.7242,-1.9541,0.0,-2.3242,-2.6092,-2.7653,-2.9527,-3.2114,-3.1867,-3.1732,-3.2357,-3.1765,-3.0801,-2.9516,-2.9144,-2.8602,-2.7723,-2.7046,-2.6691,-2.6691,-2.6793,-2.7199,-2.7941,-2.8653,-2.9011,-2.8975,-2.8197,-2.7739,-2.7638,-2.6894,-2.6201,-2.5558,-2.4814,0.0,-2.3545,-2.3545,-2.3813,-2.4299,-2.5165,-2.5294,-2.5005,-2.5299,-2.4887,-2.4208,0.0,0.0,0.0,0.0,0.0,0.0,0.0,0.0,0.0,0.0,-0.9699,-1.0079,0.0,0.0,0.0,0.0,0.0,0.0,0.0,0.0,0.0,0.0,0.0,0.0,0.0,0.0,0.0,0.0,0.0,0.0,0.0,0.0,0.0,0.0,0.0,0.0,0.0,0.0,0.0,0.0,0.0,0.0,0.0,0.0,0.0,0.0,0.0,0.0,0.0,0.0,-2.2279,-2.3093,-2.581,-2.8017,-2.9907,-3.1377,-3.2303,-3.3004,-3.3918,-3.4726,-3.516,-3.4472,-3.308,-3.1172,-2.8615,-2.5402,0.0,0.0,0.0,-1.6199,-1.6559,-1.6592,0.0,-2.0474,0.0,0.0,0.0,0.0,-3.0639,0.0,0.0,0.0,0.0,0.0,0.0,0.0,0.0,-2.8366,-2.6962,-2.6759,-2.6691,-2.6691,-2.73,-2.7994,-2.8772,-2.8924,-2.9011,-2.8975,-2.8197,-2.7503,-2.686,-2.6133,-2.5727,-2.5558,-2.4814,0.0,-2.432,-2.432,-2.4919,-2.5785,-2.5588,-2.5615,-2.5768,-2.55,-2.4887,-2.43,0.0,0.0,0.0,0.0,0.0,0.0,0.0,0.0,-0.9389,-1.0598,-1.0948,-1.119,-1.141,-1.1588,0.0,0.0,0.0,0.0,0.0,0.0,0.0,0.0,0.0,0.0,0.0,0.0,0.0,0.0,0.0,0.0,0.0,0.0,0.0,0.0,0.0,0.0,0.0,0.0,0.0,0.0,0.0,0.0,0.0,0.0,0.0,0.0,0.0,0.0,0.0,0.0,-2.2907,-2.3817,-2.6683,-2.8697,-3.0208,-3.1252,-3.2257,-3.3125,-3.386,-3.479,-3.5265,-3.4218,-3.2228,-2.9748,-2.6802,0.0,0.0,0.0,0.0,-1.5834,-1.6516,0.0,0.0,0.0,0.0,0.0,0.0,0.0,0.0,0.0,0.0,0.0,0.0,0.0,0.0,0.0,0.0,-2.9245,-2.8518,-2.7723,-2.7283,-2.7283,-2.8027,-2.8602,-2.9011,-2.9364,-2.9364,-2.8975,-2.8197,-2.7621,-2.7249,-2.6505,-2.6167,-2.6133,-2.5389,0.0,-2.5067,-2.5067,-2.5397,-2.5922,-2.6295,-2.6417,-2.6361,-2.6349,-2.5972,-2.5493,0.0,0.0,0.0,0.0,0.0,0.0,0.0,-0.9995,-1.0734,-1.154,-1.2054,-1.2375,-1.2456,-1.2475,-1.26,0.0,0.0,0.0,0.0,0.0,0.0,0.0,0.0,0.0,0.0,0.0,0.0,0.0,0.0,0.0,0.0,0.0,0.0,0.0,0.0,0.0,0.0,0.0,0.0,0.0,0.0,0.0,0.0,0.0,0.0,0.0,0.0,0.0,0.0,0.0,-2.2279,-2.3389,-2.5686,-2.7816,-2.9645,-3.0398,-3.1537,-3.2721,-3.3457,-3.455,-3.519,-3.3829,-3.142,-2.8551,-2.5303,-2.208,0.0,0.0,-1.5888,-1.5757,-1.6525,0.0,0.0,0.0,0.0,0.0,0.0,0.0,0.0,0.0,0.0,0.0,0.0,0.0,0.0,0.0,0.0,0.0,-2.9703,-2.837,-2.7626,-2.7668,-2.844,-2.8795,-2.8645,-2.9381,-2.9336,-2.8575,-2.7969,-2.7618,-2.7554,-2.6962,-2.6691,-2.6657,-2.6099,0.0,0.0,-2.5845,-2.5845,-2.5929,-2.6923,-2.6986,-2.6609,-2.6977,-2.6832,-2.6505,0.0,0.0,0.0,0.0,0.0,0.0,0.0,-1.0183,-1.0731,-1.111,-1.2508,-1.3418,-1.329,-1.3147,-1.2938,0.0,0.0,0.0,0.0,0.0,0.0,0.0,0.0,0.0,0.0,0.0,0.0,0.0,0.0,0.0,0.0,0.0,0.0,0.0,0.0,0.0,0.0,0.0,0.0,0.0,0.0,0.0,0.0,0.0,0.0,0.0,0.0,0.0,0.0,0.0,0.0,-2.1973,-2.2322,-2.5565,-2.9411,-3.0175,0.0,0.0,-3.3381,-3.4487,-3.519,-3.3829,-3.1076,-2.7951,-2.5078,0.0,0.0,-1.6335,-1.5546,-1.5542,-1.6542,-1.6015,0.0,0.0,0.0,0.0,0.0,0.0,0.0,0.0,0.0,0.0,0.0,0.0,0.0,0.0,0.0,0.0,-2.8362,-2.7476,-2.7059,-2.724,-2.7971,-2.8062,-2.746,-2.8194,-2.8119,-2.7276,-2.7226,-2.7047,-2.6793,-2.6725,-2.6691,-2.6691,-2.6623,0.0,0.0,-2.659,-2.659,-2.6673,-2.7129,-2.6835,-2.6207,-2.6609,-2.6443,-2.6146,0.0,0.0,0.0,0.0,0.0,0.0,-0.9231,-1.004,-1.0881,-1.1609,-1.2759,-1.3571,-1.374,-1.3653,-1.3457,0.0,0.0,0.0,0.0,0.0,0.0,0.0,0.0,0.0,0.0,0.0,0.0,0.0,0.0,0.0,0.0,0.0,0.0,0.0,0.0,0.0,0.0,0.0,0.0,0.0,0.0,0.0,0.0,0.0,0.0,0.0,0.0,0.0,0.0,0.0,0.0,0.0,-2.0543,-2.2451,0.0,0.0,-2.8877,-3.0919,-3.1328,-3.3141,-3.4562,-3.323,-3.0417,-2.7393,-2.499,0.0,0.0,-1.6493,-1.5883,-1.5737,-1.5927,-1.583,-1.6286,0.0,0.0,0.0,0.0,0.0,0.0,0.0,0.0,0.0,0.0,0.0,0.0,0.0,0.0,0.0,-2.8919,-2.8078,-2.7704,-2.7876,-2.7748,-2.7582,-2.7294,-2.7192,-2.6736,-2.5962,-2.6278,-2.6366,-2.6297,-2.659,-2.6691,-2.6691,-2.6691,0.0,0.0,-2.6691,-2.6691,-2.6725,-2.6873,-2.6911,-2.6801,-2.6498,-2.6425,-2.6486,0.0,0.0,0.0,0.0,0.0,-0.9132,-0.9206,-1.0095,-1.1084,-1.1864,-1.2714,-1.3405,-1.3933,-1.3822,-1.3603,-1.331,0.0,0.0,0.0,0.0,0.0,0.0,0.0,0.0,0.0,0.0,0.0,0.0,0.0,0.0,0.0,0.0,0.0,0.0,0.0,0.0,0.0,0.0,0.0,0.0,0.0,0.0,0.0,0.0,0.0,0.0,0.0,0.0,0.0,0.0,0.0,0.0,0.0,0.0,0.0,0.0,-2.6346,-2.8752,-2.9037,-3.1071,-3.2826,-3.1375,-2.8808,-2.6105,0.0,0.0,0.0,-1.6426,-1.5905,-1.5543,-1.5243,-1.5602,-1.6161,-1.691,0.0,-1.9697,0.0,0.0,0.0,0.0,0.0,0.0,0.0,0.0,0.0,0.0,0.0,0.0,-2.881,-2.8023,-2.7672,-2.779,-2.735,-2.6895,-2.6486,-2.6042,-2.5526,-2.4989,-2.5503,-2.5852,-2.6013,-2.6487,-2.6691,-2.6691,-2.6691,0.0,0.0,-2.6691,-2.6691,-2.6674,-2.6454,-2.655,-2.6702,-2.5975,-2.5964,-2.6268,0.0,0.0,0.0,0.0,0.0,0.0,0.0,-1.0544,-1.1315,-1.1669,-1.2337,-1.3076,-1.3802,-1.3555,-1.322,-1.3038,0.0,0.0,0.0,0.0,0.0,0.0,0.0,0.0,0.0,0.0,-1.1987,-1.2287,-1.2685,-1.2838,0.0,0.0,0.0,0.0,0.0,0.0,0.0,0.0,0.0,0.0,0.0,0.0,0.0,0.0,0.0,0.0,0.0,0.0,0.0,0.0,0.0,0.0,0.0,0.0,0.0,0.0,-2.4379,-2.6488,-2.6851,-2.8404,-2.9562,-2.8066,-2.5946,-2.3816,0.0,0.0,0.0,-1.6089,-1.5332,-1.4756,-1.4553,-1.5105,-1.5916,-1.6863,-1.7853,0.0,0.0,0.0,0.0,0.0,0.0,0.0,0.0,0.0,0.0,0.0,0.0,0.0,-2.74,-2.6773,-2.6474,-2.6606,-2.6636,-2.5959,-2.4642,-2.4627,-2.4576,-2.443,-2.4934,-2.5503,-2.6013,-2.6487,-2.6691,0.0,0.0,0.0,0.0,-2.6691,-2.6691,-2.6623,-2.5896,-2.5609,-2.5524,-2.4811,-2.4778,-2.5147,0.0,0.0,0.0,0.0,0.0,0.0,0.0,-1.0019,-1.0853,-1.1161,-1.1826,-1.2364,-1.265,-1.319,-1.3082,-1.2007,0.0,0.0,0.0,0.0,0.0,0.0,0.0,0.0,0.0,0.0,-1.252,-1.2161,-1.2809,-1.2988,-1.2826,-1.2482,0.0,0.0,0.0,0.0,0.0,0.0,0.0,0.0,0.0,0.0,0.0,0.0,0.0,0.0,0.0,0.0,0.0,0.0,0.0,0.0,0.0,0.0,0.0,-2.0798,0.0,0.0,-2.5366,-2.6473,-2.7305,-2.6311,-2.4629,-2.2725,-2.1053,0.0,0.0,-1.5528,-1.5039,-1.4835,-1.48,-1.4933,-1.5326,-1.6235,-1.754,0.0,0.0,0.0,0.0,0.0,0.0,0.0,0.0,0.0,0.0,0.0,0.0,0.0,-2.8794,-2.814,-2.7188,-2.5976,-2.548,-2.5046,-2.4582,-2.4163,-2.3891,-2.3879,-2.4389,-2.4736,-2.495,-2.5835,-2.6227,0.0,0.0,0.0,0.0,-2.6167,-2.5947,-2.5879,-2.5135,-2.4831,-2.4746,-2.4019,-2.382,-2.3922,0.0,0.0,0.0,0.0,0.0,0.0,0.0,-0.9343,-1.004,-1.0407,-1.0884,-1.1422,-1.1946,-1.2469,-1.249,-1.1734,0.0,0.0,0.0,0.0,0.0,0.0,0.0,0.0,0.0,-1.2287,-1.2539,-1.2066,-1.2916,-1.3433,-1.3601,-1.339,-1.3168,-1.2894,0.0,0.0,0.0,0.0,0.0,0.0,0.0,0.0,-1.5184,0.0,0.0,0.0,0.0,0.0,0.0,0.0,0.0,0.0,0.0,0.0,0.0,0.0,-2.1859,0.0,0.0,-2.4307,-2.4716,-2.3936,-2.2643,0.0,0.0,0.0,0.0,-1.5351,-1.4972,-1.4843,-1.4843,-1.5073,-1.5449,-1.5916,-1.717,0.0,0.0,0.0,0.0,0.0,0.0,0.0,0.0,0.0,0.0,0.0,0.0,0.0,-2.8666,-2.7782,-2.667,-2.5255,-2.4837,-2.4462,-2.4238,-2.3819,-2.3595,-2.3595,-2.4142,-2.4389,-2.443,-2.5486,-2.6013,0.0,0.0,0.0,0.0,-2.5795,-2.5439,-2.5101,-2.4357,-2.4069,-2.4015,-2.3257,-2.3039,-2.3144,0.0,0.0,0.0,0.0,0.0,0.0,0.0,0.0,0.0,-0.9566,-0.9816,-1.0385,-1.1618,-1.1653,-1.1694,-1.1984,0.0,0.0,0.0,0.0,0.0,0.0,0.0,0.0,0.0,-1.1669,-1.2153,-1.2036,-1.3162,-1.4109,-1.4831,-1.4673,-1.4633,-1.4622,-1.3836,-1.295,-1.1959,-1.087,-1.096,-1.1768,-1.1793,-1.2424,0.0,0.0,0.0,0.0,0.0,0.0,0.0,0.0,0.0,0.0,0.0,0.0,0.0,0.0,0.0,0.0,0.0,-2.222,0.0,0.0,0.0,0.0,0.0,0.0,0.0,0.0,0.0,-1.485,-1.4746,-1.5464,-1.5992,-1.5848,-1.6872,0.0,0.0,0.0,0.0,0.0,0.0,0.0,0.0,0.0,0.0,0.0,0.0,0.0,-2.7348,-2.6227,-2.5317,-2.4672,-2.4567,-2.4253,-2.361,-2.3595,-2.3595,-2.3595,-2.4116,-2.4348,-2.4389,-2.5363,-2.5822,0.0,0.0,0.0,0.0,-2.5473,-2.5033,-2.4371,-2.3596,-2.3325,-2.3241,-2.2564,-2.2463,-2.2721,0.0,0.0,0.0,0.0,0.0,0.0,0.0,0.0,0.0,0.0,-1.0113,-1.0477,-1.1182,-1.2006,-1.2115,0.0,0.0,0.0,0.0,0.0,0.0,0.0,0.0,0.0,0.0,-1.1791,-1.2367,-1.2369,-1.3958,-1.4931,-1.5271,-1.5537,-1.5538,-1.5346,-1.4638,-1.3536,-1.2156,-1.1064,-1.1324,-1.2366,-1.2188,-1.2945,0.0,0.0,0.0,0.0,-1.5492,-1.5666,0.0,0.0,0.0,0.0,0.0,0.0,0.0,0.0,-2.2317,-2.2599,-2.2807,0.0,-2.0674,-2.0493,-1.9343,0.0,0.0,0.0,0.0,0.0,0.0,0.0,0.0,0.0,0.0,0.0,0.0,0.0,0.0,0.0,0.0,0.0,0.0,0.0,0.0,0.0,0.0,0.0,0.0,0.0,-2.7494,-2.6233,-2.5467,-2.536,-2.4388,-2.3759,-2.3595,-2.3595,-2.3595,-2.3595,-2.3709,-2.3794,-2.3779,-2.3927,-2.4195,0.0,0.0,0.0,-2.4695,-2.4137,-2.3799,-2.3579,-2.2852,-2.2564,-2.2547,-2.2361,-2.2349,-2.248,0.0,0.0,0.0,0.0,0.0,0.0,0.0,0.0,0.0,0.0,0.0,0.0,0.0,0.0,0.0,0.0,0.0,0.0,0.0,0.0,0.0,0.0,0.0,0.0,-1.0656,-1.1804,-1.2616,-1.3048,-1.4533,-1.5834,-1.7022,-1.7079,-1.7142,-1.7139,-1.5349,-1.373,-1.2343,-1.155,-1.1616,-1.2211,-1.1923,0.0,0.0,0.0,0.0,0.0,-1.5935,-1.6447,0.0,-1.8184,-1.9033,-1.9845,0.0,0.0,0.0,0.0,-2.2895,-2.3147,-2.3212,-2.2187,-2.1067,-2.0815,-1.9628,-1.8322,-1.7644,0.0,0.0,0.0,0.0,0.0,0.0,0.0,0.0,0.0,0.0,0.0,0.0,0.0,0.0,0.0,0.0,0.0,0.0,0.0,0.0,0.0,0.0,0.0,-2.6557,-2.5628,-2.5105,-2.5151,-2.4148,-2.3595,-2.3595,-2.3595,-2.3595,-2.3595,-2.331,-2.3176,-2.3188,-2.3007,-2.3092,0.0,0.0,0.0,-2.3656,-2.3485,-2.319,-2.2868,-2.2462,-2.231,-2.231,-2.231,-2.2388,-2.2527,0.0,0.0,0.0,0.0,0.0,0.0,0.0,0.0,0.0,0.0,0.0,0.0,0.0,0.0,0.0,0.0,0.0,0.0,0.0,0.0,0.0,0.0,0.0,-1.0697,-1.0693,-1.1817,-1.2891,-1.3843,-1.5031,-1.6761,-1.8898,-1.862,-1.8611,-1.8742,-1.585,-1.3873,-1.2698,-1.1979,-1.1659,-1.1662,-1.1362,0.0,0.0,0.0,0.0,0.0,0.0,0.0,0.0,-1.9816,-2.0605,-2.0955,-2.2091,0.0,0.0,0.0,0.0,0.0,-2.3548,-2.3029,-2.2314,-2.1591,-2.0349,-1.9166,-1.8608,0.0,0.0,0.0,0.0,0.0,0.0,0.0,0.0,0.0,0.0,0.0,0.0,0.0,0.0,0.0,0.0,0.0,0.0,0.0,0.0,0.0,0.0,-2.525,-2.5287,-2.473,-2.4462,-2.4582,-2.3954,-2.3595,-2.3595,-2.3595,-2.3595,-2.3595,-2.2981,-2.2724,-2.2694,-2.2286,-2.2167,-2.2263,0.0,0.0,-2.258,-2.3042,-2.2868,-2.231,-2.231,-2.231,-2.231,-2.231,-2.2436,-2.2634,0.0,0.0,0.0,0.0,0.0,0.0,0.0,0.0,0.0,0.0,0.0,0.0,0.0,0.0,0.0,0.0,0.0,0.0,0.0,0.0,0.0,0.0,-1.0521,-1.0611,-1.1084,-1.1991,-1.314,-1.4471,-1.5876,-1.7398,-1.8988,-1.8941,-1.8531,-1.7747,-1.5672,-1.4379,-1.3666,-1.1743,-1.1052,-1.1181,-1.0732,0.0,0.0,0.0,0.0,0.0,0.0,0.0,0.0,-1.9646,-2.0426,-2.0819,-2.1843,0.0,0.0,0.0,0.0,0.0,-2.4154,-2.3999,-2.349,-2.2221,-2.0629,-1.937,-1.924,0.0,0.0,0.0,0.0,0.0,0.0,0.0,0.0,0.0,0.0,0.0,0.0,0.0,0.0,0.0,0.0,0.0,0.0,0.0,0.0,0.0,0.0,0.0,-2.4717,-2.4118,-2.4029,-2.4567,-2.3954,-2.3595,-2.3595,-2.3595,-2.3595,-2.3595,-2.2981,-2.2724,-2.2679,-2.1488,-2.1151,-2.1461,0.0,-2.1582,-2.1823,-2.2274,-2.2412,-2.231,-2.231,-2.231,-2.231,-2.231,-2.2338,-2.2371,0.0,0.0,0.0,0.0,0.0,0.0,0.0,0.0,0.0,0.0,0.0,0.0,0.0,0.0,0.0,0.0,0.0,0.0,0.0,0.0,0.0,-1.0888,-1.0819,-1.1056,-1.1688,-1.3027,-1.4296,-1.5414,-1.7314,-1.8994,-2.0343,-2.0146,-1.9308,-1.7959,-1.6008,-1.4702,-1.3897,-1.2255,-1.1468,-1.1376,0.0,0.0,0.0,0.0,0.0,0.0,0.0,0.0,0.0,0.0,-2.0678,-2.1061,-2.2036,0.0,0.0,0.0,0.0,0.0,-2.362,-2.3342,-2.2733,-2.1282,-2.0837,-2.0744,-2.0787,0.0,0.0,0.0,0.0,0.0,0.0,0.0,0.0,0.0,0.0,0.0,0.0,0.0,0.0,0.0,0.0,0.0,0.0,0.0,0.0,0.0,0.0,0.0,-2.4059,-2.3774,-2.3744,-2.4059,-2.3759,-2.3595,-2.3595,-2.3595,-2.3595,-2.3595,-2.2607,-2.2143,-2.2099,-2.0767,-2.0249,-2.0441,0.0,-2.0878,-2.1306,-2.1735,-2.2061,-2.231,-2.231,-2.231,-2.231,-2.231,-2.2564,-2.2892,0.0,0.0,0.0,0.0,0.0,0.0,0.0,0.0,0.0,0.0,0.0,0.0,0.0,0.0,0.0,0.0,0.0,0.0,0.0,0.0,-1.1197,-1.1309,-1.1523,-1.1955,-1.2595,-1.4059,-1.5489,-1.6891,-1.8655,-2.0131,-2.1297,-2.1053,-2.001,-1.8249,-1.6175,-1.484,-1.4038,-1.2531,-1.1745,-1.1569,0.0,0.0,0.0,0.0,0.0,0.0,0.0,0.0,0.0,0.0,0.0,0.0,0.0,0.0,0.0,-2.3969,-2.3657,-2.3081,-2.2959,-2.2458,-2.1743,-2.0807,0.0,-2.1678,-2.1446,-2.0727,0.0,0.0,0.0,0.0,0.0,0.0,0.0,0.0,0.0,0.0,0.0,0.0,0.0,0.0,0.0,0.0,0.0,0.0,0.0,0.0,0.0,0.0,-2.3595,-2.346,-2.3385,-2.3385,-2.3236,-2.3161,-2.3161,-2.3161,-2.3236,-2.337,-2.2233,-2.162,-2.1425,-2.0228,-1.969,-1.9711,-2.0124,-2.055,-2.1023,-2.143,-2.1899,-2.231,-2.231,-2.231,-2.231,-2.231,-2.2665,-2.3112,0.0,0.0,0.0,0.0,0.0,0.0,0.0,0.0,0.0,0.0,0.0,0.0,0.0,0.0,0.0,0.0,0.0,0.0,0.0,0.0,-1.1817,-1.2182,-1.2675,-1.3329,-1.411,-1.4582,-1.6246,-1.917,-1.9391,-1.9894,-2.0667,-2.0929,-2.005,-1.8011,-1.5828,-1.4751,-1.442,-1.1949,-1.1102,-1.1387,-1.0828,0.0,0.0,0.0,0.0,0.0,0.0,0.0,0.0,0.0,0.0,0.0,0.0,0.0,-2.3943,-2.4075,-2.3509,-2.2813,-2.2738,-2.2001,-2.1424,-2.2067,-2.1739,0.0,-1.9846,-1.9983,0.0,-2.0567,0.0,0.0,0.0,0.0,0.0,0.0,0.0,0.0,0.0,0.0,0.0,0.0,0.0,0.0,0.0,0.0,0.0,0.0,0.0,0.0,-2.3595,-2.3056,-2.2742,-2.2742,-2.2143,-2.1844,-2.1844,-2.1844,-2.2143,-2.2783,-2.2024,-2.138,-2.0767,-2.0019,-1.969,-1.9711,-2.0124,-2.055,-2.1023,-2.143,-2.1899,-2.231,-2.231,-2.231,-2.231,-2.231,-2.2344,-2.2378,0.0,0.0,0.0,0.0,0.0,0.0,0.0,0.0,0.0,0.0,0.0,0.0,0.0,0.0,0.0,0.0,0.0,0.0,0.0,0.0,-1.2311,-1.2195,-1.3038,-1.4235,-1.5756,-1.6047,-1.7208,-1.9339,-2.0792,-2.1431,-2.1291,-2.1171,-1.9929,-1.7805,-1.6278,-1.5349,-1.4761,-1.3257,-1.2556,-1.2526,-1.2673,-1.2935,0.0,0.0,0.0,0.0,0.0,0.0,0.0,0.0,-2.0244,-2.1036,-2.1531,-2.2392,-2.328,-2.383,-2.295,-2.176,-2.1619,-2.0746,-1.9861,-1.9713,-2.0102,0.0,0.0,-2.1642,-2.1774,-2.1397,-2.1922,0.0,0.0,0.0,0.0,0.0,0.0,0.0,0.0,0.0,0.0,0.0,0.0,0.0,0.0,0.0,0.0,0.0,0.0,0.0,0.0,-2.2188,-2.2069,-2.2069,-2.1829,-2.1695,-2.1695,-2.1695,-2.162,-2.1455,-2.1201,-2.0961,-2.0692,-2.0004,-1.969,-1.9726,-1.9874,-2.0158,-2.0583,-2.1039,-2.1477,-2.1899,-2.218,-2.231,-2.231,-2.231,-2.2598,-2.2931,0.0,0.0,0.0,0.0,0.0,0.0,0.0,0.0,0.0,0.0,0.0,0.0,0.0,0.0,0.0,0.0,0.0,0.0,-1.2061,-1.2753,-1.293,-1.2384,-1.3427,-1.4788,-1.6414,-1.671,-1.7805,-1.9745,-2.155,-2.2009,-2.1178,-2.0885,-1.9652,-1.7593,-1.66,-1.5804,-1.5135,-1.4487,-1.4028,-1.3772,-1.4397,-1.4536,0.0,0.0,0.0,0.0,0.0,0.0,0.0,0.0,-2.0099,-2.0852,-2.1636,-2.2115,-2.2536,-2.3297,-2.2211,-2.0713,-2.0523,-1.9698,-1.8792,-1.8275,0.0,0.0,-2.1351,-2.2082,-2.2435,-2.2049,-2.2556,0.0,0.0,0.0,0.0,0.0,0.0,0.0,0.0,0.0,0.0,0.0,0.0,0.0,0.0,0.0,0.0,0.0,0.0,0.0,0.0,-2.15,-2.138,-2.138,-2.1171,-2.1066,-2.1066,-2.1066,-2.0842,-2.0393,-2.0393,-2.0393,-2.0378,-1.9899,-1.969,-1.969,-1.969,-1.9945,-2.0348,-2.0797,-2.1306,-2.1853,-2.2163,-2.231,-2.231,-2.231,-2.2632,-2.3028,0.0,0.0,0.0,0.0,0.0,0.0,0.0,0.0,0.0,0.0,0.0,0.0,0.0,0.0,0.0,0.0,0.0,0.0,-1.2526,-1.3454,-1.3656,-1.293,-1.392,-1.492,-1.5858,-1.6291,-1.7863,-2.07,-2.1491,-2.1281,-2.0084,-2.0094,-1.9166,-1.7483,-1.6653,-1.6028,-1.5599,-1.5388,-1.5188,-1.4986,-1.5576,-1.5419,-1.4991,0.0,0.0,0.0,0.0,0.0,0.0,0.0,-2.045,-2.1135,-2.1859,0.0,-2.1825,-2.2478,-2.1319,-1.975,-1.9563,-1.9007,-1.8485,0.0,0.0,0.0,-1.9451,-2.0778,-2.2033,-2.2273,0.0,0.0,0.0,0.0,0.0,0.0,0.0,0.0,0.0,0.0,0.0,0.0,0.0,0.0,0.0,0.0,0.0,0.0,0.0,0.0,0.0,-2.1051,-2.0707,-2.0707,-2.0049,-1.969,-1.969,-1.969,-1.969,-1.969,-1.969,-1.969,-1.969,-1.969,-1.969,-1.969,-1.969,-1.9945,-2.0348,-2.0829,-2.1524,-2.231,-2.231,-2.231,-2.231,-2.231,-2.231,-2.2349,0.0,0.0,0.0,0.0,0.0,0.0,0.0,0.0,0.0,0.0,0.0,0.0,0.0,0.0,0.0,0.0,0.0,0.0,-1.241,-1.3111,-1.3051,-1.1892,-1.321,-1.4187,-1.4764,-1.5751,-1.7579,-2.0201,-2.0819,-2.0764,-2.0084,-2.0084,-1.9003,-1.7079,-1.718,-1.6946,-1.653,-1.6683,-1.6828,-1.6977,-1.7233,-1.7125,-1.6785,0.0,0.0,0.0,0.0,0.0,0.0,0.0,0.0,0.0,-2.1148,0.0,-2.142,-2.1496,-2.0324,-1.9103,-1.9411,-1.8248,0.0,0.0,0.0,0.0,0.0,-2.0805,0.0,0.0,0.0,0.0,0.0,0.0,0.0,0.0,0.0,0.0,0.0,0.0,0.0,0.0,0.0,0.0,0.0,0.0,0.0,0.0,0.0,0.0,0.0,-2.0094,-1.9989,-1.9989,-1.9794,-1.969,-1.969,-1.969,-1.969,-1.969,-1.969,-1.969,-1.969,-1.969,-1.969,-1.969,-1.969,-1.9945,-2.0348,-2.1102,-2.1781,-2.231,-2.231,-2.231,-2.231,-2.231,-2.2426,-2.2625,0.0,0.0,0.0,0.0,0.0,0.0,0.0,0.0,0.0,0.0,0.0,0.0,0.0,0.0,0.0,0.0,0.0,0.0,0.0,-1.3081,-1.302,-1.2262,-1.3144,-1.3957,-1.4533,-1.5221,-1.6455,-1.8293,-1.8764,-1.8995,-1.8969,-1.9137,-1.857,-1.7438,-1.8007,-1.8036,-1.7664,-1.8324,-1.8496,-1.829,-1.8637,-1.8417,-1.7894,0.0,0.0,0.0,0.0,0.0,0.0,0.0,0.0,0.0,-2.0789,0.0,-2.0444,-2.0537,-1.9504,-1.837,-1.8593,-1.7893,0.0,0.0,0.0,0.0,0.0,0.0,0.0,0.0,0.0,0.0,0.0,0.0,0.0,0.0,0.0,0.0,0.0,0.0,0.0,0.0,0.0,0.0,0.0,0.0,0.0,0.0,0.0,0.0,0.0,-1.969,-1.969,-1.969,-1.969,-1.969,-1.969,-1.969,-1.969,-1.969,-1.969,-1.969,-1.969,-1.969,-1.969,-1.9726,-1.9874,-2.0246,-2.0862,-2.1383,-2.1899,-2.231,-2.231,-2.231,-2.2293,-2.2426,-2.2796,-2.3284,0.0,0.0,0.0,0.0,0.0,0.0,0.0,0.0,0.0,0.0,0.0,0.0,0.0,0.0,0.0,0.0,0.0,0.0,0.0,0.0,-1.3249,-1.3285,-1.3356,-1.3817,-1.4695,-1.4493,-1.4755,-1.5478,-1.5973,-1.6555,-1.7279,-1.774,-1.8043,-1.8247,-1.9028,-1.9171,-1.8933,-2.0033,-1.9967,-1.9141,-1.9697,-1.9326,-1.8426,-1.8643,0.0,0.0,0.0,0.0,0.0,0.0,0.0,0.0,-2.0439,-1.9882,-1.9142,-1.9502,-1.8746,-1.7721,-1.7498,0.0,0.0,0.0,0.0,0.0,0.0,0.0,0.0,0.0,0.0,0.0,0.0,0.0,0.0,0.0,0.0,0.0,0.0,0.0,0.0,0.0,0.0,0.0,0.0,0.0,0.0,0.0,0.0,0.0,0.0,-1.969,-1.969,-1.969,-1.969,-1.969,-1.969,-1.969,-1.969,-1.969,-1.969,-1.969,-1.969,-1.969,-1.9711,-1.9782,-2.0193,-2.083,-2.1582,-2.1658,-2.1928,-2.231,-2.231,-2.2344,-2.2406,-2.2634,-2.3302,-2.4209,0.0,0.0,0.0,0.0,0.0,0.0,0.0,0.0,0.0,0.0,0.0,0.0,0.0,0.0,0.0,0.0,0.0,0.0,0.0,0.0,-1.2281,-1.1719,-1.1855,-1.2367,-1.3288,-1.309,-1.3187,-1.3667,-1.492,-1.6032,-1.6987,-1.7832,-1.8204,-1.8169,-1.9405,-1.9933,-1.9981,-2.0463,-2.0283,-1.9757,-2.0084,-1.9481,-1.8445,-1.8807,-1.913,0.0,0.0,0.0,0.0,0.0,0.0,0.0,-1.8525,-1.8493,-1.8591,-1.7661,-1.748,-1.7602,0.0,-1.7332,0.0,0.0,0.0,0.0,0.0,0.0,0.0,0.0,0.0,0.0,0.0,0.0,0.0,0.0,0.0,0.0,0.0,0.0,0.0,0.0,0.0,0.0,0.0,0.0,0.0,0.0,0.0,0.0,-1.969,-1.969,-1.969,-1.969,-1.969,-1.969,-1.969,-1.969,-1.969,0.0,-1.969,-1.969,-1.969,-1.969,-1.9874,-2.0193,-2.0665,-2.115,-2.1628,-2.2003,-2.2209,-2.231,-2.231,-2.2649,-2.3146,-2.2806,-2.3746,-2.5163,0.0,0.0,0.0,0.0,0.0,0.0,0.0,0.0,0.0,0.0,0.0,0.0,0.0,0.0,0.0,0.0,0.0,0.0,0.0,0.0,0.0,-1.1174,-1.1494,-1.1983,-1.2592,-1.247,-1.2728,-1.3399,-1.4367,-1.5367,-1.6451,-1.7659,-1.8527,-1.9029,-2.0356,-2.1026,-2.1185,-2.1401,-2.1281,-2.0877,-2.0484,-2.009,-1.9623,-1.9002,-1.9243,-1.9922,-1.9801,0.0,0.0,0.0,0.0,0.0,0.0,0.0,-1.7504,-1.6597,-1.671,-1.7082,0.0,0.0,0.0,0.0,0.0,0.0,0.0,0.0,0.0,0.0,0.0,0.0,0.0,0.0,0.0,0.0,0.0,0.0,0.0,0.0,0.0,0.0,0.0,0.0,0.0,0.0,0.0,0.0,0.0,-1.9555,-1.9226,-1.951,-1.954,-1.9226,-1.9525,-1.969,-1.969,-1.969,-1.969,-1.969,-1.969,-1.969,-1.969,-1.969,-1.9909,-2.0314,-2.0797,-2.1213,-2.1658,-2.2106,-2.231,-2.231,-2.231,-2.2547,-2.2846,-2.2737,-2.3911,-2.5532,0.0,0.0,0.0,0.0,0.0,0.0,0.0,0.0,0.0,0.0,0.0,0.0,0.0,0.0,0.0,0.0,0.0,0.0,0.0,0.0,0.0,-1.1058,-1.1443,-1.1797,-1.2107,-1.2303,-1.2846,-1.3722,-1.4322,-1.5188,0.0,-1.7729,-1.8988,-2.0173,-2.1458,-2.2096,-2.2192,-2.2337,-2.2229,-2.1855,-2.0877,-2.0657,-2.0769,-1.9251,-1.9391,-2.0317,-1.9847,-1.9716,-1.9669,-1.8947,0.0,0.0,0.0,0.0,-1.6453,-1.5854,-1.6201,-1.6623,0.0,0.0,0.0,0.0,0.0,0.0,0.0,0.0,0.0,0.0,0.0,0.0,0.0,0.0,0.0,0.0,0.0,0.0,0.0,0.0,0.0,0.0,0.0,0.0,0.0,0.0,0.0,0.0,0.0,-1.945,-1.8897,-1.939,-1.9435,-1.8897,-1.9405,-1.969,-1.969,-1.969,-1.969,-1.969,-1.969,-1.969,-1.969,-1.969,-1.9965,-2.0449,-2.0829,-2.1275,-2.1764,-2.2135,-2.231,-2.231,-2.231,-2.2395,-2.2508,-2.2651,-2.3885,-2.5577,0.0,0.0,0.0,0.0,0.0,0.0,0.0,0.0,0.0,0.0,0.0,0.0,0.0,0.0,0.0,0.0,0.0,0.0,-1.1699,0.0,0.0,-1.0991,-1.0746,-1.0841,-1.1351,-1.2314,-1.3145,-1.3796,-1.5114,0.0,0.0,0.0,0.0,-2.0988,-2.2116,-2.2565,-2.2512,-2.2502,-2.2143,-2.1611,-2.1048,-2.0588,-2.0173,-1.9596,-1.9593,-1.9899,-1.9926,-1.9471,-1.8862,-1.8743,-1.8113,0.0,0.0,0.0,-1.6266,-1.5106,-1.581,-1.6864,0.0,0.0,0.0,0.0,0.0,0.0,0.0,0.0,0.0,0.0,0.0,0.0,0.0,0.0,0.0,0.0,0.0,0.0,0.0,0.0,0.0,0.0,0.0,0.0,0.0,0.0,0.0,0.0,-1.969,-1.9645,-1.9555,-1.963,-1.9645,-1.9555,-1.963,-1.969,-1.969,-1.969,-1.969,-1.969,-1.969,-1.969,-1.969,-1.969,-2.0139,-2.0894,-2.0959,-2.1462,-2.2209,-2.2265,-2.231,-2.231,-2.231,-2.2699,-2.3214,-2.284,-2.3736,-2.5267,0.0,0.0,0.0,0.0,0.0,0.0,0.0,0.0,0.0,0.0,0.0,0.0,0.0,0.0,0.0,-1.0244,-0.9753,-0.9599,-1.0028,-0.9933,-0.9846,-0.9863,-1.0135,-1.0509,-1.0986,-1.1907,-1.3064,-1.4415,0.0,0.0,0.0,-2.0322,-2.1017,0.0,0.0,0.0,-2.3212,0.0,-2.2994,-2.2807,-2.1601,-2.1369,-2.1544,-1.9981,-1.983,-2.0377,-1.9974,-1.9563,-1.9052,-1.8042,-1.7404,-1.6712,-1.489,0.0,0.0,0.0,0.0,0.0,-1.6088,0.0,0.0,0.0,0.0,0.0,0.0,0.0,0.0,0.0,0.0,0.0,0.0,0.0,0.0,0.0,0.0,0.0,0.0,0.0,0.0,0.0,0.0,0.0,0.0,0.0,0.0,0.0,-1.969,-1.9525,-1.9151,-1.9495,-1.951,-1.9151,-1.9495,-1.969,-1.969,-1.969,-1.969,-1.969,-1.969,-1.969,-1.969,-1.969,-2.005,-2.0616,-2.0894,-2.1354,-2.1928,-2.218,-2.231,-2.231,-2.231,-2.2513,-2.2779,-2.2545,-2.3598,-2.5147,0.0,0.0,0.0,0.0,0.0,0.0,0.0,0.0,0.0,0.0,0.0,0.0,0.0,0.0,0.0,0.0,-0.9247,-0.9131,-0.9063,-0.9424,-0.962,-0.961,-1.0169,-1.0641,-1.1012,-1.1838,-1.3193,0.0,0.0,0.0,-2.1133,-2.1623,-2.2298,0.0,-2.371,-2.3906,0.0,0.0,0.0,0.0,-2.2411,-2.2255,-2.2573,-2.0355,-1.9938,-2.0443,-1.9458,-1.8974,-1.8597,-1.7232,-1.6515,-1.5942,-1.4444,-1.4069,0.0,0.0,0.0,0.0,0.0,0.0,0.0,0.0,0.0,0.0,0.0,0.0,0.0,0.0,0.0,0.0,0.0,0.0,0.0,0.0,0.0,0.0,0.0,0.0,0.0,0.0,0.0,0.0,0.0,0.0,0.0,0.0,-1.9585,-1.9465,-1.8972,-1.942,-1.9465,-1.8972,-1.9435,-1.969,-1.969,-1.969,-1.969,-1.969,-1.969,-1.969,-1.969,-1.969,-1.9965,-2.0483,-2.0862,-2.1291,-2.1794,-2.2152,-2.231,-2.231,-2.231,-2.231,-2.231,-2.231,-2.3187,-2.4413,0.0,0.0,0.0,0.0,0.0,0.0,0.0,0.0,0.0,0.0,0.0,0.0,-0.8972,-0.8827,-0.8886,-0.9177,-0.8981,-0.9158,-0.9979,-1.0171,-1.0561,-1.127,-1.1242,0.0,-1.1546,-1.2524,-1.3849,0.0,0.0,0.0,-2.2045,-2.2384,-2.3332,-2.4774,-2.4564,-2.4316,-2.41,0.0,0.0,0.0,0.0,0.0,-2.2173,-2.064,-1.9897,0.0,0.0,-1.7094,-1.6645,-1.6476,-1.5507,-1.4386,-1.4649,-1.4403,-1.3979,0.0,0.0,0.0,0.0,0.0,0.0,0.0,0.0,0.0,0.0,0.0,0.0,0.0,0.0,0.0,0.0,0.0,0.0,0.0,0.0,0.0,0.0,0.0,0.0,0.0,0.0,0.0,0.0,0.0,0.0,0.0,-1.9331,-1.9675,-1.963,-1.966,-1.9675,-1.963,-1.9675,-1.969,-1.969,-1.969,-1.969,-1.969,-1.969,-1.969,-1.969,-1.969,-2.0139,-2.0959,-2.0991,-2.1493,-2.2282,-2.2282,-2.231,-2.231,-2.231,-2.231,-2.231,-2.231,-2.2361,-2.2598,0.0,0.0,0.0,0.0,0.0,0.0,0.0,0.0,0.0,0.0,0.0,0.0,0.0,-0.8291,-0.8461,-0.8858,-0.9907,-1.0709,-1.1111,-1.1893,-1.2038,-1.1368,-1.1939,-1.2083,-1.1736,-1.2556,-1.3972,0.0,0.0,-1.8818,-2.1644,-2.182,-2.2756,-2.4338,-2.4721,-2.4807,-2.4685,-2.4769,0.0,0.0,0.0,0.0,0.0,0.0,0.0,0.0,0.0,0.0,0.0,-1.6326,-1.5645,-1.4946,-1.445,-1.4041,0.0,0.0,0.0,0.0,0.0,0.0,0.0,0.0,0.0,0.0,0.0,0.0,0.0,0.0,0.0,0.0,0.0,0.0,0.0,0.0,0.0,0.0,0.0,0.0,0.0,0.0,0.0,0.0,0.0,0.0,0.0,0.0,0.0,-1.9241,-1.966,-1.969,-1.969,-1.969,-1.969,-1.969,-1.969,-1.969,-1.969,-1.969,-1.969,-1.969,-1.969,-1.969,-2.0174,-2.0991,-2.0991,-2.1493,-2.231,-2.231,-2.231,-2.231,-2.231,-2.231,-2.231,-2.231,-2.2598,-2.3067,0.0,0.0,0.0,0.0,0.0,0.0,0.0,0.0,0.0,0.0,0.0,0.0,0.0,0.0,-0.8957,-0.9897,-1.1163,-1.2215,-1.2895,-1.3715,-1.3889,-1.3213,-1.3765,-1.376,-1.3019,-1.3442,-1.4609,0.0,0.0,0.0,0.0,-2.1429,-2.2211,-2.3624,-2.4096,-2.4522,0.0,0.0,0.0,-2.4062,0.0,0.0,-2.0268,0.0,0.0,0.0,0.0,0.0,0.0,0.0,0.0,0.0,0.0,0.0,0.0,0.0,0.0,0.0,0.0,0.0,0.0,0.0,0.0,0.0,0.0,0.0,0.0,0.0,0.0,0.0,0.0,0.0,0.0,0.0,0.0,0.0,0.0,0.0,0.0,0.0,0.0,0.0,0.0,0.0,0.0,0.0,0.0,0.0,-1.963,-1.948,-1.945,-1.9675,-1.969,-1.969,-1.969,-1.969,-1.969,-1.969,-1.969,-1.969,-1.9711,-1.9839,-2.0296,-2.1007,-2.115,-2.1615,-2.231,-2.231,-2.231,-2.231,-2.231,-2.231,-2.231,-2.231,-2.2615,-2.3038,0.0,0.0,0.0,0.0,0.0,0.0,0.0,0.0,0.0,-0.7217,0.0,0.0,0.0,0.0,0.0,-1.2399,-1.273,-1.358,-1.5347,-1.5621,-1.6065,-1.6879,-1.6798,-1.6319,-1.547,-1.5298,-1.582,0.0,0.0,0.0,0.0,0.0,-2.1776,-2.2713,-2.2669,-2.3385,-2.4625,0.0,-2.3326,-2.2331,0.0,-2.1081,-1.8783,0.0,0.0,0.0,-1.5345,-1.5053,0.0,0.0,0.0,0.0,0.0,0.0,0.0,0.0,0.0,0.0,0.0,0.0,0.0,0.0,0.0,0.0,0.0,0.0,0.0,0.0,0.0,0.0,0.0,0.0,0.0,0.0,0.0,0.0,0.0,0.0,0.0,0.0,0.0,0.0,0.0,0.0,0.0,0.0,-1.7667,-1.8268,-1.9555,-1.9031,-1.9001,-1.963,-1.9675,-1.969,-1.969,-1.969,-1.969,-1.969,-1.969,-1.969,-1.9711,-2.0089,-2.055,-2.0991,-2.1399,-2.1853,-2.2282,-2.2282,-2.231,-2.231,-2.231,-2.231,-2.231,-2.231,-2.231,-2.231,0.0,0.0,0.0,0.0,0.0,0.0,0.0,0.0,0.0,0.0,0.0,0.0,-0.9398,-1.1116,-1.2783,-1.4188,-1.5043,-1.5987,-1.7062,-1.7576,-1.7655,-1.7204,-1.7396,-1.7139,-1.6354,-1.5912,-1.6516,0.0,0.0,0.0,0.0,0.0,0.0,0.0,-2.0935,-2.1104,-2.1416,-2.2714,0.0,0.0,-2.0919,-1.946,0.0,0.0,0.0,0.0,0.0,-1.387,-1.3975,0.0,-1.3043,-1.1584,0.0,0.0,0.0,0.0,0.0,0.0,-1.1553,0.0,0.0,0.0,0.0,0.0,0.0,0.0,0.0,0.0,0.0,0.0,0.0,0.0,0.0,0.0,0.0,0.0,0.0,0.0,0.0,0.0,0.0,0.0,0.0,0.0,0.0,0.0,-1.698,-1.7354,-1.8223,-1.8553,-1.8792,-1.8972,-1.9435,-1.969,-1.969,-1.969,-1.969,-1.969,-1.969,-1.969,-1.9711,-1.9818,-2.0104,-2.0516,-2.0975,-2.1399,-2.1823,-2.2163,-2.231,-2.231,-2.231,-2.231,-2.231,-2.231,-2.231,-2.231,0.0,0.0,0.0,0.0,0.0,0.0,0.0,0.0,0.0,0.0,0.0,0.0,-1.2099,-1.3643,-1.5043,-1.6138,-1.7021,-1.7826,-1.8563,-1.9031,-1.8895,-1.8011,-1.8104,-1.7704,-1.6675,-1.614,-1.6501,0.0,0.0,0.0,0.0,0.0,0.0,0.0,0.0,0.0,0.0,0.0,0.0,0.0,-1.9724,0.0,0.0,-1.5487,-1.4531,0.0,0.0,0.0,-1.3966,-1.3825,-1.3071,0.0,0.0,0.0,0.0,0.0,0.0,0.0,0.0,0.0,0.0,0.0,0.0,0.0,0.0,-1.2962,0.0,0.0,0.0,0.0,0.0,0.0,0.0,0.0,0.0,0.0,0.0,0.0,0.0,0.0,0.0,0.0,0.0,0.0,0.0,-1.6652,-1.6458,-1.6592,-1.7249,-1.816,-1.8702,-1.8702,-1.9346,-1.969,-1.969,-1.969,-1.969,-1.969,-1.969,-1.969,-1.9726,-1.9874,-2.0208,-2.0616,-2.1055,-2.1507,-2.1899,-2.218,-2.231,-2.231,-2.231,-2.231,-2.231,-2.231,-2.231,-2.231,0.0,0.0,0.0,0.0,0.0,0.0,0.0,0.0,0.0,0.0,-1.217,-1.3581,-1.5407,-1.6263,-1.7055,-1.8064,-1.8623,-1.9136,-1.9691,-1.9983,-1.9783,-1.8975,-1.8827,-1.8144,-1.6799,-1.6193,-1.6237,0.0,0.0,0.0,0.0,0.0,0.0,0.0,0.0,0.0,0.0,0.0,0.0,-1.6001,-1.832,-1.6966,0.0,0.0,-1.514,0.0,-1.3651,-1.3959,-1.4348,-1.346,-1.3017,0.0,0.0,0.0,0.0,0.0,-0.9725,0.0,0.0,0.0,0.0,0.0,0.0,0.0,-1.2279,-1.2793,-1.3165,0.0,0.0,0.0,0.0,0.0,0.0,0.0,0.0,0.0,0.0,0.0,0.0,0.0,0.0,0.0,0.0,-1.5448,-1.5935,-1.6486,-1.6069,-1.6024,-1.6577,-1.7772,-1.8523,-1.8597,-1.9226,-1.9615,-1.969,-1.969,-1.969,-1.969,-1.969,-1.9711,-1.9782,-2.0158,-2.055,-2.1023,-2.143,-2.184,-2.2237,-2.2282,-2.231,-2.231,-2.231,-2.231,-2.231,-2.231,-2.231,-2.231,-0.6579,0.0,0.0,0.0,0.0,0.0,0.0,0.0,0.0,0.0,-1.4776,-1.5915,-1.7466,-1.8048,-1.852,-1.9006,-1.9337,-1.9649,-1.9926,-2.019,-1.9988,-1.917,-1.9163,-1.8755,-1.7831,-1.6962,-1.6904,0.0,0.0,0.0,0.0,0.0,0.0,0.0,0.0,0.0,0.0,0.0,0.0,-1.3328,-1.4752,0.0,-1.3834,-1.3039,-1.2524,-1.2249,-1.22,-1.2269,-1.2052,0.0,-1.0192,-1.0962,0.0,0.0,0.0,0.0,0.0,0.0,0.0,0.0,0.0,0.0,0.0,0.0,-1.1911,-1.2294,-1.2713,0.0,0.0,0.0,0.0,0.0,0.0,0.0,0.0,0.0,0.0,0.0,0.0,0.0,0.0,0.0,0.0,-1.4982,-1.5283,-1.5399,-1.5654,-1.5858,-1.5978,-1.6667,-1.7339,-1.7861,-1.8553,-1.9151,-1.9675,-1.969,-1.969,-1.969,-1.969,-1.9874,-2.0193,-2.028,-2.055,-2.1023,-2.143,-2.1658,-2.1764,-2.2135,-2.231,-2.231,-2.231,-2.231,-2.231,-2.231,-2.231,-2.231,-0.7112,0.0,0.0,0.0,0.0,0.0,0.0,0.0,0.0,0.0,-1.6048,-1.7143,-1.8136,-1.8823,-1.9225,-1.9283,-1.9582,-1.9838,-2.0038,-2.0185,-1.9763,-1.8657,-1.8362,-1.7734,-1.6733,-1.5879,-1.5843,0.0,0.0,0.0,0.0,0.0,0.0,0.0,0.0,0.0,0.0,0.0,-1.4024,-1.3859,-1.5104,0.0,-1.3221,-1.2864,-1.2484,-1.2082,-1.1861,-1.1805,-1.1578,-1.0117,-0.9203,0.0,0.0,-0.9298,-0.9409,0.0,-0.9824,-1.0064,0.0,0.0,0.0,-1.1267,0.0,0.0,0.0,-1.1457,-1.1989,0.0,0.0,0.0,0.0,0.0,0.0,0.0,0.0,0.0,0.0,0.0,0.0,0.0,0.0,0.0,0.0,-1.4752,-1.5104,-1.5104,-1.5134,-1.5225,-1.5448,-1.605,-1.6806,-1.7667,-1.8358,-1.9016,-1.9675,-1.969,-1.969,-1.969,-1.969,-1.9909,-2.0314,-2.0314,-2.0682,-2.1306,-2.1521,-2.1718,-2.1974,-2.2209,-2.231,-2.231,-2.231,-2.231,-2.231,-2.231,-2.231,-2.2361,-0.7759,0.0,0.0,0.0,0.0,0.0,0.0,0.0,0.0,0.0,0.0,0.0,0.0,0.0,0.0,0.0,-2.0069,-2.0391,0.0,0.0,-1.9755,-1.8292,-1.7588,-1.674,-1.5578,-1.4706,-1.4584,-1.5242,0.0,0.0,0.0,0.0,0.0,0.0,0.0,0.0,0.0,0.0,0.0,-1.4632,0.0,-1.4975,-1.2687,-1.3295,-1.3043,-1.2313,-1.1946,-1.1805,-1.1711,-1.1093,0.0,-0.7019,-0.9906,-0.9632,0.0,0.0,0.0,0.0,0.0,0.0,0.0,0.0,0.0,-1.0727,0.0,0.0,0.0,0.0,0.0,0.0,0.0,0.0,0.0,0.0,0.0,0.0,0.0,0.0,0.0,0.0,0.0,0.0,0.0,-1.4369,-1.4907,-1.4968,-1.469,-1.4627,-1.4968,-1.5693,-1.6568,-1.7555,-1.8324,-1.9016,-1.9675,-1.969,-1.969,-1.969,-1.969,-1.9909,-2.0314,-2.0382,-2.0862,-2.1628,-2.1688,-2.1957,-2.231,-2.231,-2.231,-2.231,-2.231,-2.231,-2.231,-2.231,-2.2395,-2.2598,-0.8774,-0.8607,0.0,0.0,0.0,0.0,0.0,0.0,0.0,0.0,0.0,0.0,0.0,0.0,0.0,0.0,0.0,0.0,-2.1396,0.0,0.0,-1.9146,-1.8255,-1.7411,-1.6564,-1.5179,-1.453,-1.4699,0.0,0.0,0.0,0.0,0.0,0.0,-1.4613,0.0,0.0,0.0,-1.4083,0.0,-1.4378,-1.4186,0.0,-1.294,-1.2617,-1.2184,-1.1897,-1.1805,-1.1559,0.0,-0.866,-0.7851,0.0,-1.0258,-1.1279,0.0,0.0,0.0,0.0,0.0,0.0,0.0,-1.0655,0.0,0.0,0.0,0.0,0.0,0.0,0.0,0.0,0.0,0.0,0.0,0.0,0.0,0.0,0.0,0.0,0.0,0.0,0.0,0.0,0.0,-1.4181,-1.4533,-1.4533,-1.4533,-1.4564,-1.5535,-1.6424,-1.7142,-1.8174,-1.9016,-1.9675,-1.969,-1.969,-1.969,-1.969,-1.9909,-2.0314,-2.0731,-2.1181,-2.1612,-2.2032,-2.2237,-2.231,-2.231,-2.231,-2.231,-2.231,-2.231,-2.231,-2.231,-2.2716,-2.3291,-0.9653,-0.9379,0.0,0.0,0.0,0.0,0.0,0.0,0.0,0.0,0.0,0.0,0.0,0.0,0.0,0.0,0.0,-2.108,0.0,0.0,0.0,0.0,0.0,0.0,-1.5914,-1.5589,-1.5212,-1.4769,-1.4336,0.0,0.0,0.0,0.0,0.0,-1.3459,0.0,-1.424,0.0,0.0,0.0,0.0,0.0,0.0,-1.2845,-1.0931,-0.853,-0.8409,-0.986,-1.1685,0.0,-1.1512,0.0,0.0,0.0,0.0,0.0,0.0,0.0,0.0,0.0,0.0,0.0,0.0,0.0,-1.014,0.0,-1.0331,0.0,0.0,0.0,0.0,0.0,0.0,0.0,0.0,0.0,0.0,0.0,0.0,0.0,0.0,0.0,0.0,0.0,0.0,0.0,-1.3427,-1.3398,-1.3668,-1.5003,-1.6161,-1.706,-1.814,-1.9016,-1.9675,-1.969,-1.969,-1.969,-1.969,-1.9909,-2.0314,-2.0516,-2.0975,-2.1628,-2.1794,-2.2032,-2.231,-2.231,-2.231,-2.231,-2.231,-2.231,-2.231,-2.231,-2.2513,-2.2885,-1.0566,0.0,0.0,0.0,0.0,0.0,0.0,0.0,0.0,0.0,0.0,0.0,-1.9868,-2.065,0.0,0.0,0.0,-2.0402,0.0,0.0,-1.8809,0.0,0.0,0.0,0.0,0.0,-1.5371,-1.4792,0.0,0.0,0.0,0.0,0.0,0.0,0.0,-1.3448,-1.4435,0.0,0.0,-1.4864,-1.4045,-1.3682,-1.3564,-1.2895,-1.052,-0.7243,-0.5053,-0.6123,-0.8558,-0.8558,-1.0817,0.0,-1.3047,0.0,0.0,0.0,0.0,0.0,-1.1682,0.0,0.0,0.0,0.0,0.0,0.0,0.0,0.0,0.0,0.0,0.0,0.0,0.0,0.0,0.0,0.0,0.0,0.0,0.0,0.0,0.0,0.0,0.0,0.0,0.0,0.0,-1.2799,-1.2602,-1.266,-1.3108,-1.4703,-1.6027,-1.6924,-1.8268,-1.9211,-1.969,-1.969,-1.969,-1.969,-1.969,-1.9839,-2.0158,-2.0246,-2.0715,-2.143,-2.1552,-2.1794,-2.2106,-2.2254,-2.2209,-2.2106,-2.2237,-2.231,-2.231,-2.231,-2.2446,-2.275,-1.161,-1.0328,0.0,0.0,0.0,0.0,0.0,0.0,0.0,0.0,0.0,0.0,0.0,0.0,0.0,0.0,0.0,-2.1299,-2.0389,0.0,-1.8988,0.0,0.0,-1.6267,0.0,0.0,0.0,-1.4504,0.0,0.0,0.0,0.0,0.0,0.0,0.0,-1.3391,-1.3034,-1.3944,-1.4418,-1.4474,-1.4119,-1.38,-1.3466,0.0,-1.247,-1.0608,-0.2933,0.0,0.0,-0.0374,-0.3837,0.0,0.0,0.0,0.0,0.0,0.0,0.0,0.0,0.0,0.0,-1.2699,0.0,0.0,0.0,0.0,-0.7178,0.0,0.0,0.0,0.0,0.0,0.0,0.0,0.0,0.0,0.0,0.0,0.0,0.0,0.0,0.0,0.0,0.0,0.0,-1.2119,-1.2423,-1.2761,-1.3182,-1.4902,-1.608,-1.6494,-1.8555,-1.966,-1.969,-1.969,-1.969,-1.969,-1.969,-1.9726,-1.9711,-2.0124,-2.055,-2.1023,-2.143,-2.1628,-2.1658,-2.2106,-2.2032,-2.1658,-2.2106,-2.231,-2.231,-2.231,-2.275,-2.3359,0.0,0.0,0.0,0.0,0.0,0.0,0.0,-1.2233,0.0,0.0,0.0,0.0,0.0,0.0,-2.0439,0.0,0.0,-1.9848,-1.8443,-1.8474,0.0,0.0,0.0,-1.6498,0.0,0.0,0.0,0.0,0.0,0.0,0.0,0.0,0.0,0.0,0.0,-1.3102,0.0,0.0,0.0,0.0,0.0,-1.1413,-0.8985,0.0,0.0,-0.3636,-0.0958,0.0,0.0,0.0,-0.1184,-0.4008,-1.167,-1.4286,-1.4136,-1.2215,-1.1912,0.0,0.0,0.0,-1.2694,-1.3266,0.0,0.0,0.0,0.0,0.0,0.0,0.0,0.0,0.0,0.0,0.0,0.0,0.0,0.0,0.0,0.0,0.0,0.0,0.0,0.0,0.0,0.0,0.0,-1.0367,-1.1073,-1.1687,-1.2165,-1.4641,-1.6187,-1.6473,-1.823,-1.9332,-1.969,-1.969,-1.969,-1.969,-1.969,-1.969,-1.9711,-1.9839,-2.0296,-2.0991,-2.0813,-2.107,-2.1582,-2.1477,-2.1354,-2.126,-2.1658,-2.184,-2.1869,-2.218,-2.2462,-2.2818,-1.2724,0.0,0.0,0.0,0.0,0.0,0.0,0.0,0.0,0.0,-1.6442,0.0,-2.0137,0.0,-1.9687,0.0,-1.9291,-1.8676,-1.7724,-1.7563,0.0,-1.5697,-1.6444,0.0,0.0,0.0,0.0,0.0,0.0,-1.156,0.0,0.0,0.0,0.0,0.0,0.0,0.0,0.0,-1.2636,0.0,0.0,-0.8266,0.0,0.0,-0.0915,0.0,0.0,0.0,-0.0476,-0.3631,-0.3644,-0.3656,-1.1163,-1.4374,-1.5034,-1.34,-1.3171,-1.3491,-1.3819,-1.367,0.0,-1.3961,-1.3384,0.0,-1.1772,0.0,0.0,0.0,0.0,0.0,0.0,0.0,0.0,0.0,0.0,0.0,0.0,-0.8612,0.0,0.0,0.0,0.0,0.0,0.0,-0.9394,-0.9725,-1.0426,-1.1175,0.0,0.0,-1.5743,-1.6212,-1.7773,-1.8855,-1.9406,-1.9406,-1.953,-1.969,-1.969,-1.969,-1.969,-1.969,-2.007,-2.0715,-2.0449,-2.0601,-2.1134,-2.1023,-2.0894,-2.0781,-2.1213,-2.146,-2.1658,-2.2135,-2.231,-2.2513,0.0,0.0,0.0,0.0,-1.2205,0.0,0.0,0.0,-1.4559,0.0,-1.6939,-1.827,-1.9495,-1.8922,-1.8563,-1.8836,-1.8188,0.0,-1.8191,-1.7204,0.0,0.0,-1.5233,-1.4648,-1.4588,0.0,0.0,0.0,0.0,0.0,0.0,0.0,0.0,0.0,-1.0877,0.0,-1.1456,-1.2797,-1.4127,-1.4715,-0.7135,-0.5261,-0.6826,-0.5084,-0.2484,0.0203,0.0055,0.0,-0.1352,-1.0218,-1.0481,-0.7902,-1.2568,-1.4273,-1.4461,-1.4013,-1.4438,-1.4907,-1.4117,-1.3548,-1.3489,-1.4783,0.0,0.0,0.0,0.0,-1.3147,0.0,0.0,0.0,0.0,0.0,0.0,0.0,0.0,0.0,0.0,0.0,0.0,0.0,0.0,0.0,0.0,-0.9116,-0.9618,-1.0118,-1.0488,0.0,0.0,0.0,-1.4869,-1.5651,-1.7227,-1.8341,-1.8855,-1.8893,-1.9169,-1.9639,-1.969,-1.969,-1.969,-1.969,-1.9909,-2.0314,-2.028,-2.028,-2.0348,-2.0764,-2.0665,-2.0314,-2.0797,-2.1213,-2.1628,-2.2106,-2.2327,-2.2564,-1.2438,-1.2598,-1.2363,0.0,-1.103,-1.0538,0.0,0.0,0.0,0.0,-1.5653,-1.7127,-1.8566,-1.8057,-1.7748,-1.8121,-1.7499,0.0,0.0,0.0,0.0,-1.5583,-1.5507,-1.4732,-1.3109,-1.2724,0.0,-1.1589,0.0,0.0,-0.9561,0.0,0.0,0.0,0.0,0.0,-1.0904,-1.2334,-1.3711,-1.4966,-1.5888,-1.1446,0.0,0.0,-0.1167,0.3063,0.0807,0.0,-0.1352,-1.0218,-1.3536,-1.3885,-1.3543,-1.4162,-1.4801,-1.3715,-1.4,-1.4533,-1.4019,-1.4001,-1.4301,-1.4956,-1.3918,-1.2881,0.0,0.0,0.0,0.0,0.0,0.0,0.0,0.0,0.0,0.0,0.0,0.0,0.0,0.0,0.0,-0.8019,0.0,0.0,-0.8287,-0.8328,-0.8599,-0.9246,-0.9882,0.0,0.0,0.0,0.0,-1.5241,-1.6715,-1.7747,-1.8302,-1.8688,-1.8968,-1.9132,-1.953,-1.969,-1.969,-1.969,-1.9909,-2.028,-2.0,-2.0019,-2.028,-2.0104,-1.9945,-1.9909,-2.033,-2.0748,-2.126,-2.202,-2.2649,-2.3241,-1.2452,0.0,0.0,-1.2082,0.0,0.0,-1.1209,0.0,0.0,-1.5263,-1.6675,0.0,-1.814,-1.7776,-1.7504,-1.7428,-1.7039,0.0,0.0,0.0,0.0,-1.593,-1.5553,-1.4919,-1.3964,-1.3113,0.0,-1.0453,0.0,0.0,-0.8211,0.0,0.0,0.0,0.0,-1.1541,0.0,-1.2784,-1.4603,-1.635,-1.3028,0.0,0.0,-0.2418,0.2141,0.412,0.1088,0.0,-0.1052,-0.7989,-1.2768,-1.5505,-1.3736,-1.3906,-1.4518,-1.349,-1.3682,-1.4149,-1.3702,-1.4019,-1.4564,-1.4783,-1.4637,-1.4525,-1.495,-1.5003,-1.5023,0.0,0.0,0.0,0.0,0.0,0.0,0.0,0.0,0.0,0.0,0.0,0.0,0.0,-0.8105,0.0,-0.8452,-0.8393,-0.8525,-0.9131,0.0,0.0,0.0,0.0,0.0,-1.5042,-1.6204,-1.7036,-1.7581,-1.7984,-1.8432,-1.8869,-1.9185,-1.9479,-1.969,-1.969,-1.9803,-2.0035,-1.9818,-1.9854,-2.0035,-1.9782,-1.969,-1.9747,-2.0158,-2.0449,-2.0828,-2.1805,-2.2571,-2.3254,0.0,0.0,0.0,0.0,0.0,0.0,0.0,-1.4609,0.0,-1.7233,0.0,-1.9061,-1.8031,-1.782,-1.7479,-1.685,0.0,-1.6779,-1.708,-1.657,-1.634,-1.6562,-1.553,-1.5169,-1.5664,-1.4227,0.0,0.0,0.0,0.0,0.0,0.0,0.0,0.0,0.0,0.0,0.0,-1.3675,-1.5552,0.0,-0.6093,-0.8297,-1.6256,0.0449,0.5613,0.3394,-0.0698,-0.123,-0.0701,-0.5284,-1.042,-1.4752,-1.3711,-1.3772,-1.4085,-1.3496,-1.3544,-1.3702,-1.3288,-1.3735,-1.4374,-1.447,-1.528,-1.6279,-1.7317,-1.8164,-1.8867,-1.9435,-1.7719,-1.6502,0.0,0.0,0.0,0.0,0.0,0.0,0.0,0.0,0.0,0.0,0.0,0.0,0.0,-0.8847,-0.9035,0.0,0.0,0.0,0.0,0.0,0.0,-1.4817,-1.5644,-1.6315,-1.6845,0.0,-1.7752,-1.8718,-1.8819,-1.9169,-1.969,-1.969,-1.969,-1.969,-1.969,-1.969,-1.9711,-1.9747,-1.9818,-1.9909,-2.0193,-2.0314,-2.0441,-2.1547,-2.2276,-2.2867,0.0,0.0,0.0,0.0,0.0,-1.4405,-1.7613,-1.6833,-1.6236,-1.7344,-1.8701,-1.9197,-1.8249,-1.7677,-1.7204,-1.6743,-1.6273,0.0,0.0,0.0,0.0,-1.5963,-1.5754,-1.5424,-1.4977,-1.4212,-1.2478,0.0,0.0,0.0,0.0,0.0,0.0,0.0,0.0,0.0,-1.3085,-1.4014,0.0,-1.1408,-1.103,-0.7972,-0.2885,0.4125,0.4301,-0.0478,-1.015,-0.7759,-0.0816,-0.6202,-1.1073,-1.4878,-1.4689,-1.4689,-1.4664,-1.411,-1.3654,-1.3301,-1.3232,-1.3288,-1.3615,-1.431,-1.5055,-1.5839,-1.669,-1.7817,-1.8732,-1.8852,-1.8514,-1.7859,-1.6793,0.0,0.0,0.0,0.0,0.0,0.0,0.0,0.0,0.0,0.0,0.0,0.0,0.0,0.0,0.0,0.0,0.0,0.0,0.0,0.0,0.0,-1.4995,0.0,0.0,0.0,-1.7612,-1.8226,-1.8684,-1.9169,-1.969,-1.969,-1.969,-1.969,-1.969,-1.969,-1.9726,-2.0054,-2.0416,-2.0731,-2.0416,-2.0314,-2.0435,-2.1401,-2.207,-2.2686,0.0,0.0,0.0,0.0,0.0,0.0,0.0,-1.8348,0.0,-1.9493,-1.9825,-1.967,-1.8905,-1.8343,-1.7802,-1.7281,-1.6967,-1.6787,-1.6787,-1.6458,-1.6278,-1.6278,-1.5978,0.0,-1.5334,-1.5031,-1.3121,-0.9549,0.0,0.0,0.0,0.0,0.0,0.0,0.0,-1.2598,0.0,0.0,0.0,-1.0773,-1.3142,-1.1525,-0.7226,-0.2754,-0.0604,-0.1456,-1.2542,-1.3094,-0.8926,-1.1224,-1.3659,-1.563,-1.5092,-1.5104,-1.5128,-1.4337,-1.3896,-1.3596,-1.3286,-1.3391,-1.3702,-1.4342,-1.4914,-1.5541,-1.6468,-1.7458,-1.8283,-1.8627,-1.8702,-1.8074,-1.6053,-1.4541,0.0,0.0,0.0,0.0,0.0,0.0,0.0,0.0,0.0,0.0,0.0,0.0,0.0,0.0,0.0,0.0,0.0,0.0,0.0,0.0,0.0,0.0,0.0,0.0,0.0,-1.8106,-1.8337,-1.8893,-1.969,-1.969,-1.969,-1.969,-1.969,-1.969,-1.9726,-1.9909,-2.0104,-2.0311,-2.007,-2.0,-2.0167,-2.1561,-2.2202,-2.2649,0.0,-1.3138,0.0,0.0,-1.509,0.0,-1.8398,-1.9306,-2.0151,-2.1189,-2.0797,-2.0195,-1.9533,-1.9015,-1.8493,-1.7951,-1.7772,-1.7697,-1.7697,-1.7204,-1.6921,-1.6921,-1.6458,-1.6218,-1.6218,-1.6054,-1.4065,0.0,0.0,0.0,0.0,0.0,0.0,0.0,0.0,0.0,0.0,0.0,-1.3224,-1.1872,-1.3943,-1.486,-1.4613,-1.1136,-0.7194,-0.4658,-1.3348,-1.6522,-1.6434,-1.5815,-1.6045,-1.6371,-1.5492,-1.5354,-1.5341,-1.4513,-1.4097,-1.3821,-1.3311,-1.3459,-1.3835,-1.4278,-1.4788,-1.5463,-1.6539,-1.7364,-1.8041,-1.8597,-1.8597,-1.7837,-1.5758,-1.5389,0.0,0.0,0.0,0.0,0.0,0.0,0.0,0.0,0.0,0.0,0.0,0.0,0.0,0.0,0.0,0.0,0.0,0.0,0.0,0.0,0.0,-1.5147,-1.5773,0.0,-1.7034,-1.8082,-1.8106,-1.865,-1.969,-1.969,-1.969,-1.969,-1.969,-1.9747,-1.9854,-1.9854,-1.9874,-1.998,-1.9889,-1.9893,-2.0237,-2.1815,-2.249,-2.2898,0.0,0.0,0.0,0.0,0.0,0.0,-1.997,-1.9638,-1.9395,-2.0322,-2.0715,-2.0616,-1.9763,-1.9096,-1.8672,-1.8612,-1.8041,-1.7697,-1.7697,-1.7637,-1.7608,-1.7608,-1.7533,-1.7503,-1.7503,-1.6921,-1.5211,0.0,0.0,0.0,0.0,0.0,0.0,0.0,0.0,0.0,0.0,-1.4639,-1.4333,-1.3105,-1.3918,-1.4723,-1.5329,-1.4876,-1.4852,-1.5103,-1.6145,-1.6522,-1.6509,-1.6446,-1.6459,-1.6497,-1.6396,-1.5718,-1.4966,-1.4865,-1.4086,-1.3261,-1.3223,-1.3232,-1.3391,-1.3835,-1.4719,-1.5736,-1.6824,-1.7851,-1.8627,-1.8687,-1.8223,-1.7421,-1.6247,-1.6402,-1.6484,0.0,0.0,0.0,0.0,0.0,0.0,0.0,0.0,0.0,0.0,0.0,0.0,0.0,0.0,0.0,0.0,0.0,0.0,-1.3092,0.0,-1.4274,-1.4488,-1.5811,-1.7047,-1.8096,-1.809,-1.865,-1.969,-1.969,-1.969,-1.969,-1.969,-1.9909,-2.0246,-2.0246,-2.0483,-2.0829,-2.0416,-2.0632,-2.1265,-2.2081,-2.2785,-2.3576,0.0,0.0,0.0,0.0,0.0,0.0,0.0,-2.0131,-2.0496,-2.0302,-2.0449,-2.055,-2.0481,-1.9996,-1.9569,-1.9321,-1.9046,-1.8897,-1.8897,-1.8523,-1.8313,-1.8313,-1.7891,-1.7697,-1.7697,-1.7428,-1.6425,0.0,0.0,0.0,0.0,0.0,0.0,0.0,0.0,-1.4342,-1.3906,-1.4339,-1.4235,-1.3784,-1.3933,-1.4643,-1.5496,-1.5109,-1.5591,-1.6522,-1.6522,-1.6522,-1.6522,-1.6522,-1.6522,-1.6522,-1.6522,-1.622,-1.5731,-1.5104,-1.4789,-1.45,-1.3473,-1.3632,-1.4076,-1.3927,-1.4584,-1.5378,-1.5794,-1.6535,-1.7148,-1.7148,-1.6731,-1.6127,-1.5294,-1.5391,-1.5586,0.0,0.0,0.0,0.0,0.0,0.0,0.0,0.0,0.0,0.0,0.0,0.0,0.0,0.0,0.0,0.0,0.0,0.0,-1.3394,0.0,-1.515,-1.569,-1.6251,-1.7077,-1.8104,-1.8107,-1.865,-1.969,-1.969,-1.969,-1.9711,-1.998,-2.0,-1.9965,-2.0499,-2.0532,-2.0289,-2.1072,-2.121,-2.1157,-2.286,-2.3441,-2.3577,-1.666,0.0,-1.7787,0.0,-1.8454,-1.9403,-1.9076,-2.0176,-2.091,-2.055,-2.0382,-2.0483,-2.0959,-2.0465,-2.0054,-1.9909,-1.9782,-1.969,-1.969,-1.9256,-1.8986,-1.8986,-1.8553,0.0,-1.8298,-1.8071,-1.7582,-1.6729,-1.5133,0.0,0.0,0.0,0.0,0.0,-1.5432,-1.5307,-1.5477,-1.5309,-1.503,-1.474,-1.4491,-1.4773,-1.5276,-1.4652,-1.5062,-1.5976,-1.5976,-1.6107,-1.6238,-1.6238,-1.6337,-1.6522,-1.6522,-1.6409,-1.6095,-1.5153,-1.5079,-1.4915,-1.3561,-1.3705,-1.4176,-1.3773,-1.431,-1.4932,-1.5008,-1.5595,-1.607,-1.5941,-1.5525,-1.5045,-1.441,-1.4419,-1.4458,-1.4388,0.0,0.0,0.0,0.0,0.0,0.0,-0.8219,-0.7987,-1.0597,0.0,0.0,0.0,0.0,0.0,0.0,0.0,0.0,0.0,0.0,0.0,0.0,-1.611,-1.6895,-1.8078,-1.8117,-1.865,-1.9711,-1.9818,-1.9874,-1.9909,-2.033,-2.033,-2.017,-2.0985,-2.0964,-2.0527,-2.1893,-2.2059,-2.1698,-2.3518,-2.3992,-2.3857,-2.0607,-2.0131,-1.9467,-1.9387,-1.9058,-1.894,-1.9321,-1.9569,-2.0015,-2.0862,-2.0583,-2.0483,-2.0959,-2.0208,-1.9874,-2.0246,-1.9945,-1.969,-1.969,-1.9675,-1.9675,0.0,0.0,-1.966,-1.966,-1.9031,-1.8687,-1.8672,0.0,0.0,-1.6658,0.0,-1.5719,-1.6876,-1.6456,-1.6952,-1.8051,-1.8025,-1.741,-1.6323,-1.5724,-1.5184,-1.4663,-1.405,-1.419,-1.4698,-1.4698,-1.5096,-1.5632,-1.5632,-1.6008,-1.6522,-1.6522,-1.6145,-1.5593,-1.5079,-1.4525,-1.3984,-1.3348,-1.3198,-1.321,-1.3198,-1.3868,-1.4557,-1.4753,-1.5499,-1.6006,-1.5599,-1.4994,-1.4388,-1.4,-1.396,-1.3616,-1.2413,0.0,0.0,0.0,0.0,0.0,0.0,-0.8222,-1.0054,-1.0812,0.0,0.0,0.0,0.0,0.0,0.0,0.0,0.0,-1.341,-1.412,0.0,-1.4241,-1.5023,-1.6324,-1.8092,-1.8092,-1.865,-1.9711,-2.0124,-2.028,-2.0314,-2.0797,-2.1007,-2.1055,-2.1793,-2.2066,-2.2146,-2.2887,-2.3269,-2.3429,-2.4,-2.4293,-2.4455,-1.9901,-1.9847,-1.9641,-1.9606,-1.9517,-1.9446,-1.9572,-1.9897,-2.0227,-2.0483,-2.0382,-2.0483,-2.0959,-2.0764,-2.0413,0.0,-2.0019,-2.0,0.0,-1.969,-1.969,-1.969,-1.969,-1.969,-1.969,-1.948,-1.9375,-1.9375,0.0,0.0,0.0,-1.8921,-1.9178,-1.921,-1.8789,-1.8408,-1.8098,-1.8098,-1.747,-1.6371,-1.5362,-1.4871,-1.4617,-1.3563,-1.3552,-1.4097,-1.4097,-1.4468,-1.5062,-1.5454,-1.572,-1.5952,-1.638,-1.6396,-1.6145,-1.5593,-1.5567,-1.553,-1.4601,-1.4626,-1.4827,-1.445,-1.4767,-1.5083,-1.4814,-1.4969,-1.5146,-1.5095,-1.492,-1.4614,-1.4133,-1.3753,-1.3311,-1.273,-1.1604,0.0,0.0,0.0,0.0,0.0,-1.0381,-1.0286,0.0,-1.1363,0.0,0.0,0.0,0.0,0.0,0.0,0.0,0.0,-1.4546,0.0,-1.515,-1.5865,-1.6671,-1.7544,-1.7947,-1.865,-1.9711,-2.0124,-2.0314,-2.0348,-2.107,-2.1244,-2.1055,-2.1892,-2.2161,-2.2195,-2.3159,-2.3487,-2.3468,-2.4092,-2.4122,-2.3819,-1.96,-1.969,-1.969,-1.969,-1.969,-1.969,-1.969,-1.9909,-2.0054,-2.0054,-2.0054,-2.0193,-2.0481,-2.0665,0.0,-2.0208,-2.0139,-2.0035,-1.9929,-1.9782,-1.969,-1.969,-1.969,-1.969,-1.969,-1.9839,0.0,-1.9945,-1.9815,-2.0004,-2.045,-2.0809,-2.0829,-2.055,-1.9945,-1.9343,-1.8693,-1.8693,-1.8067,-1.6996,-1.5802,-1.5057,-1.4571,-1.3344,-1.3152,-1.3457,-1.3457,-1.3826,-1.4422,-1.4824,-1.5219,-1.5676,-1.6051,-1.6337,-1.6409,-1.5856,-1.5944,-1.6019,-1.5155,-1.5128,-1.5304,-1.4991,-1.5335,-1.5644,-1.5125,-1.4897,-1.4694,-1.4336,-1.4588,-1.46,-1.3691,-1.3262,-1.2758,-1.1959,-1.0861,-1.0586,-1.1945,0.0,0.0,0.0,0.0,0.0,0.0,-1.11,-1.0891,0.0,0.0,0.0,0.0,0.0,0.0,-1.3384,-1.4421,0.0,-1.5514,-1.5741,-1.6297,-1.7312,-1.8066,-1.8855,-1.9726,-2.0593,-2.0819,-2.0632,-2.1786,-2.1983,-2.154,-2.2362,-2.2642,-2.2702,-2.3703,-2.3942,-2.3732,-2.4222,-2.3921,-2.3191,-1.969,-1.969,0.0,0.0,-1.969,0.0,-1.969,-1.969,-1.969,-1.969,-1.969,-1.9711,-1.9747,-2.007,-2.0516,-2.0991,0.0,0.0,0.0,-1.9929,-1.9711,-1.9747,-1.9747,-1.9747,-1.9747,-2.0124,-2.0348,-2.0382,-2.1197,-2.1823,-2.2282,-2.1462,-2.1039,-2.0959,-2.012,-1.9726,-1.969,-1.969,-1.908,-1.8013,-1.6783,-1.5612,-1.4514,-1.3286,-1.2822,-1.2822,-1.2822,-1.3238,-1.3721,-1.3779,-1.4584,-1.5543,-1.5588,-1.5996,-1.6421,-1.5906,-1.5756,-1.5643,-1.5167,-1.5029,-1.5055,-1.5055,-1.5713,-1.6228,-1.5737,-1.5329,-1.4727,-1.3672,-1.4274,-1.4524,-1.2914,-1.2635,-1.2107,-1.0488,-1.0405,-1.0643,-1.0822,0.0,0.0,0.0,0.0,0.0,0.0,-0.9839,-1.0659,0.0,0.0,0.0,0.0,0.0,-1.3775,-1.357,-1.3764,-1.435,-1.529,-1.4811,-1.5484,-1.7312,-1.8383,-1.9191,-1.9765,-2.1403,-2.1776,-2.1247,-2.2745,-2.3004,-2.2446,-2.3054,-2.3376,-2.3566,-2.4398,-2.4489,-2.4191,-2.4358,-2.3677,-2.2709,0.0,0.0,-1.969,-1.969,-1.969,-1.969,-1.969,-1.969,-1.969,-1.969,-1.969,-1.9818,-2.0124,-2.0246,-2.0601,-2.1399,-2.0649,-2.0364,-2.0797,-2.0104,-1.9839,-2.0158,-2.0158,-2.0158,-2.0158,-2.0583,-2.0975,-2.129,-2.1491,-2.1823,-2.2282,-2.1735,-2.1275,-2.0959,-2.0431,-2.0,-1.969,-1.969,-1.908,-1.8013,-1.6783,-1.5357,-1.381,-1.2541,-1.208,-1.208,-1.208,-1.2491,-1.32,-1.3637,-1.4283,-1.5005,-1.5454,-1.5996,-1.6497,-1.6358,-1.6321,-1.6296,-1.617,-1.644,-1.6754,-1.6754,-1.6911,-1.7033,-1.6888,-1.6467,-1.6035,-1.5774,-1.5944,-1.5616,-1.4009,-1.3453,-1.2641,-1.0853,-1.0401,-0.9994,-0.9394,-0.9628,0.0,0.0,-1.0416,-1.0409,-1.031,-1.0447,-1.0067,0.0,0.0,0.0,0.0,-1.2066,-1.2292,-1.2229,-1.3271,-1.3949,-1.4178,-1.4949,-1.6014,-1.7312,-1.848,-1.9336,-1.9905,-2.1947,-2.2767,-2.2625,-2.3164,-2.3291,-2.3105,-2.2733,-2.3224,-2.4225,-2.4017,-2.4362,-2.4882,-2.453,-2.3677,-2.2649,-1.969,-1.969,-1.969,-1.969,-1.969,-1.969,-1.969,-1.969,-1.969,-1.969,-1.969,-1.9839,-2.0246,-2.0314,-2.0634,-2.1521,-2.1007,-2.0813,-2.1244,-2.0665,-2.0398,-2.0616,-2.0616,-2.0616,-2.0616,-2.1055,-2.1477,-2.1928,-2.1928,-2.2032,-2.2282,-2.1823,-2.1399,-2.0959,-2.0516,-2.007,-1.969,-1.969,-1.908,-1.8013,-1.6783,-1.5257,-1.3554,-1.2288,-1.1814,-1.1814,-1.1814,-1.2295,-1.2978,-1.3286,-1.3967,-1.4755,-1.5107,-1.5788,-1.6522,-1.6522,-1.6522,-1.6522,-1.6522,-1.6879,-1.7435,-1.7907,-1.7857,-1.7661,-1.7678,-1.7261,-1.6744,-1.6228,-1.6122,-1.5629,-1.4033,-1.3332,-1.2567,-1.1094,-1.0321,-0.9779,-0.9366,-0.9857,0.0,-1.001,-1.0709,-1.0927,-1.011,-1.0366,-1.0083,-0.8873,-1.0109,0.0,-1.0785,-1.1557,-1.2312,-1.2925,-1.3226,-1.3505,-1.3815,-1.5005,-1.6015,-1.6925,-1.8412,-1.9387,-1.998,-2.2471,-2.3407,-2.3173,-2.4219,-2.4181,-2.3388,-2.3181,-2.3227,-2.3485,-2.3391,-2.3536,-2.3713,-2.3643,-2.2849,-2.1769,-1.9566,-1.9566,-1.9603,-1.969,-1.969,-1.969,-1.969,-1.969,-1.969,-1.969,-1.969,-1.9874,-2.0348,-2.0416,-2.0748,-2.1628,-2.1385,-2.1354,-2.1688,-2.1244,-2.1039,-2.1086,-2.1086,-2.1086,-2.1086,-2.1491,-2.1899,-2.231,-2.231,-2.231,-2.2282,-2.1899,-2.143,-2.0991,-2.0583,-2.0124,-1.969,-1.969,-1.908,-1.8013,-1.6783,-1.5201,-1.3402,-1.2132,-1.1566,-1.1516,-1.1616,-1.2138,-1.2764,-1.2968,-1.3789,-1.4709,-1.4789,-1.5599,-1.6522,-1.6595,-1.6637,-1.6637,-1.6637,-1.7076,-1.7787,-1.8765,-1.8688,-1.8317,-1.8252,-1.781,-1.7143,-1.6159,-1.5865,-1.533,-1.3697,-1.3092,-1.2396,-1.1113,-1.0368,-0.9829,-0.9635,0.0,-1.0488,-0.9442,-1.0841,-1.1138,-0.9183,-0.9889,-1.0148,-0.9466,-1.0549,-1.0921,-1.0073,-1.1231,-1.2494,-1.3799,-1.3011,-1.2939,-1.3616,-1.4664,-1.5599,-1.643,-1.8227,-1.9474,-2.0255,-2.307,-2.404,-2.3632,-2.5431,-2.5193,-2.3575,-2.3895,-2.3399,-2.2512,-2.2849,-2.262,-2.2229,-2.2668,-2.1984,-2.0961,-1.893,-1.9006,-1.9169,-1.9603,-1.969,-1.969,-1.969,-1.969,-1.969,-1.969,-1.969,-2.0015,-2.0797,-2.0894,-2.1244,-2.2106,-2.2135,-2.2106,-2.218,-2.1446,-2.115,-2.1491,-2.1491,-2.1491,-2.1491,-2.1974,-2.2237,-2.231,-2.231,-2.231,-2.231,-2.2225,-2.1781,-2.0991,-2.0926,-2.0447,-1.969,-1.969,-1.908,-1.8013,-1.6783,-1.4933,-1.2724,-1.1431,-1.0618,-1.0167,-1.0762,-1.1366,-1.212,-1.3294,-1.4097,-1.4789,-1.532,-1.5964,-1.6595,-1.7034,-1.7188,-1.7188,-1.7188,-1.7907,-1.8817,-1.9406,-1.953,-1.9339,-1.889,-1.8349,-1.7813,-1.7196,-1.6687,-1.5886,-1.4286,-1.3928,-1.3153,-1.094,-1.0785,-1.033,-0.8456,0.0,-0.9917,-0.8558,-0.9608,-0.9943,-0.8707,-0.9265,-0.9244,-0.8247,-0.8827,-0.9756,-1.1022,-1.0489,-1.0649,-1.1654,-1.1304,-1.1706,-1.2918,-1.3148,-1.4283,-1.6426,-1.8273,-1.9986,-2.1483,-2.3959,-2.5239,-2.5563,-2.6016,-2.5485,-2.4316,-2.4102,-2.3708,-2.3211,-2.2876,-2.2833,-2.2968,-2.3203,-2.2543,-2.1635,-1.8779,-1.8893,-1.908,-1.9603,-1.969,-1.969,-1.969,-1.969,-1.969,-1.969,-1.969,-2.0015,-2.0894,-2.0991,-2.1354,-2.2209,-2.231,-2.231,-2.231,-2.1915,-2.1781,-2.1974,-2.1974,-2.1974,-2.1974,-2.218,-2.231,-2.231,-2.231,-2.231,-2.2282,-2.2032,-2.1584,-2.0991,-2.0731,-2.0261,-1.969,-1.969,-1.908,-1.8013,-1.6783,-1.4832,-1.257,-1.1282,-1.0618,-1.0364,-1.0669,-1.1475,-1.2491,-1.3132,-1.392,-1.4744,-1.5017,-1.5744,-1.6552,-1.6795,-1.7271,-1.7787,-1.8066,-1.8535,-1.9043,-1.9566,-1.969,-1.9639,-1.9406,-1.8688,-1.7933,-1.7341,-1.6346,-1.5265,-1.4189,-1.3542,-1.2646,-1.1229,-1.0389,0.0,0.0,-0.9224,-0.9435,-0.9161,-0.9946,-1.0098,-0.8952,-0.922,-0.9136,-0.8254,-0.8564,-0.8982,-0.935,-0.892,-0.8669,-0.8736,-0.9683,-1.0713,-1.1702,-1.2734,-1.4185,-1.595,-1.8474,-2.0382,-2.1801,-2.4122,-2.5603,-2.6319,-2.6857,-2.6225,-2.4815,-2.4855,-2.4056,-2.2794,-2.2675,-2.2606,-2.2518,-2.2742,-2.2339,-2.1799,-1.8602,-1.8688,-1.893,-1.9566,-1.969,-1.969,-1.969,-1.969,-1.969,-1.969,-1.969,-2.0015,-2.0894,-2.0991,-2.1354,-2.2209,-2.231,-2.231,-2.231,-2.231,-2.231,-2.231,-2.231,-2.231,-2.231,-2.231,-2.2254,-2.2135,-2.2135,-2.2077,-2.1991,-2.1628,-2.1244,-2.0829,-2.0449,-2.007,-1.969,-1.969,-1.908,-1.8013,-1.6783,-1.4832,-1.257,-1.1481,-1.0864,-1.0618,-1.0914,-1.1733,-1.2715,-1.3007,-1.3836,-1.4698,-1.488,-1.5644,-1.6522,-1.6637,-1.7463,-1.8419,-1.893,-1.9095,-1.9169,-1.9603,-1.969,-1.969,-1.969,-1.8855,-1.792,-1.7301,-1.5998,-1.4759,-1.4005,-1.3118,-1.2257,-1.1471,0.0,0.0,0.0,-0.9064,-0.8939,-0.9553,-1.0204,-1.0095,-0.8918,-0.9217,-0.9174,-0.8349,-0.8604,-0.848,-0.7723,-0.7551,-0.695,-0.586,-0.7858,-0.9423,-1.0292,-1.196,-1.3755,-1.5706,-1.8519,-2.0684,-2.2332,-2.4507,-2.5917,-2.6737,-2.7625,-2.6911,-2.5118,-2.5473,-2.4287,-2.2304,-2.2254,-2.2118,-2.2025,-2.2143,-2.207,-2.2049,-1.8057,-1.8185,-1.8496,-1.953,-1.969,-1.969,-1.969,-1.969,-1.969,-1.969,-1.969,-2.0015,-2.0894,-2.0991,-2.1354,-2.2209,-2.231,-2.231,-2.231,-2.231,-2.231,-2.231,-2.231,-2.231,-2.231,-2.231,-2.2106,-2.1658,-2.1658,-2.146,-2.1103,-2.1055,-2.0797,-2.0348,-2.0314,-2.007,-1.969,-1.969,-1.908,-1.8013,-1.6783,-1.4832,-1.2618,-1.1975,-1.0965,-1.0064,-1.1266,-1.1765,-1.2061,-1.3331,-1.4143,-1.4789,-1.5365,-1.5964,-1.6595,-1.7118,-1.7987,-1.8968,-1.9479,-1.9639,-1.9639,-1.969,-1.969,-1.969,-1.969,-1.8855,-1.792,-1.7301,-1.6328,-1.5173,-1.4043,-1.3384,-1.2642,-1.1398,0.0,0.0,-0.917,-0.8606,-0.8383,-0.8753,-0.9288,-0.9163,-0.8074,-0.8904,-0.9074,-0.8004,-0.8484,-0.848,-0.7723,-0.7042,-0.572,-0.3591,-0.5684,-0.7475,-0.8829,-0.9629,-1.2122,-1.6241,-1.8151,-2.0827,-2.406,-2.5678,-2.6704,-2.7269,-2.8057,-2.7112,-2.5118,-2.5473,-2.4287,-2.2225,-2.1419,-2.1471,-2.1991,-2.1797,-2.2124,-2.2765,-1.7988,-1.838,-1.8817,-1.9566,-1.969,-1.969,-1.969,-1.969,-1.969,-1.969,-1.969,-2.0015,-2.0894,-2.0991,-2.1354,-2.2209,-2.231,-2.231,-2.231,-2.231,-2.231,-2.231,-2.231,-2.2163,-2.1869,-2.1869,-2.1794,-2.1582,-2.1582,-2.1521,-2.1368,-2.1118,-2.0764,-2.028,-2.0035,-1.9839,-1.969,-1.969,-1.9281,-1.8482,-1.6907,-1.5298,-1.3683,-1.2308,-1.1466,-1.1116,-1.1616,-1.208,-1.2647,-1.3484,-1.419,-1.4789,-1.541,-1.5996,-1.6595,-1.7146,-1.7585,-1.8106,-1.8968,-1.9442,-1.969,-1.969,-1.969,-1.9603,-1.9281,-1.8612,-1.7746,-1.6401,-1.554,-1.4538,-1.288,-1.2407,-1.1808,-1.0304,0.0,-0.9593,-0.9226,-0.9082,-0.927,-0.9999,-1.0259,-1.0247,-0.9983,-0.9922,-0.9891,-0.9714,-0.9526,-0.9086,-0.8383,-0.5494,-0.2877,-0.0706,-0.0975,-0.3133,-0.7301,-0.922,-1.2243,-1.6325,-1.8959,-2.1721,-2.461,-2.5891,-2.7143,-2.8234,-2.8358,-2.7625,-2.6292,-2.5814,-2.4378,-2.2548,-2.2504,-2.2557,-2.2748,-2.3378,-2.37,-2.3836,-1.8028,-1.8535,-1.908,-1.9603,-1.969,-1.969,-1.969,-1.969,-1.969,-1.969,-1.969,-1.998,-2.0698,-2.0797,-2.1118,-2.2003,-2.2077,-2.2135,-2.2282,-2.231,-2.231,-2.231,-2.231,-2.2077,-2.1628,-2.1748,-2.1705,-2.1399,-2.1521,-2.1538,-2.1399,-2.0991,-2.0616,-2.028,-1.9874,-1.969,-1.969,-1.969,-1.9406,-1.875,-1.7208,-1.5757,-1.4372,-1.2974,-1.2159,-1.1814,-1.208,-1.2452,-1.2968,-1.3372,-1.4061,-1.4789,-1.5186,-1.5876,-1.6595,-1.7146,-1.7435,-1.7747,-1.865,-1.9281,-1.969,-1.969,-1.969,-1.9566,-1.9006,-1.8496,-1.7626,-1.5842,-1.5061,-1.4122,-1.215,-1.1715,-1.1172,-0.9874,-0.955,-0.9485,-0.9449,-0.9605,-1.0014,-1.0818,-1.1032,-1.1139,-1.1077,-1.0742,-1.0578,-1.0681,-1.0495,-0.9688,-0.8059,-0.389,-0.0312,0.2491,0.4104,0.2331,-0.323,-0.7351,-1.1737,-1.6409,-1.9779,-2.3022,-2.6062,-2.7203,-2.8434,-2.9695,-2.9357,-2.8631,-2.7591,-2.6512,-2.503,-2.3449,-2.3516,-2.349,-2.3503,-2.4132,-2.4255,-2.4184,-1.811,-1.8535,-1.908,-1.9603,-1.969,-1.969,-1.969,-1.969,-1.969,-1.969,-1.969,-1.9839,-2.0246,-2.0314,-2.0634,-2.1521,-2.1598,-2.1794,-2.2254,-2.231,-2.231,-2.231,-2.231,-2.2077,-2.1628,-2.2032,-2.1886,-2.0991,-2.1399,-2.1399,-2.0991,-2.0516,-2.0314,-2.028,-1.9874,-1.969,-1.969,-1.9711,-1.9406,-1.8803,-1.7666,-1.6126,-1.4462,-1.3996,-1.2986,-1.1913,-1.2618,-1.2881,-1.2881,-1.2929,-1.3705,-1.4698,-1.4698,-1.5522,-1.6595,-1.7146,-1.7666,-1.8224,-1.8727,-1.9281,-1.969,-1.969,-1.969,-1.9566,-1.9006,-1.8496,-1.7612,-1.5842,-1.5061,-1.4122,-1.215,-1.145,-1.0954,-1.0285,-0.9592,-0.9298,-0.9853,-1.0099,-1.0391,-1.0859,-1.1399,-1.149,-1.0899,-1.1058,-1.1001,-1.0477,-1.1261,-1.015,-0.6582,-0.2511,0.1608,0.5841,0.9286,0.8727,0.3883,-0.3434,-1.0246,-1.6542,-2.0527,-2.4628,-2.8742,-2.9886,-3.0893,-3.1682,-3.1224,-3.0226,-2.8817,-2.7609,-2.6302,-2.5005,-2.4208,-2.399,-2.4047,-2.3576,-2.3509,-2.3681,-1.8577,-1.9095,-1.953,-1.969,-1.969,-1.969,-1.969,-1.969,-1.969,-1.969,-1.969,-1.9839,-2.0246,-2.0314,-2.055,-2.1118,-2.1181,-2.1354,-2.1794,-2.2106,-2.231,-2.231,-2.1974,-2.1598,-2.1181,-2.1323,-2.1415,-2.143,-2.1521,-2.1521,-2.1399,-2.0991,-2.0616,-2.028,-1.9874,-1.969,-1.9711,-2.0,-1.9859,-1.9391,-1.8532,-1.7223,-1.5671,-1.4711,-1.3632,-1.2608,-1.2822,-1.2881,-1.2968,-1.3372,-1.4061,-1.4835,-1.57,-1.6207,-1.6595,-1.7146,-1.7435,-1.7747,-1.865,-1.9006,-1.9244,-1.9603,-1.969,-1.9442,-1.8535,-1.8224,-1.7504,-1.5374,-1.4824,-1.3971,-1.1548,-1.0972,-1.0475,-0.9133,-0.9205,-0.962,-1.0347,-1.0989,-1.1836,-1.301,-1.329,-1.3422,-1.3523,-1.3517,-1.364,-1.3935,-1.4618,-1.4266,-1.2652,-0.448,0.1238,0.3666,1.0898,1.2441,0.77,-0.0897,-0.8823,-1.6107,-2.2149,-2.6644,-2.9601,-3.0882,-3.1843,-3.2487,-3.15,-3.0667,-2.9867,-2.7912,-2.6222,-2.486,-2.4613,-2.4168,-2.37,-2.442,-2.4444,-2.4225,-1.8779,-1.9169,-1.9442,-1.9639,-1.969,-1.969,-1.969,-1.969,-1.969,-1.969,-1.969,-1.9782,-2.0035,-2.0054,-2.0227,-2.0682,-2.0894,-2.1086,-2.1337,-2.1645,-2.1705,-2.1507,-2.1244,-2.1134,-2.1244,-2.1415,-2.1538,-2.1582,-2.1582,-2.1582,-2.1582,-2.1007,-2.0583,-2.028,-1.9874,-1.9782,-1.9929,-2.0177,-2.0261,-2.0124,-1.9301,-1.8142,-1.6734,-1.5433,-1.4275,-1.3238,-1.2968,-1.3065,-1.3334,-1.3684,-1.4365,-1.5276,-1.6441,-1.6837,-1.6951,-1.7706,-1.7947,-1.8145,-1.8968,-1.9207,-1.9281,-1.9603,-1.953,-1.9169,-1.8302,-1.7947,-1.719,-1.5129,-1.4698,-1.3918,-1.1403,-1.0796,-1.0293,-0.9267,-0.9221,-0.9868,-1.1366,-1.2109,-1.3054,-1.4499,-1.4893,-1.5097,-1.5292,-1.5385,-1.5872,-1.6917,-1.7479,-1.7167,-1.577,-0.5788,0.1043,0.3549,1.2589,1.547,1.1446,0.1523,-0.7431,-1.5383,-2.2918,-2.8012,-3.085,-3.2206,-3.3229,-3.3885,-3.2471,-3.1616,-3.1067,-2.8719,-2.705,-2.5975,-2.5461,-2.4802,-2.417,-2.4713,-2.4536,-2.4116,-1.8741,-1.8855,-1.9043,-1.953,-1.969,-1.969,-1.969,-1.969,-1.969,-1.969,-1.969,-1.969,-1.969,-1.969,-1.9839,-2.0212,-2.0665,-2.0926,-2.0926,-2.0959,-2.0797,-2.0382,-2.0348,-2.0732,-2.1521,-2.1974,-2.2003,-2.1582,-2.1582,-2.1582,-2.1582,-2.0732,-2.0382,-2.0416,-2.0015,-2.0035,-2.0348,-2.0416,-2.0649,-2.0926,-2.0078,-1.8965,-1.7699,-1.6211,-1.4937,-1.3862,-1.319,-1.3372,-1.3909,-1.3956,-1.4721,-1.584,-1.6967,-1.7353,-1.7585,-1.8612,-1.8893,-1.9006,-1.9566,-1.969,-1.969,-1.969,-1.9244,-1.8688,-1.8224,-1.7706,-1.6828,-1.5141,-1.4744,-1.3982,-1.1715,-1.0802,-1.0381,-1.0237,-0.9662,-1.0109,-1.2692,-1.3386,-1.4199,-1.5696,-1.6297,-1.6599,-1.6597,-1.6982,-1.789,-1.9499,-1.9943,-1.9296,-1.7352,-0.7144,0.0329,0.4032,1.3735,1.7302,1.4023,0.3265,-0.6351,-1.4765,-2.3164,-2.8925,-3.2261,-3.3665,-3.4785,-3.55,-3.3773,-3.2776,-3.2216,-2.9725,-2.8359,-2.7689,-2.6437,-2.5615,-2.5067,-2.4511,-2.4032,-2.3595,-1.8347,-1.8612,-1.893,-1.9043,-1.9406,-1.969,-1.969,-1.969,-1.969,-1.969,-1.969,-1.969,-1.969,-1.969,-1.9762,-1.9818,-2.0227,-2.0449,-2.0449,-2.0797,-2.0959,-2.0862,-2.0862,-2.0926,-2.1118,-2.1229,-2.1385,-2.1582,-2.1582,-2.1582,-2.1582,-2.107,-2.1023,-2.129,-2.0894,-2.0764,-2.0862,-2.1165,-2.1213,-2.0991,-2.0781,-1.9782,-1.8318,-1.7235,-1.6102,-1.4982,-1.3993,-1.4003,-1.456,-1.505,-1.5652,-1.6348,-1.7092,-1.7585,-1.8066,-1.8688,-1.8893,-1.9006,-1.9566,-1.969,-1.969,-1.969,-1.8968,-1.8263,-1.8145,-1.7706,-1.6925,-1.5676,-1.5005,-1.412,-1.2253,-1.1069,-1.0381,-1.0237,-1.0312,-1.1249,-1.3793,-1.4815,-1.5997,-1.7883,-1.821,-1.8403,-1.8708,-1.9411,-2.051,-2.2014,-2.2451,-2.2727,-2.2918,-1.2523,-0.5073,-0.1787,1.0647,1.4684,0.9263,0.0907,-0.7518,-1.6018,-2.4416,-2.9766,-3.2345,-3.4212,-3.528,-3.5582,-3.3883,-3.2879,-3.2205,-2.9716,-2.8134,-2.7161,-2.5862,-2.5067,-2.4511,-2.3948,-2.3724,-2.3709,-1.8514,-1.8688,-1.8968,-1.9244,-1.953,-1.969,-1.969,-1.969,-1.969,-1.969,-1.969,-1.969,-1.969,-1.969,-1.969,-1.969,-1.9909,-2.0,-2.0,-2.0416,-2.0599,-2.0379,-2.0565,-2.0665,-2.0665,-2.0665,-2.0878,-2.1306,-2.1306,-2.1306,-2.1306,-2.1086,-2.1118,-2.1306,-2.1086,-2.1118,-2.1306,-2.1521,-2.1491,-2.1275,-2.1086,-2.0237,-1.898,-1.7942,-1.6905,-1.5823,-1.4948,-1.4846,-1.5276,-1.6102,-1.6617,-1.6983,-1.7814,-1.8263,-1.8574,-1.9132,-1.9281,-1.9332,-1.9603,-1.969,-1.969,-1.969,-1.9095,-1.8419,-1.8185,-1.7504,-1.6655,-1.5764,-1.5365,-1.462,-1.2903,-1.1899,-1.1397,-1.1538,-1.1551,-1.2605,-1.5659,-1.652,-1.7599,-1.9612,-1.9858,-2.0088,-2.0639,-2.1449,-2.2387,-2.3492,-2.3998,-2.4425,-2.4812,-1.5442,-0.9092,-0.7009,0.3733,0.8206,0.5601,-0.2325,-1.0794,-1.9655,-2.5314,-2.9561,-3.2391,-3.398,-3.4986,-3.5386,-3.4128,-3.3125,-3.2239,-3.0203,-2.8631,-2.7365,-2.6092,-2.5259,-2.4712,-2.4184,-2.3837,-2.3752,-1.864,-1.8765,-1.8968,-1.9369,-1.9566,-1.969,-1.969,-1.969,-1.969,-1.969,-1.969,-1.969,-1.969,-1.969,-1.969,-1.969,-1.969,-1.9747,-1.9854,-2.007,-2.0089,-1.9803,-2.007,-2.0177,-2.0177,-2.0177,-2.0449,-2.0991,-2.0991,-2.1039,-2.1086,-2.1086,-2.1166,-2.1229,-2.1229,-2.1415,-2.1718,-2.1628,-2.1582,-2.1552,-2.1086,-2.04,-1.9606,-1.8565,-1.7585,-1.6705,-1.5954,-1.5672,-1.5884,-1.6967,-1.7435,-1.7747,-1.8612,-1.8893,-1.9006,-1.9442,-1.9479,-1.9442,-1.9442,-1.9479,-1.9566,-1.9566,-1.9244,-1.8779,-1.8341,-1.7463,-1.6612,-1.6145,-1.5884,-1.5277,-1.3839,-1.3023,-1.2789,-1.3311,-1.3192,-1.418,-1.7482,-1.8136,-1.8974,-2.0863,-2.1228,-2.1562,-2.2218,-2.2964,-2.3691,-2.4323,-2.4877,-2.5139,-2.5069,-1.795,-1.3024,-1.1096,-0.4085,0.0248,0.152,-0.6139,-1.4344,-2.2889,-2.5694,-2.8858,-3.2182,-3.3383,-3.4389,-3.5144,-3.4203,-3.3249,-3.2237,-3.0572,-2.9091,-2.7765,-2.6488,-2.5689,-2.5144,-2.4592,-2.4074,-2.3752,-1.7923,-1.8263,-1.8574,-1.8341,-1.908,-1.969,-1.969,-1.969,-1.969,-1.969,-1.969,-1.969,-1.969,-1.969,-1.969,-1.969,-1.969,-1.9925,-2.0429,-2.005,-1.9909,-2.0227,-1.9929,-1.9782,-1.9782,-1.9782,-2.0174,-2.0991,-2.0991,-2.1181,-2.1521,-2.1521,-2.1735,-2.2106,-2.2106,-2.2152,-2.218,-2.1764,-2.1582,-2.1521,-2.0715,-2.0314,-2.0093,-1.9148,-1.8674,-1.8352,-1.6818,-1.6293,-1.6391,-1.7092,-1.7907,-1.8688,-1.8855,-1.8893,-1.8893,-1.9006,-1.8688,-1.8341,-1.8341,-1.865,-1.9006,-1.9006,-1.8968,-1.8893,-1.8817,-1.8341,-1.7854,-1.7773,-1.697,-1.6131,-1.5517,-1.4505,-1.3973,-1.4498,-1.4963,-1.601,-1.8205,-1.9031,-1.9924,-2.1336,-2.2085,-2.2626,-2.3003,-2.3569,-2.4136,-2.4693,-2.4964,-2.5158,-2.5254,-2.2611,-1.8426,-1.2609,-0.9235,-0.6758,-0.5213,-1.0215,-1.5685,-2.1511,-2.4857,-2.8054,-3.1141,-3.2858,-3.4203,-3.504,-3.358,-3.2681,-3.2059,-2.9869,-2.8543,-2.7765,-2.6488,-2.5689,-2.5144,-2.4592,-2.4074,-2.3837,-1.8411,-1.8574,-1.8727,-1.8574,-1.8855,-1.9095,-1.9095,-1.9442,-1.969,-1.969,-1.969,-1.969,-1.969,-1.969,-1.969,-1.969,-1.969,-1.9818,-2.0085,-2.007,-2.0,-1.9965,-2.0,-1.9945,-1.9711,-1.969,-2.0015,-2.0616,-2.0862,-2.1086,-2.1275,-2.1764,-2.2106,-2.231,-2.231,-2.2135,-2.1899,-2.1688,-2.1321,-2.083,-2.0434,-2.0158,-1.9929,-1.95,-1.9169,-1.8765,-1.7706,-1.7341,-1.7464,-1.8324,-1.8736,-1.8968,-1.92,-1.9103,-1.8765,-1.8129,-1.7773,-1.7612,-1.7612,-1.8011,-1.8493,-1.8803,-1.9132,-1.9369,-1.9369,-1.9169,-1.8817,-1.8224,-1.7679,-1.718,-1.6701,-1.6135,-1.596,-1.6399,-1.6771,-1.7581,-1.9269,-2.0001,-2.0782,-2.1869,-2.2582,-2.3045,-2.3189,-2.3949,-2.4551,-2.479,-2.5088,-2.5236,-2.5134,-2.3252,-2.0416,-1.6637,-1.4003,-1.237,-1.1756,-1.3913,-1.7378,-2.1983,-2.4631,-2.7747,-3.132,-3.2469,-3.3692,-3.4813,-3.3684,-3.28,-3.2052,-3.0209,-2.8854,-2.7794,-2.6774,-2.5908,-2.5105,-2.4266,-2.3794,-2.3794]}]]